[[{"header":{"parameterUnit":"m.s-1","parameterCategory":1,"la1":31.0,"la2":29.5877,"lo1":-88.7671,"lo2":-86.6584,"dy":0.0162,"dx":0.0185,"nx":115,"ny":88,"refTime":"2024-04-01T18:00:00:Z","depth":0,"parameterNumber":2,"parameterNumberName":"U-component_of_WINDS"},"data":[0.0,0.0,0.0,0.0,0.0,0.0,0.0,0.0,0.0,0.0,0.0,0.0,0.0,0.0,0.0,0.0,0.0,0.0,0.0,0.0,0.0,0.0,0.0,0.0,0.0,0.0,0.0,0.0,0.0,0.0,0.0,0.0,0.0,0.0,0.0,0.0,0.0,0.0,0.0,0.0,0.0,0.0,0.0,0.0,0.0,0.0,0.0,0.0,0.0,0.0,0.0,0.0,0.0,0.0,0.0,0.0,0.0,0.0,0.0,0.0,0.0,0.0,0.0,0.0,0.0,0.0,0.0,0.0,0.0,0.0,0.0,0.0,0.0,0.0,0.0,0.0,0.0,0.0,0.0,0.0,0.0,0.0,0.0,0.0,0.0,0.0,0.0,0.0,0.0,0.0,0.0,0.0,0.0,0.0,0.0,0.0,0.0,0.0,0.0,0.0,0.0,0.0,0.0,0.0,0.0,0.0,0.0,0.0,0.0,0.0,0.0,0.0,0.0,0.0,0.0,0.0,0.0,0.0,0.0,0.0,0.0,0.0,0.0,0.0,0.0,0.0,0.0,0.0,0.0,0.0,0.0,0.0,0.0,0.0,0.0,0.0,0.0,0.0,0.0,0.0,0.0,0.0,0.0,0.0,0.0,0.0,0.0,0.0,0.0,0.0,0.0,0.0,0.0,0.0,0.0,0.0,0.0,0.0,0.0,0.0,0.0,0.0,0.0,0.0,0.0,0.0,0.0,0.0,0.0,0.0,0.0,0.0,0.0,0.0,0.0,0.0,0.0,0.0,0.0,0.0,0.0,0.0,0.0,0.0,0.0,0.0,0.0,0.0,0.0,0.0,0.0,0.0,0.0,0.0,0.0,0.0,0.0,0.0,0.0,0.0,0.0,0.0,0.0,0.0,0.0,0.0,0.0,0.0,0.0,0.0,0.0,0.0,0.0,0.0,0.0,0.0,0.0,0.0,0.0,0.0,0.0,0.0,0.0,0.0,0.0,0.0,0.0,0.0,0.0,0.0,0.0,0.0,0.0,0.0,0.0,0.0,0.0,0.0,0.0,0.0,0.0,0.0,0.0,0.0,0.0,0.0,0.0,0.0,0.0,0.0,0.0,0.0,0.0,0.0,0.0,0.0,0.0,0.0,0.0,0.0,0.0,0.0,0.0,0.0,0.0,0.0,0.0,0.0,0.0,0.0,0.0,0.0,0.0,0.0,0.0,0.0,0.0,0.0,0.0,0.0,0.0,0.0,0.0,0.0,0.0,0.0,0.0,0.0,0.0,0.0,0.0,0.0,0.0,0.0,0.0,0.0,0.0,0.0,0.0,0.0,0.0,0.0,0.0,0.0,0.0,0.0,0.0,0.0,0.0,0.0,0.0,0.0,0.0,0.0,0.0,0.0,0.0,0.0,0.0,0.0,0.0,0.0,0.0,0.0,0.0,0.0,0.0,0.0,0.0,0.0,0.0,0.0,0.0,0.0,0.0,0.0,0.0,0.0,0.0,0.0,0.0,0.0,0.0,0.0,0.0,0.0,0.0,0.0,0.0,0.0,0.0,0.0,0.0,0.0,0.0,0.0,0.0,0.0,0.0,0.0,0.0,0.0,0.0,0.0,0.0,0.0,0.0,0.0,0.0,0.0,0.0,0.0,0.0,0.0,0.0,0.0,0.0,0.0,0.0,0.0,0.0,0.0,0.0,0.0,0.0,0.0,0.0,0.0,0.0,0.0,0.0,0.0,0.0,0.0,0.0,0.0,0.0,0.0,0.0,0.0,0.0,0.0,0.0,0.0,0.0,0.0,0.0,0.0,0.0,0.0,0.0,0.0,0.0,0.0,0.0,0.0,0.0,0.0,0.0,0.0,0.0,0.0,0.0,0.0,0.0,0.0,0.0,0.0,0.0,0.0,0.0,0.0,0.0,0.0,0.0,0.0,0.0,0.0,0.0,0.0,0.0,0.0,0.0,0.0,0.0,0.0,0.0,0.0,0.0,0.0,0.0,0.0,0.0,0.0,0.0,0.0,0.0,0.0,0.0,0.0,0.0,0.0,0.0,0.0,0.0,0.0,0.0,0.0,0.0,0.0,0.0,0.0,0.0,0.0,0.0,0.0,0.0,0.0,0.0,0.0,0.0,0.0,0.0,0.0,0.0,0.0,0.0,0.0,0.0,0.0,0.0,0.0,0.0,0.0,0.0,0.0,0.0,0.0,0.0,0.0,0.0,0.0,0.0,0.0,0.0,0.0,0.0,0.0,0.0,0.0,0.0,0.0,0.0,0.0,0.0,0.0,0.0,0.0,0.0,0.0,0.0,0.0,0.0,0.0,0.0,0.0,0.0,0.0,0.0,0.0,0.0,0.0,0.0,0.0,0.0,0.0,0.0,0.0,0.0,0.0,0.0,0.0,0.0,0.0,0.0,0.0,0.0,0.0,0.0,0.0,0.0,0.0,0.0,0.0,0.0,0.0,0.0,0.0,0.0,0.0,0.0,0.0,0.0,0.0,0.0,0.0,0.0,0.0,0.0,0.0,0.0,0.0,0.0,0.0,0.0,0.0,0.0,0.0,0.0,0.0,0.0,0.0,0.0,0.0,0.0,0.0,0.0,0.0,0.0,0.0,0.0,0.0,0.0,0.0,0.0,0.0,0.0,0.0,0.0,0.0,0.0,0.0,0.0,0.0,0.0,0.0,0.0,0.0,0.0,0.0,0.0,0.0,0.0,0.0,0.0,0.0,0.0,0.0,0.0,0.0,0.0,0.0,0.0,0.0,0.0,0.0,0.0,0.0,0.0,0.0,0.0,0.0,0.0,0.0,0.0,0.0,0.0,0.0,0.0,0.0,0.0,0.0,0.0,0.0,0.0,0.0,0.0,0.0,0.0,0.0,0.0,0.0,0.0,0.0,0.0,0.0,0.0,0.0,0.0,0.0,0.0,0.0,0.0,0.0,0.0,0.0,0.0,0.0,0.0,0.0,0.0,0.0,0.0,0.0,0.0,0.0,0.0,0.0,0.0,0.0,0.0,0.0,0.0,0.0,0.0,0.0,0.0,0.0,0.0,0.0,0.0,0.0,0.0,0.0,0.0,0.0,0.0,0.0,0.0,0.0,0.0,0.0,0.0,0.0,0.0,0.0,0.0,0.0,0.0,0.0,0.0,0.0,0.0,0.0,0.0,0.0,0.0,0.0,0.0,0.0,0.0,0.0,0.0,0.0,0.0,0.0,0.0,0.0,0.0,0.0,0.0,0.0,0.0,0.0,0.0,0.0,0.0,0.0,0.0,0.0,0.0,0.0,0.0,0.0,0.0,0.0,0.0,0.0,0.0,0.0,0.0,0.0,0.0,0.0,0.0,0.0,0.0,0.0,0.0,0.0,0.0,0.0,0.0,0.0,0.0,0.0,0.0,0.0,0.0,0.0,0.0,0.0,0.0,0.0,0.0,0.0,0.0,0.0,0.0,0.0,0.0,0.0,0.0,0.0,0.0,0.0,0.0,0.0,0.0,0.0,0.0,0.0,0.0,0.0,0.0,0.0,0.0,0.0,0.0,0.0,0.0,0.0,0.0,0.0,0.0,0.0,0.0,0.0,0.0,0.0,0.0,0.0,0.0,0.0,0.0,0.0,0.0,0.0,0.0,0.0,0.0,0.0,0.0,0.0,0.0,0.0,0.0,0.0,0.0,0.0,0.0,0.0,0.0,0.0,0.0,0.0,0.0,0.0,0.0,0.0,0.0,0.0,0.0,0.0,0.0,0.0,0.0,0.0,0.0,0.0,0.0,0.0,0.0,0.0,0.0,0.0,0.0,0.0,0.0,0.0,0.0,0.0,0.0,0.0,0.0,0.0,0.0,0.0,0.0,0.0,0.0,0.0,0.0,0.0,0.0,0.0,0.0,0.0,0.0,0.0,0.0,0.0,0.0,0.0,0.0,0.0,0.0,0.0,0.0,0.0,0.0,0.0,0.0,0.0,0.0,0.0,0.0,0.0,0.0,0.0,0.0,0.0,0.0,0.0,0.0,0.0,0.0,0.0,0.0,0.0,0.0,0.0,0.0,0.0,0.0,0.0,0.0,0.0,0.0,0.0,0.0,0.0,0.0,0.0,0.0,0.0,0.0,0.0,0.0,0.0,0.0,0.0,0.0,0.0,0.0,0.0,0.0,0.0,0.0,0.0,0.0,0.0,0.0,0.0,0.0,0.0,0.0,0.0,0.0,0.0,0.0,0.0,0.0,0.0,0.0,0.0,0.0,0.0,0.0,0.0,0.0,0.0,0.0,0.0,0.0,0.0,3.7563,0.0,0.0,0.0,0.0,0.0,0.0,0.0,0.0,0.0,0.0,0.0,0.0,0.0,0.0,0.0,0.0,0.0,0.0,0.0,0.0,0.0,0.0,0.0,0.0,0.0,0.0,0.0,0.0,0.0,0.0,0.0,0.0,0.0,0.0,0.0,0.0,0.0,0.0,0.0,0.0,0.0,0.0,0.0,0.0,0.0,0.0,0.0,0.0,0.0,0.0,0.0,0.0,0.0,0.0,0.0,0.0,0.0,0.0,0.0,0.0,0.0,0.0,0.0,0.0,0.0,0.0,0.0,0.0,0.0,0.0,0.0,0.0,0.0,0.0,0.0,0.0,0.0,0.0,0.0,0.0,0.0,0.0,0.0,0.0,0.0,0.0,0.0,0.0,0.0,0.0,0.0,0.0,0.0,0.0,0.0,0.0,0.0,0.0,0.0,0.0,0.0,0.0,0.0,0.0,0.0,0.0,0.0,0.0,0.0,0.0,3.9319,3.9292,3.8546,3.796,3.767,0.0,0.0,0.0,0.0,0.0,0.0,0.0,0.0,0.0,0.0,0.0,0.0,0.0,0.0,0.0,0.0,0.0,0.0,0.0,0.0,0.0,0.0,0.0,0.0,0.0,0.0,0.0,0.0,0.0,0.0,0.0,0.0,0.0,0.0,0.0,0.0,0.0,0.0,0.0,0.0,0.0,0.0,0.0,0.0,0.0,0.0,0.0,0.0,0.0,0.0,0.0,0.0,0.0,0.0,0.0,0.0,0.0,0.0,0.0,0.0,0.0,0.0,0.0,0.0,0.0,0.0,0.0,0.0,0.0,0.0,0.0,0.0,0.0,0.0,0.0,0.0,0.0,0.0,0.0,0.0,0.0,0.0,0.0,0.0,0.0,0.0,0.0,0.0,0.0,0.0,0.0,0.0,0.0,0.0,0.0,0.0,0.0,0.0,0.0,0.0,0.0,0.0,0.0,0.0,0.0,0.0,0.0,0.0,0.0,0.0,0.0,0.0,3.8898,3.8451,3.8069,0.0,0.0,0.0,0.0,0.0,0.0,0.0,0.0,0.0,0.0,0.0,0.0,0.0,0.0,0.0,0.0,0.0,0.0,0.0,0.0,0.0,0.0,0.0,0.0,0.0,0.0,0.0,0.0,0.0,0.0,0.0,0.0,0.0,0.0,0.0,0.0,0.0,0.0,0.0,0.0,0.0,0.0,0.0,0.0,0.0,0.0,0.0,0.0,0.0,0.0,0.0,0.0,0.0,0.0,0.0,0.0,0.0,0.0,0.0,0.0,0.0,0.0,0.0,0.0,0.0,0.0,0.0,0.0,0.0,0.0,0.0,0.0,0.0,0.0,0.0,0.0,0.0,0.0,0.0,0.0,0.0,0.0,0.0,0.0,0.0,0.0,0.0,0.0,0.0,0.0,0.0,0.0,0.0,0.0,0.0,0.0,0.0,0.0,0.0,0.0,0.0,0.0,0.0,0.0,0.0,0.0,0.0,0.0,0.0,0.0,3.9563,4.0078,4.0051,0.0,3.9268,0.0,0.0,0.0,0.0,0.0,0.0,0.0,0.0,0.0,0.0,0.0,0.0,0.0,0.0,0.0,0.0,0.0,0.0,0.0,0.0,0.0,0.0,0.0,0.0,0.0,0.0,0.0,0.0,0.0,0.0,0.0,0.0,0.0,0.0,0.0,0.0,0.0,0.0,0.0,0.0,0.0,0.0,0.0,0.0,0.0,0.0,0.0,0.0,0.0,0.0,0.0,0.0,0.0,0.0,0.0,0.0,0.0,0.0,0.0,0.0,0.0,0.0,0.0,0.0,0.0,0.0,0.0,0.0,0.0,0.0,0.0,0.0,0.0,0.0,0.0,0.0,0.0,0.0,0.0,0.0,0.0,0.0,0.0,0.0,0.0,0.0,0.0,0.0,0.0,0.0,0.0,0.0,0.0,0.0,0.0,0.0,0.0,0.0,0.0,0.0,0.0,0.0,0.0,0.0,0.0,0.0,0.0,0.0,0.0,0.0,3.9769,4.016,4.0005,3.9661,0.0,0.0,0.0,0.0,0.0,0.0,0.0,0.0,0.0,0.0,0.0,0.0,0.0,0.0,0.0,0.0,0.0,0.0,0.0,0.0,0.0,0.0,0.0,0.0,0.0,0.0,0.0,0.0,0.0,0.0,0.0,0.0,0.0,0.0,0.0,0.0,0.0,0.0,0.0,0.0,0.0,0.0,0.0,0.0,0.0,0.0,0.0,0.0,0.0,0.0,0.0,0.0,0.0,0.0,0.0,0.0,0.0,0.0,0.0,0.0,0.0,0.0,0.0,0.0,0.0,0.0,0.0,0.0,0.0,0.0,0.0,0.0,0.0,0.0,0.0,0.0,0.0,0.0,0.0,0.0,0.0,0.0,0.0,0.0,0.0,0.0,0.0,0.0,0.0,0.0,0.0,0.0,0.0,0.0,0.0,0.0,0.0,0.0,0.0,0.0,0.0,0.0,0.0,0.0,0.0,0.0,0.0,0.0,0.0,0.0,4.0117,4.0131,4.0377,3.9833,3.9301,3.8692,0.0,0.0,0.0,0.0,0.0,0.0,0.0,0.0,0.0,0.0,0.0,0.0,0.0,0.0,0.0,0.0,0.0,0.0,0.0,0.0,0.0,0.0,0.0,0.0,0.0,0.0,0.0,0.0,0.0,0.0,0.0,0.0,0.0,0.0,0.0,0.0,0.0,0.0,0.0,0.0,0.0,0.0,0.0,0.0,0.0,0.0,0.0,0.0,0.0,0.0,0.0,0.0,0.0,0.0,0.0,0.0,0.0,0.0,0.0,0.0,0.0,0.0,0.0,0.0,0.0,0.0,0.0,0.0,0.0,0.0,0.0,0.0,0.0,0.0,0.0,0.0,0.0,0.0,0.0,0.0,0.0,0.0,0.0,0.0,0.0,0.0,0.0,0.0,0.0,0.0,0.0,0.0,0.0,0.0,0.0,0.0,0.0,0.0,0.0,0.0,0.0,0.0,0.0,0.0,0.0,0.0,0.0,0.0,4.1653,4.0913,4.0732,4.0974,3.9671,3.8935,0.0,0.0,0.0,0.0,0.0,0.0,0.0,0.0,0.0,0.0,0.0,0.0,0.0,0.0,0.0,0.0,0.0,0.0,0.0,0.0,0.0,0.0,0.0,0.0,0.0,0.0,0.0,0.0,0.0,0.0,0.0,0.0,0.0,0.0,0.0,0.0,0.0,0.0,0.0,0.0,0.0,0.0,0.0,0.0,0.0,0.0,0.0,0.0,0.0,0.0,0.0,0.0,0.0,0.0,0.0,0.0,0.0,0.0,0.0,0.0,0.0,0.0,0.0,0.0,0.0,0.0,0.0,0.0,0.0,0.0,0.0,0.0,0.0,0.0,0.0,0.0,0.0,0.0,0.0,0.0,0.0,0.0,0.0,0.0,0.0,0.0,0.0,0.0,0.0,0.0,0.0,0.0,0.0,0.0,0.0,0.0,0.0,0.0,0.0,0.0,0.0,0.0,0.0,0.0,0.0,0.0,0.0,0.0,0.0,4.0863,4.0673,4.0404,3.997,3.9798,3.933,0.0,0.0,0.0,0.0,0.0,0.0,0.0,0.0,0.0,0.0,0.0,0.0,0.0,0.0,0.0,0.0,0.0,0.0,0.0,0.0,0.0,0.0,0.0,0.0,0.0,0.0,0.0,0.0,0.0,0.0,0.0,0.0,0.0,0.0,0.0,0.0,0.0,0.0,0.0,0.0,0.0,0.0,0.0,0.0,0.0,0.0,0.0,0.0,0.0,0.0,0.0,0.0,0.0,0.0,0.0,0.0,0.0,0.0,0.0,0.0,0.0,0.0,0.0,0.0,0.0,0.0,0.0,0.0,0.0,0.0,0.0,0.0,0.0,0.0,0.0,0.0,0.0,0.0,0.0,0.0,0.0,0.0,0.0,0.0,0.0,0.0,0.0,0.0,0.0,0.0,0.0,0.0,0.0,0.0,0.0,0.0,0.0,0.0,0.0,0.0,0.0,0.0,0.0,0.0,0.0,0.0,0.0,0.0,0.0,4.0705,0.0,4.0295,3.9707,3.987,3.9257,0.0,0.0,0.0,0.0,0.0,0.0,0.0,0.0,0.0,0.0,0.0,0.0,0.0,0.0,0.0,0.0,0.0,0.0,0.0,0.0,0.0,0.0,0.0,0.0,0.0,0.0,0.0,0.0,0.0,0.0,0.0,0.0,0.0,0.0,0.0,0.0,0.0,0.0,0.0,0.0,0.0,0.0,0.0,0.0,0.0,0.0,0.0,0.0,0.0,0.0,0.0,0.0,0.0,0.0,0.0,0.0,0.0,0.0,0.0,0.0,0.0,0.0,0.0,0.0,0.0,0.0,0.0,0.0,0.0,0.0,0.0,0.0,0.0,0.0,0.0,0.0,0.0,0.0,0.0,0.0,0.0,0.0,0.0,0.0,0.0,0.0,0.0,0.0,0.0,0.0,0.0,0.0,0.0,0.0,0.0,0.0,0.0,0.0,0.0,0.0,0.0,0.0,0.0,0.0,0.0,0.0,0.0,0.0,4.0938,4.1263,4.0873,4.0631,4.0603,3.9878,3.8803,0.0,0.0,0.0,0.0,0.0,0.0,0.0,0.0,0.0,0.0,0.0,0.0,0.0,0.0,0.0,0.0,0.0,0.0,0.0,0.0,0.0,0.0,0.0,0.0,0.0,0.0,0.0,0.0,0.0,0.0,0.0,0.0,0.0,0.0,0.0,0.0,0.0,0.0,0.0,0.0,0.0,0.0,0.0,0.0,0.0,0.0,0.0,0.0,0.0,0.0,0.0,0.0,0.0,0.0,0.0,0.0,0.0,0.0,0.0,0.0,0.0,0.0,0.0,0.0,0.0,0.0,0.0,0.0,0.0,0.0,0.0,0.0,0.0,0.0,0.0,0.0,0.0,0.0,0.0,0.0,0.0,0.0,0.0,0.0,0.0,0.0,0.0,0.0,0.0,0.0,0.0,0.0,0.0,0.0,0.0,0.0,0.0,0.0,0.0,0.0,0.0,0.0,0.0,0.0,0.0,0.0,0.0,0.0,0.0,4.1318,4.1591,4.1736,4.1781,4.0759,3.9932,0.0,0.0,0.0,0.0,0.0,0.0,0.0,0.0,0.0,0.0,0.0,0.0,0.0,0.0,0.0,0.0,0.0,0.0,0.0,0.0,0.0,0.0,0.0,0.0,0.0,0.0,0.0,0.0,0.0,0.0,0.0,0.0,0.0,0.0,0.0,0.0,0.0,0.0,0.0,0.0,0.0,0.0,0.0,0.0,0.0,0.0,0.0,0.0,0.0,0.0,0.0,0.0,0.0,0.0,0.0,0.0,0.0,0.0,0.0,0.0,0.0,0.0,0.0,0.0,0.0,0.0,0.0,0.0,0.0,0.0,0.0,0.0,0.0,0.0,0.0,0.0,0.0,0.0,0.0,0.0,0.0,0.0,0.0,0.0,0.0,0.0,0.0,0.0,0.0,0.0,0.0,0.0,0.0,0.0,0.0,0.0,0.0,0.0,0.0,0.0,0.0,0.0,0.0,0.0,0.0,0.0,0.0,0.0,0.0,4.4031,4.3538,4.3287,4.3393,4.1956,4.1014,4.0341,0.0,0.0,0.0,0.0,0.0,0.0,0.0,0.0,0.0,0.0,0.0,0.0,0.0,0.0,0.0,0.0,0.0,0.0,0.0,0.0,0.0,0.0,0.0,0.0,0.0,0.0,0.0,0.0,0.0,0.0,0.0,0.0,0.0,0.0,0.0,0.0,0.0,0.0,0.0,0.0,0.0,0.0,0.0,0.0,0.0,0.0,0.0,0.0,0.0,0.0,0.0,0.0,0.0,0.0,0.0,0.0,0.0,0.0,0.0,0.0,0.0,0.0,0.0,0.0,0.0,0.0,0.0,0.0,0.0,0.0,0.0,0.0,0.0,0.0,0.0,0.0,0.0,0.0,0.0,0.0,0.0,0.0,0.0,0.0,0.0,0.0,0.0,0.0,0.0,0.0,0.0,0.0,0.0,0.0,0.0,0.0,0.0,0.0,0.0,0.0,0.0,0.0,0.0,0.0,0.0,0.0,0.0,0.0,4.878,4.6757,4.5651,4.5483,4.3669,4.2093,0.0,0.0,0.0,0.0,0.0,0.0,0.0,0.0,0.0,0.0,0.0,0.0,0.0,0.0,0.0,0.0,0.0,0.0,0.0,0.0,0.0,0.0,0.0,0.0,0.0,0.0,0.0,0.0,0.0,0.0,0.0,0.0,0.0,0.0,0.0,0.0,0.0,0.0,0.0,0.0,0.0,0.0,0.0,0.0,0.0,0.0,0.0,0.0,0.0,0.0,0.0,0.0,0.0,0.0,0.0,0.0,0.0,0.0,0.0,0.0,0.0,0.0,0.0,0.0,0.0,0.0,0.0,0.0,0.0,0.0,0.0,0.0,0.0,0.0,0.0,0.0,0.0,0.0,0.0,0.0,0.0,0.0,0.0,0.0,0.0,0.0,0.0,0.0,0.0,0.0,0.0,0.0,0.0,0.0,0.0,0.0,0.0,0.0,0.0,0.0,0.0,0.0,0.0,0.0,0.0,0.0,0.0,0.0,0.0,5.1229,5.3015,5.2879,5.0803,4.7494,4.5149,0.0,0.0,0.0,0.0,0.0,0.0,0.0,0.0,0.0,0.0,0.0,0.0,0.0,0.0,0.0,0.0,0.0,0.0,0.0,0.0,0.0,0.0,0.0,0.0,0.0,0.0,0.0,0.0,0.0,0.0,0.0,0.0,0.0,0.0,0.0,0.0,0.0,0.0,0.0,0.0,0.0,0.0,0.0,0.0,0.0,0.0,0.0,0.0,0.0,0.0,0.0,0.0,0.0,0.0,0.0,0.0,0.0,0.0,0.0,0.0,0.0,0.0,0.0,0.0,0.0,0.0,0.0,0.0,0.0,0.0,0.0,0.0,0.0,0.0,0.0,0.0,0.0,0.0,0.0,0.0,0.0,0.0,0.0,0.0,0.0,0.0,0.0,0.0,0.0,0.0,0.0,0.0,0.0,0.0,0.0,0.0,0.0,0.0,0.0,0.0,0.0,0.0,0.0,0.0,0.0,0.0,0.0,0.0,5.1513,5.4483,5.7591,5.8526,5.7095,5.2093,4.8284,0.0,0.0,0.0,0.0,0.0,0.0,0.0,0.0,0.0,0.0,0.0,0.0,0.0,0.0,0.0,0.0,0.0,0.0,0.0,0.0,0.0,0.0,0.0,0.0,0.0,0.0,0.0,0.0,0.0,0.0,0.0,0.0,0.0,0.0,0.0,0.0,0.0,0.0,0.0,0.0,0.0,0.0,0.0,0.0,0.0,0.0,0.0,0.0,0.0,0.0,0.0,0.0,0.0,0.0,0.0,0.0,0.0,0.0,0.0,0.0,0.0,0.0,0.0,0.0,0.0,0.0,0.0,0.0,0.0,0.0,0.0,0.0,0.0,0.0,0.0,0.0,0.0,0.0,0.0,0.0,0.0,0.0,0.0,0.0,0.0,0.0,0.0,0.0,0.0,0.0,0.0,0.0,0.0,0.0,0.0,0.0,0.0,0.0,0.0,0.0,0.0,0.0,0.0,0.0,0.0,0.0,0.0,0.0,5.3717,5.7797,6.0946,6.2807,6.3022,5.6872,5.1509,0.0,0.0,0.0,0.0,0.0,0.0,0.0,0.0,0.0,0.0,0.0,0.0,0.0,0.0,0.0,0.0,0.0,0.0,0.0,0.0,0.0,0.0,0.0,0.0,0.0,0.0,0.0,0.0,0.0,0.0,0.0,0.0,0.0,0.0,0.0,0.0,0.0,0.0,0.0,0.0,0.0,0.0,0.0,0.0,0.0,0.0,0.0,0.0,0.0,0.0,0.0,0.0,0.0,0.0,0.0,0.0,0.0,0.0,0.0,0.0,0.0,0.0,0.0,0.0,0.0,0.0,0.0,0.0,0.0,0.0,0.0,0.0,0.0,0.0,0.0,0.0,0.0,0.0,0.0,0.0,0.0,0.0,0.0,0.0,0.0,0.0,0.0,0.0,0.0,0.0,0.0,0.0,0.0,0.0,0.0,0.0,0.0,0.0,0.0,0.0,0.0,0.0,0.0,0.0,0.0,0.0,0.0,0.0,5.6306,6.0373,6.3779,6.5114,6.4479,5.9123,5.4092,0.0,0.0,0.0,0.0,0.0,0.0,0.0,0.0,0.0,0.0,0.0,0.0,0.0,0.0,0.0,0.0,0.0,0.0,0.0,0.0,0.0,0.0,0.0,0.0,0.0,0.0,0.0,0.0,0.0,0.0,0.0,0.0,0.0,0.0,0.0,0.0,0.0,0.0,0.0,0.0,0.0,0.0,0.0,0.0,0.0,0.0,0.0,0.0,2.7943,0.0,0.0,0.0,0.0,0.0,0.0,0.0,0.0,0.0,0.0,0.0,0.0,0.0,0.0,0.0,0.0,0.0,0.0,0.0,0.0,0.0,0.0,0.0,0.0,0.0,0.0,0.0,0.0,0.0,0.0,0.0,0.0,0.0,0.0,0.0,0.0,0.0,0.0,0.0,0.0,0.0,0.0,0.0,0.0,0.0,0.0,0.0,0.0,0.0,0.0,0.0,0.0,0.0,0.0,0.0,0.0,0.0,0.0,0.0,5.779,6.2034,6.5475,6.6826,6.5679,6.2082,5.733,0.0,0.0,0.0,0.0,0.0,0.0,0.0,0.0,0.0,0.0,0.0,0.0,0.0,0.0,0.0,0.0,0.0,0.0,0.0,0.0,0.0,0.0,0.0,0.0,0.0,0.0,0.0,0.0,0.0,0.0,0.0,0.0,0.0,0.0,0.0,0.0,0.0,0.0,0.0,0.0,0.0,0.0,0.0,0.0,0.0,0.0,0.0,0.0,0.0,0.0,0.0,0.0,0.0,0.0,0.0,0.0,0.0,0.0,0.0,0.0,0.0,0.0,0.0,0.0,0.0,0.0,0.0,0.0,0.0,0.0,0.0,0.0,0.0,0.0,0.0,0.0,0.0,0.0,0.0,0.0,0.0,0.0,0.0,0.0,0.0,0.0,0.0,0.0,0.0,0.0,0.0,0.0,0.0,0.0,0.0,0.0,0.0,0.0,0.0,0.0,0.0,0.0,0.0,0.0,0.0,0.0,0.0,5.403,5.8971,6.3551,6.6682,6.786,6.6879,6.4643,6.009,5.3319,0.0,0.0,0.0,0.0,0.0,0.0,0.0,0.0,0.0,0.0,0.0,0.0,0.0,0.0,0.0,0.0,0.0,0.0,0.0,0.0,0.0,0.0,0.0,0.0,0.0,0.0,0.0,0.0,0.0,0.0,0.0,0.0,0.0,0.0,0.0,0.0,0.0,0.0,2.8359,2.9539,0.0,0.0,0.0,0.0,0.0,0.0,0.0,0.0,2.7988,0.0,0.0,0.0,0.0,0.0,0.0,0.0,0.0,0.0,0.0,0.0,0.0,0.0,0.0,0.0,0.0,0.0,0.0,0.0,0.0,0.0,0.0,0.0,0.0,0.0,0.0,0.0,0.0,0.0,0.0,0.0,0.0,0.0,0.0,0.0,0.0,0.0,0.0,0.0,0.0,0.0,0.0,0.0,0.0,0.0,0.0,0.0,0.0,0.0,0.0,0.0,0.0,0.0,0.0,0.0,0.0,5.1899,5.5481,6.023,6.5965,6.7602,6.809,6.7644,6.4444,5.9836,5.3957,0.0,0.0,0.0,0.0,0.0,0.0,0.0,0.0,0.0,0.0,0.0,0.0,0.0,0.0,0.0,0.0,0.0,0.0,0.0,0.0,0.0,0.0,0.0,0.0,0.0,0.0,0.0,0.0,0.0,0.0,0.0,0.0,0.0,0.0,0.0,0.0,0.0,0.0,0.0,3.1319,3.1899,0.0,0.0,0.0,0.0,0.0,0.0,0.0,0.0,2.8726,0.0,0.0,0.0,0.0,0.0,0.0,0.0,0.0,0.0,0.0,0.0,0.0,0.0,0.0,0.0,0.0,0.0,0.0,0.0,0.0,0.0,0.0,0.0,0.0,0.0,0.0,0.0,0.0,0.0,0.0,0.0,0.0,0.0,0.0,0.0,0.0,0.0,0.0,0.0,0.0,0.0,0.0,0.0,0.0,0.0,0.0,0.0,0.0,0.0,0.0,0.0,0.0,0.0,0.0,0.0,5.2152,5.6531,6.1126,6.5809,6.7398,6.7769,6.6947,6.3668,5.9177,0.0,0.0,0.0,0.0,0.0,0.0,0.0,0.0,0.0,0.0,0.0,0.0,0.0,0.0,0.0,0.0,0.0,0.0,0.0,0.0,0.0,0.0,0.0,0.0,0.0,0.0,0.0,0.0,0.0,0.0,0.0,0.0,0.0,0.0,0.0,0.0,0.0,0.0,0.0,0.0,3.2197,3.2644,3.3559,0.0,0.0,0.0,0.0,0.0,0.0,2.9844,2.8748,0.0,0.0,0.0,0.0,0.0,0.0,0.0,0.0,0.0,0.0,0.0,0.0,0.0,0.0,0.0,0.0,0.0,0.0,0.0,0.0,0.0,0.0,0.0,0.0,0.0,0.0,0.0,0.0,0.0,0.0,0.0,0.0,0.0,0.0,0.0,0.0,0.0,0.0,0.0,0.0,0.0,0.0,0.0,0.0,0.0,0.0,0.0,0.0,0.0,0.0,0.0,0.0,0.0,0.0,0.0,5.2152,5.7061,6.1515,6.5482,6.6984,6.7239,6.6219,6.2708,5.8311,0.0,0.0,0.0,0.0,0.0,0.0,0.0,0.0,0.0,0.0,0.0,0.0,0.0,0.0,0.0,0.0,0.0,0.0,0.0,0.0,0.0,0.0,0.0,0.0,0.0,0.0,0.0,0.0,0.0,0.0,0.0,0.0,0.0,0.0,0.0,0.0,0.0,0.0,0.0,0.0,0.0,3.3505,3.447,3.3796,0.0,0.0,0.0,0.0,3.1707,3.0451,0.0,0.0,0.0,0.0,0.0,0.0,0.0,0.0,0.0,0.0,0.0,0.0,0.0,0.0,0.0,0.0,0.0,0.0,0.0,0.0,0.0,0.0,0.0,0.0,0.0,0.0,0.0,0.0,0.0,0.0,0.0,0.0,0.0,0.0,0.0,0.0,0.0,0.0,0.0,0.0,0.0,0.0,0.0,0.0,0.0,0.0,0.0,0.0,0.0,0.0,0.0,0.0,0.0,0.0,0.0,0.0,5.336,5.7061,6.1487,6.6615,6.6587,6.636,6.619,6.2155,5.7422,0.0,0.0,0.0,0.0,0.0,0.0,0.0,0.0,0.0,0.0,0.0,0.0,0.0,0.0,0.0,0.0,0.0,0.0,0.0,0.0,0.0,0.0,0.0,0.0,0.0,0.0,0.0,0.0,0.0,0.0,0.0,0.0,0.0,0.0,0.0,0.0,0.0,0.0,0.0,0.0,0.0,3.4569,3.4793,3.4921,3.4941,0.0,0.0,3.3518,3.398,3.2902,0.0,0.0,0.0,0.0,0.0,0.0,0.0,0.0,0.0,0.0,0.0,0.0,0.0,0.0,0.0,0.0,0.0,0.0,0.0,0.0,0.0,0.0,0.0,0.0,0.0,0.0,0.0,0.0,0.0,0.0,0.0,0.0,0.0,0.0,0.0,0.0,0.0,0.0,0.0,0.0,0.0,0.0,0.0,0.0,0.0,0.0,0.0,0.0,0.0,0.0,0.0,0.0,0.0,0.0,0.0,4.9022,5.3107,5.733,6.1429,6.5125,6.5718,6.5605,6.49,6.1109,5.6854,0.0,0.0,0.0,0.0,0.0,0.0,0.0,0.0,0.0,0.0,0.0,0.0,0.0,0.0,0.0,0.0,0.0,0.0,0.0,0.0,0.0,0.0,0.0,0.0,0.0,0.0,0.0,0.0,0.0,0.0,0.0,0.0,0.0,0.0,0.0,0.0,0.0,0.0,0.0,0.0,0.0,0.0,3.6061,3.6561,0.0,0.0,0.0,3.506,3.4485,0.0,0.0,0.0,0.0,0.0,0.0,0.0,0.0,0.0,0.0,0.0,0.0,0.0,0.0,0.0,0.0,0.0,0.0,0.0,0.0,0.0,0.0,0.0,0.0,0.0,0.0,0.0,0.0,0.0,0.0,0.0,0.0,0.0,0.0,0.0,0.0,0.0,0.0,0.0,0.0,0.0,0.0,0.0,0.0,0.0,0.0,0.0,0.0,0.0,0.0,0.0,0.0,0.0,0.0,0.0,0.0,0.0,5.2714,5.7603,6.1397,6.3954,6.5106,6.5162,6.4038,6.0802,0.0,0.0,0.0,0.0,0.0,0.0,0.0,0.0,0.0,0.0,0.0,0.0,0.0,0.0,0.0,0.0,0.0,0.0,0.0,0.0,0.0,0.0,0.0,0.0,0.0,0.0,0.0,2.6365,0.0,0.0,0.0,0.0,0.0,0.0,0.0,0.0,0.0,0.0,0.0,0.0,0.0,0.0,3.6018,3.7043,3.7749,3.786,0.0,0.0,3.619,3.5337,3.4874,3.3613,0.0,0.0,0.0,0.0,0.0,0.0,0.0,0.0,0.0,0.0,0.0,0.0,0.0,0.0,0.0,0.0,0.0,0.0,0.0,0.0,0.0,0.0,0.0,0.0,0.0,0.0,0.0,0.0,0.0,0.0,0.0,0.0,0.0,0.0,0.0,0.0,0.0,0.0,0.0,0.0,0.0,0.0,0.0,0.0,0.0,0.0,0.0,0.0,0.0,0.0,0.0,0.0,0.0,0.0,0.0,5.2742,5.7603,6.1593,6.4572,6.5331,6.5359,6.4684,6.1445,5.7283,0.0,0.0,0.0,0.0,0.0,0.0,0.0,0.0,0.0,0.0,0.0,0.0,0.0,0.0,0.0,0.0,0.0,0.0,0.0,0.0,0.0,0.0,0.0,0.0,0.0,0.0,0.0,0.0,0.0,0.0,0.0,0.0,0.0,0.0,0.0,0.0,0.0,0.0,0.0,0.0,0.0,3.6701,3.6763,3.8007,3.884,0.0,0.0,3.6621,3.6953,3.6104,3.4473,3.1374,0.0,0.0,0.0,0.0,0.0,0.0,0.0,0.0,0.0,0.0,0.0,0.0,0.0,0.0,0.0,0.0,0.0,0.0,0.0,0.0,0.0,0.0,0.0,0.0,0.0,0.0,0.0,0.0,0.0,0.0,0.0,0.0,0.0,0.0,0.0,0.0,0.0,0.0,0.0,0.0,0.0,0.0,0.0,0.0,0.0,0.0,0.0,0.0,0.0,0.0,0.0,0.0,0.0,4.7823,5.2152,5.7041,6.0722,6.2998,6.3768,6.3963,6.3376,6.092,5.7244,0.0,0.0,0.0,0.0,0.0,0.0,0.0,0.0,0.0,0.0,0.0,0.0,0.0,0.0,0.0,0.0,0.0,0.0,0.0,0.0,0.0,0.0,0.0,0.0,0.0,0.0,0.0,0.0,2.8457,2.8618,2.8228,0.0,0.0,0.0,0.0,0.0,0.0,0.0,0.0,0.0,0.0,3.6784,3.7902,3.8712,0.0,0.0,3.8062,3.7598,3.7086,3.6018,3.4257,3.1185,2.9198,0.0,0.0,0.0,0.0,0.0,0.0,0.0,0.0,0.0,0.0,0.0,0.0,0.0,0.0,0.0,0.0,0.0,0.0,0.0,0.0,0.0,0.0,0.0,0.0,0.0,0.0,0.0,0.0,0.0,0.0,0.0,0.0,0.0,0.0,0.0,0.0,0.0,0.0,0.0,0.0,0.0,0.0,0.0,0.0,0.0,0.0,0.0,0.0,0.0,0.0,0.0,0.0,4.707,5.1759,5.6669,6.0089,6.1828,6.299,6.3273,6.2526,6.0772,5.7633,0.0,0.0,0.0,0.0,0.0,0.0,0.0,0.0,0.0,0.0,0.0,0.0,0.0,0.0,0.0,0.0,0.0,0.0,0.0,0.0,0.0,0.0,0.0,0.0,0.0,0.0,0.0,0.0,2.9045,2.9072,2.8274,0.0,0.0,0.0,0.0,0.0,0.0,0.0,0.0,0.0,0.0,3.7123,3.8262,3.8888,3.9129,3.8432,3.7972,3.7536,3.667,3.5612,3.3965,3.1195,0.0,0.0,0.0,0.0,0.0,0.0,0.0,0.0,0.0,0.0,0.0,0.0,0.0,0.0,0.0,0.0,0.0,0.0,0.0,0.0,0.0,0.0,0.0,0.0,0.0,0.0,0.0,0.0,0.0,0.0,0.0,0.0,0.0,0.0,0.0,0.0,0.0,0.0,0.0,0.0,0.0,0.0,0.0,0.0,0.0,0.0,0.0,0.0,0.0,0.0,0.0,0.0,0.0,0.0,5.1787,5.6744,5.9874,6.1406,6.3217,6.3693,6.2809,6.1513,5.9008,5.4923,0.0,0.0,0.0,0.0,0.0,0.0,0.0,0.0,0.0,0.0,0.0,0.0,0.0,0.0,0.0,0.0,0.0,0.0,0.0,0.0,0.0,0.0,0.0,0.0,0.0,0.0,2.82,2.8639,2.8892,0.0,0.0,0.0,0.0,0.0,0.0,0.0,0.0,0.0,0.0,3.5845,3.8112,3.7743,3.8181,3.8409,3.8009,3.708,3.6088,3.5815,3.502,3.3579,0.0,0.0,0.0,0.0,0.0,0.0,0.0,0.0,0.0,0.0,0.0,0.0,0.0,0.0,0.0,0.0,0.0,0.0,0.0,0.0,0.0,0.0,0.0,0.0,0.0,0.0,0.0,0.0,4.4926,0.0,0.0,0.0,0.0,0.0,0.0,0.0,0.0,0.0,0.0,0.0,5.0452,5.0239,0.0,0.0,0.0,0.0,0.0,0.0,0.0,0.0,0.0,0.0,0.0,0.0,4.6008,5.2294,5.7676,6.0568,6.0821,6.1975,6.2314,6.174,6.0809,5.8058,5.3335,0.0,0.0,0.0,0.0,0.0,0.0,0.0,0.0,0.0,0.0,0.0,0.0,0.0,0.0,0.0,0.0,0.0,0.0,0.0,0.0,0.0,0.0,0.0,0.0,0.0,2.9263,0.0,0.0,0.0,0.0,0.0,0.0,0.0,0.0,0.0,0.0,0.0,3.2656,3.4044,3.5651,3.6818,3.7271,3.7355,3.7497,0.0,0.0,0.0,0.0,0.0,0.0,0.0,0.0,0.0,0.0,0.0,0.0,0.0,0.0,2.8105,2.6405,2.5246,2.438,2.3694,0.0,0.0,0.0,0.0,0.0,0.0,0.0,0.0,0.0,0.0,0.0,0.0,0.0,0.0,0.0,0.0,4.6386,0.0,0.0,0.0,0.0,0.0,0.0,0.0,0.0,5.0685,5.2292,5.3841,5.3238,5.273,0.0,5.0957,4.8553,0.0,0.0,0.0,0.0,0.0,0.0,0.0,0.0,4.5847,5.2603,5.8051,6.0625,6.0413,6.1181,6.1411,6.1166,6.0321,5.81,5.4083,5.0564,4.7113,0.0,0.0,0.0,0.0,0.0,0.0,0.0,0.0,0.0,0.0,0.0,0.0,0.0,0.0,0.0,0.0,0.0,0.0,0.0,0.0,0.0,0.0,0.0,2.9797,0.0,0.0,0.0,0.0,0.0,0.0,0.0,0.0,0.0,3.0994,3.2241,3.3598,3.4943,3.5759,3.6421,3.6836,0.0,0.0,0.0,0.0,0.0,0.0,0.0,3.2459,3.2059,3.1612,3.1413,3.1513,3.1677,3.1967,3.1685,0.0,0.0,2.8191,2.6923,2.6154,2.5534,2.4583,2.3722,2.3555,2.324,2.3108,0.0,0.0,0.0,0.0,0.0,0.0,0.0,0.0,5.1184,5.0812,0.0,4.8865,0.0,0.0,0.0,0.0,0.0,0.0,0.0,0.0,5.4714,5.6214,5.633,5.6764,5.6593,5.5793,5.565,5.4362,5.1871,4.694,0.0,0.0,0.0,0.0,0.0,0.0,4.6701,5.2771,5.7556,6.0069,6.0049,6.0834,6.122,6.0782,6.0267,5.9076,5.7091,5.3806,5.0539,4.7466,4.3932,0.0,0.0,0.0,0.0,0.0,0.0,0.0,0.0,0.0,0.0,0.0,0.0,0.0,0.0,0.0,0.0,0.0,0.0,0.0,0.0,3.0874,0.0,0.0,0.0,0.0,0.0,0.0,0.0,0.0,0.0,0.0,3.1613,3.3538,3.5082,3.5273,0.0,0.0,0.0,0.0,3.594,3.5246,3.4637,3.4299,3.4008,3.4189,3.415,3.3953,0.0,0.0,3.4515,3.3983,3.3741,3.3224,3.2326,3.1411,3.0449,2.9035,2.7819,2.7291,2.667,2.5989,2.5461,2.5274,2.5163,6.1454,0.0,0.0,0.0,0.0,5.5008,5.5637,5.621,5.6673,5.5979,5.4475,5.3452,0.0,0.0,0.0,0.0,0.0,0.0,5.4367,5.7017,5.8378,5.9711,6.1015,6.0754,6.0403,5.9961,5.8608,5.7484,5.6451,5.3493,4.9671,4.5425,0.0,0.0,0.0,0.0,4.8299,5.4803,5.8244,6.0097,6.0286,6.1329,6.1794,6.1352,6.0939,5.9639,5.7224,5.5123,5.249,4.927,4.6543,0.0,0.0,0.0,0.0,0.0,0.0,0.0,0.0,0.0,0.0,0.0,0.0,0.0,0.0,0.0,0.0,0.0,0.0,0.0,3.1534,3.1952,3.1699,0.0,0.0,0.0,0.0,0.0,0.0,0.0,0.0,0.0,3.3697,3.4575,3.5293,0.0,0.0,3.6014,3.6146,3.5635,3.541,3.5713,3.5258,0.0,0.0,3.5237,3.4797,3.5332,3.6,3.6423,3.6258,3.6173,3.5799,3.4991,3.3862,3.2889,3.2474,3.0817,2.9414,2.8935,2.84,2.7923,2.7539,2.7483,2.7207,6.8044,6.3922,6.0638,5.9306,5.948,5.9972,6.0464,6.0961,6.1106,6.0235,5.861,5.7596,5.5834,5.3608,5.279,0.0,0.0,0.0,5.7712,6.0438,6.1048,6.2354,6.4125,6.3806,6.3506,6.3323,6.1964,6.1033,6.0531,5.828,5.5168,5.1116,0.0,0.0,4.9386,4.947,5.1665,5.6159,5.9467,6.0933,6.0782,6.1548,6.1763,6.1372,6.1232,6.0034,5.7993,5.653,5.4497,5.1675,4.9191,4.6569,0.0,0.0,0.0,0.0,0.0,0.0,0.0,0.0,0.0,0.0,0.0,3.1303,3.0904,0.0,0.0,0.0,3.2608,3.2746,3.2835,3.3157,0.0,0.0,0.0,0.0,0.0,0.0,0.0,3.22,3.3576,3.4754,3.5065,3.5877,3.6368,3.6599,3.6218,3.6088,3.6189,0.0,3.5193,3.5122,3.508,3.5383,3.619,3.6024,3.6058,3.6744,3.7725,3.8083,3.7535,3.7434,3.7013,3.5987,3.4932,3.3973,3.3814,3.25,3.1065,3.0606,3.0024,2.9555,2.9317,2.8976,2.8602,7.3792,7.1702,6.6999,6.488,6.4619,6.5199,6.5402,6.5315,6.4735,6.3719,6.2325,6.1164,5.9568,5.7652,5.7158,0.0,0.0,5.9161,6.0758,6.2499,6.3109,6.4328,6.5983,6.5983,6.6012,6.5983,6.5402,6.4822,6.4057,6.1738,5.9851,5.8594,5.5082,5.2911,5.2349,5.4362,5.5937,5.6965,6.0635,6.2065,6.1384,6.1518,6.1538,6.1118,6.1064,6.0322,5.9008,5.7874,5.634,5.4236,5.157,4.8562,4.5191,0.0,0.0,0.0,0.0,0.0,0.0,0.0,0.0,0.0,0.0,0.0,0.0,0.0,0.0,0.0,3.4403,0.0,3.4927,3.4261,0.0,0.0,0.0,3.3161,3.3555,3.3694,3.3963,3.4584,0.0,0.0,3.6182,3.7283,3.7878,3.7613,3.7122,3.6642,3.6266,3.5904,3.5347,3.4448,3.4959,3.5702,3.6457,3.6997,3.7538,3.8254,3.9351,3.9498,3.8527,3.7956,3.753,3.6733,3.5408,3.4501,3.4349,3.3547,3.2774,3.1903,3.1485,3.1022,3.0702,3.0056,2.9551,7.6927,7.5911,7.4227,7.1818,6.9176,6.9292,6.9089,6.8654,6.8479,6.7144,6.4996,6.4706,6.3225,6.0961,6.1338,6.1832,6.247,6.3283,6.4386,6.5722,6.5896,6.6215,6.6651,6.6651,6.6651,6.6651,6.6506,6.623,6.5766,6.3995,6.2523,6.1443,5.9426,5.735,5.544,5.5067,5.6197,5.8474,5.9709,6.0783,6.1518,6.2004,6.1972,6.1118,6.0355,5.9568,5.8401,5.6993,5.5651,5.4236,5.272,5.0428,4.7121,4.514,0.0,0.0,0.0,0.0,0.0,0.0,0.0,0.0,0.0,3.2915,3.2059,0.0,3.4428,0.0,3.578,3.6643,3.6415,3.6367,0.0,0.0,3.5063,3.5355,3.5459,3.5783,3.6363,3.6837,3.7134,3.7352,3.7473,3.831,3.8799,3.8304,3.777,3.724,3.6955,3.6558,3.6259,3.624,3.6676,3.7436,3.822,3.8595,3.897,3.9573,3.949,3.9318,3.8893,3.8331,3.7512,3.6482,3.5532,3.4935,3.4588,3.3715,3.2873,3.2785,3.2287,3.1579,3.1116,3.0739,3.038,7.8698,7.7827,7.7449,7.6085,7.4053,7.2921,7.2224,7.1876,7.1295,7.0076,6.845,6.7609,6.6418,6.5112,6.5199,6.5431,6.5751,6.5809,6.636,6.7318,6.7318,6.7463,6.7754,6.7754,6.7725,6.7725,6.7463,6.7186,6.6729,6.5383,6.4188,6.3037,6.1996,6.0421,5.8453,5.748,5.7641,5.8851,5.9773,6.0674,6.1949,6.1972,6.1312,6.006,5.8902,5.7641,5.6416,5.5127,5.4105,5.3452,5.2462,5.0649,4.7983,4.6371,4.3891,0.0,0.0,0.0,0.0,0.0,0.0,0.0,0.0,0.0,0.0,0.0,3.5994,3.6085,3.7166,3.7833,3.7888,3.7763,3.7697,3.7436,3.7577,3.7666,3.7924,3.8173,3.8586,3.8846,3.8975,3.9028,3.9069,3.943,3.9479,3.8922,3.8594,3.8177,3.7561,3.7214,3.6907,3.7048,3.7538,3.7964,3.8597,3.8974,3.9231,3.8947,3.916,3.8924,3.7892,3.7536,3.7054,3.5975,3.5174,3.4662,3.4449,3.3815,3.3196,3.2703,3.2285,3.1813,3.1423,3.1093,3.0587,7.9743,7.864,7.8553,7.8494,7.8349,7.5998,7.4924,7.4721,7.3501,7.2544,7.1673,6.9873,6.906,6.9031,6.8509,6.8247,6.8189,6.7638,6.7696,6.8247,6.816,6.8421,6.8944,6.8886,6.8828,6.8799,6.8276,6.7718,6.7285,6.625,6.5114,6.4066,6.3576,6.2529,6.1043,6.031,5.9496,5.8838,6.0077,6.1244,6.2166,6.1286,6.0173,5.8582,5.7194,5.5682,5.4131,5.306,5.2433,5.2276,5.1402,5.0168,4.8282,4.704,4.501,0.0,4.0716,0.0,0.0,0.0,0.0,0.0,0.0,0.0,0.0,3.6905,3.7802,3.8466,3.8568,3.8809,3.9508,3.9172,3.9291,4.022,3.9956,3.9959,4.0555,4.0565,4.0524,4.0643,4.0666,4.054,4.0527,4.0515,4.0143,3.9289,3.9387,3.8997,3.8188,3.7548,3.7501,3.7589,3.7809,3.7998,3.8323,3.8683,3.8663,3.8095,3.8368,3.8462,3.674,3.6443,3.639,3.5284,3.4877,3.4493,3.3916,3.3756,3.3408,3.2679,3.211,3.1717,3.1553,3.0946,3.0379,8.0614,7.9888,7.9336,7.9133,7.9046,7.8088,7.7072,7.6056,7.5301,7.4024,7.234,7.0976,7.0337,7.0337,7.025,7.0192,7.0163,7.0047,7.0076,7.0163,6.9641,6.9466,6.9554,6.906,6.8828,6.8828,6.8441,6.7975,6.7644,6.636,6.5443,6.4888,6.4,6.2729,6.1328,0.0,0.0,0.0,6.0348,6.0647,6.0403,5.9857,5.8939,5.7357,5.6372,0.0,5.3583,5.2877,5.2067,5.1178,5.0747,0.0,0.0,0.0,0.0,0.0,0.0,0.0,0.0,0.0,0.0,0.0,4.0655,4.0304,3.8489,3.882,3.9537,4.0472,4.0287,4.0329,4.0962,4.0927,4.1038,4.1234,4.1275,4.1514,4.2371,4.1815,4.1555,4.1991,4.1399,4.0963,4.0914,4.0713,4.0168,3.9547,3.9313,3.8972,3.8305,3.8066,3.8135,3.8203,3.8186,3.8238,3.8306,3.8648,3.868,3.8174,3.7771,3.7452,3.6876,3.5943,3.5514,3.5234,3.5025,3.4508,3.3916,3.3554,3.3058,3.2927,3.1998,3.1448,3.1448,3.0908,3.0311,8.1136,0.0,7.9946,7.9801,0.0,7.9104,7.8291,7.7362,7.6404,7.4895,7.3095,7.2456,7.1963,7.1644,7.1353,7.1179,7.1179,7.086,7.0715,7.0715,7.0395,7.0076,6.9757,6.9437,6.9011,6.8586,6.8421,6.8011,6.7403,6.6565,6.5698,6.4832,6.4107,6.3222,6.1956,6.2201,6.179,6.0728,6.1027,6.1027,6.0755,6.0177,5.8906,5.7091,0.0,0.0,0.0,0.0,0.0,0.0,0.0,0.0,0.0,0.0,0.0,4.6056,4.5134,4.4238,4.3495,4.3322,4.3203,4.3074,4.3499,4.3049,4.0919,4.1261,4.1699,4.2107,4.201,4.201,4.2396,4.2732,4.2811,4.259,4.287,4.3034,4.2973,4.2921,4.2665,4.2402,4.2001,4.1612,4.1118,4.0618,4.0216,3.9536,3.9195,3.8854,3.8323,3.8323,3.8323,3.8323,3.8323,3.8323,3.834,3.8288,3.818,3.7825,3.7434,3.6817,3.6302,3.57,3.5189,3.4847,3.4563,3.4103,3.354,3.296,3.2435,3.2219,3.1699,3.105,3.1076,3.0878,3.0218,8.1455,8.0294,8.0294,8.0294,8.0265,7.9714,7.9104,7.8349,0.0,0.0,0.0,7.385,7.3414,7.2776,7.2253,7.1934,7.1818,7.1295,7.1063,7.1034,7.0947,7.0599,7.0105,6.9873,6.9222,6.8486,6.8205,6.7736,6.7014,6.6595,6.578,6.4744,6.4292,6.3619,6.2872,6.2736,6.2492,6.2085,6.1759,6.1569,6.1461,6.0656,5.9195,5.7064,5.5893,5.4184,5.2014,5.1492,5.0741,4.9689,5.0378,5.0155,4.8987,4.9413,4.9022,4.7473,4.6736,4.6224,4.5797,4.5483,4.5576,4.5989,4.5893,4.5206,4.3377,4.3636,4.374,4.3508,4.3482,4.3468,4.3569,4.3975,4.4205,4.3882,4.4091,4.3998,4.346,4.3455,4.3288,4.2654,4.243,4.203,4.1063,4.0482,3.9876,3.9178,3.8785,3.8579,3.8238,3.8272,3.8323,3.8323,3.8323,3.8323,3.834,3.8082,3.7665,3.7458,3.6902,3.6247,3.5334,3.5164,3.4833,3.4373,3.3931,3.3497,3.3163,3.238,3.1813,3.173,3.1185,3.0754,3.0853,3.0565,2.9857,8.1455,8.0294,8.0294,8.0294,8.0294,8.0207,7.9754,7.8678,7.655,7.5798,7.5975,7.4925,7.4053,7.3472,7.3385,7.3008,7.2485,7.2369,7.234,0.0,7.1789,7.1498,7.1353,7.0002,6.9148,6.9033,6.7826,6.7154,6.6595,6.6059,6.5435,6.4895,6.4464,6.412,6.4012,6.355,6.3496,6.3876,6.2383,6.1379,6.0891,5.969,5.8369,5.7091,5.6261,5.4968,5.3217,5.306,5.2384,5.0913,5.11,5.1096,5.0713,5.0826,5.0498,5.007,4.9392,4.8826,4.8422,4.8384,4.8492,4.8538,4.7827,4.6879,4.5415,4.4727,4.4294,4.4037,4.3722,4.3631,4.4141,4.4256,4.4514,4.4678,4.4562,4.4281,4.4092,4.3864,4.3293,4.251,4.2468,4.1917,4.0694,4.0018,3.9536,3.899,3.8476,3.8047,3.7964,3.8118,3.8306,3.8323,3.8323,3.8323,3.822,3.8268,3.7758,3.6931,3.6384,3.5847,3.5212,3.4441,3.4045,3.4003,3.3511,3.3163,3.2597,3.2408,3.192,3.1534,3.1011,3.0573,3.029,2.9627,2.872,8.1455,8.0352,8.0294,8.0294,8.0265,7.9917,7.9754,7.9472,7.7514,7.6496,7.6444,7.5478,7.4721,7.4169,7.4111,7.3763,7.3153,7.3153,7.295,7.2602,7.2311,7.1992,7.1586,7.0296,6.9412,6.89,6.7744,6.6875,6.6314,6.5775,6.5347,6.4889,6.4455,6.431,6.4283,6.4039,6.4039,6.4283,6.3496,6.279,6.2221,6.1246,6.0128,5.8929,5.792,5.6667,5.5308,5.4942,5.4235,5.2853,5.3104,5.3029,5.2541,5.2182,5.1701,5.0936,5.0355,4.9916,4.9499,4.9559,4.9399,4.9227,4.8403,4.7492,4.6773,4.6041,4.5403,4.4588,4.4858,4.4928,4.4691,4.4968,4.5021,4.4683,4.4421,4.4335,4.4001,4.3711,4.3156,4.2487,4.1936,4.1137,4.0132,3.9582,3.9195,3.8666,3.8322,3.8066,3.8049,3.8203,3.8323,3.8323,3.8323,3.8254,3.8251,3.8073,3.7639,3.6916,3.624,3.5761,3.5129,3.4275,3.3772,3.3873,3.3351,3.2786,3.2421,3.2232,3.173,3.1225,3.0715,3.0253,2.9884,2.8992,2.7718,8.1455,8.0294,8.0294,8.0294,8.0265,7.9743,7.9812,8.0182,7.8561,7.7398,7.6438,7.5882,7.5359,7.4808,7.475,7.4401,7.385,7.3676,7.3327,7.2863,7.2689,7.2369,7.1847,7.0816,6.9847,6.905,6.789,6.696,6.6112,6.5683,6.5314,6.4745,6.4455,6.431,6.431,6.431,6.431,6.431,6.431,6.4039,6.3469,6.2721,6.1779,6.0767,5.9552,5.8418,5.7425,5.6928,5.608,5.486,5.5211,5.4822,5.3836,5.3372,5.2596,5.1585,5.1138,5.0689,5.0086,5.0086,4.9935,4.948,4.8583,4.7904,4.7421,4.6963,4.6244,4.5321,4.5649,4.5828,4.525,4.5406,4.5291,4.4583,4.4498,4.4186,4.3711,4.3214,4.2735,4.2235,4.1378,4.0705,3.9706,3.9195,3.8819,3.8374,3.8272,3.8306,3.822,3.8255,3.8323,3.834,3.8409,3.839,3.8174,3.7849,3.7436,3.7067,3.6113,3.5329,3.4966,3.4276,3.354,3.3351,3.28,3.2232,3.2232,3.2043,3.1447,3.0851,3.0229,2.9721,2.8946,2.8291,2.7052,8.1455,8.0381,8.0294,8.0294,8.0294,8.0207,8.0219,8.0114,7.9463,7.8079,7.6624,7.6521,7.6027,7.5475,7.5417,7.5069,7.4401,7.3879,7.3589,7.3443,7.2892,7.2573,7.2314,7.1137,7.0421,7.0107,6.8678,6.7341,6.6463,6.6001,6.5291,6.451,6.431,6.431,6.431,6.431,6.431,6.431,6.431,6.4012,6.3325,6.2721,6.1992,6.1326,6.0526,5.9777,5.9124,5.9072,5.8239,5.6573,5.6816,5.62,5.4521,5.4131,5.3654,5.2622,5.2014,5.1578,5.0785,5.0653,5.0475,5.0142,4.8963,4.7944,4.7631,4.6826,4.6143,4.5712,4.5649,4.5765,4.5561,4.5246,4.4967,4.4905,4.4494,4.4041,4.3399,4.3068,4.2569,4.121,4.1042,4.0536,3.9366,3.9025,3.8715,3.7981,3.8169,3.8238,3.8015,3.8169,3.8357,3.8409,3.8614,3.8663,3.8292,3.7907,3.7318,3.6584,3.5544,3.4779,3.4276,3.3351,3.2611,3.2786,3.2232,3.1853,3.1853,3.1664,3.1204,3.0303,2.9646,2.9218,2.7545,2.7145,2.6588,8.1455,8.0323,8.0294,8.0294,8.0294,8.0294,8.0236,8.0248,7.954,7.9017,7.8524,7.7507,7.6666,7.6085,7.6085,7.5708,7.5098,7.4837,7.4314,7.3647,7.3327,7.2922,7.2431,7.1137,7.065,7.0648,6.8871,6.7613,6.6899,6.5984,6.5053,6.4364,6.431,6.431,6.4337,6.4663,6.4663,6.4337,6.4636,6.4408,6.3576,6.3058,6.2512,6.2006,6.1248,6.0666,6.0405,6.0065,5.9357,5.8217,5.8079,5.7221,5.568,5.4944,5.43,5.3529,5.2617,5.1852,5.1242,5.0906,5.0479,4.9875,4.8868,4.7949,4.7633,4.6859,4.6135,4.599,4.5948,4.5892,4.5735,4.5271,4.4865,4.4678,4.4205,4.3711,4.3234,4.2902,4.2235,4.121,4.0536,4.0028,3.9195,3.8683,3.8443,3.8118,3.8255,3.8238,3.8118,3.8238,3.8409,3.8666,3.8816,3.851,3.8224,3.7876,3.7344,3.6467,3.5323,3.4478,3.3916,3.3163,3.2421,3.2421,3.2043,3.1664,3.1677,3.1297,3.0851,2.9899,2.9016,2.8399,2.6881,2.677,2.616,8.1455,8.0381,8.0294,8.0294,8.0294,8.0294,8.0294,8.0236,7.9772,7.9783,7.9822,7.8407,7.7478,7.6753,7.655,7.6201,7.5795,7.5592,7.4924,7.3908,7.356,7.3067,7.2432,7.1251,7.0819,7.0817,6.9202,6.7875,6.7211,6.6045,6.5233,6.4853,6.4798,6.4798,6.4826,6.5124,6.4988,6.4609,6.4679,6.4451,6.3633,6.3138,6.2842,6.2545,6.173,6.1346,6.1346,6.078,6.0172,5.9276,5.8828,5.7825,5.6486,5.5409,5.4476,5.3715,5.2764,5.1967,5.1424,5.1084,5.0565,4.9646,4.8873,4.835,4.7698,4.7098,4.6633,4.6326,4.6347,4.6165,4.5861,4.5372,4.5046,4.4554,4.4205,4.3711,4.3068,4.2569,4.1714,4.0873,4.0028,3.9366,3.8854,3.8512,3.8306,3.8306,3.8306,3.8323,3.8323,3.8323,3.8426,3.8561,3.8443,3.8424,3.8184,3.7792,3.7201,3.6236,3.5226,3.4103,3.3728,3.2786,3.2232,3.2043,3.1853,3.1664,3.146,3.108,3.0518,2.9608,2.8704,2.7876,2.6731,2.6622,2.5836,8.1455,8.0381,8.0294,8.0294,8.0294,8.0294,8.0294,8.0294,8.0236,7.9859,7.9307,7.9162,7.8524,7.7362,7.6811,7.6462,7.6317,7.5795,7.5185,7.4313,7.35,7.2951,7.249,7.139,7.0922,7.0951,6.957,6.8311,6.7066,6.6372,6.6074,6.602,6.5938,6.5992,6.5911,6.5504,6.5205,6.5151,6.4478,6.366,6.3165,6.2895,6.2624,6.2571,6.2246,6.1894,6.1894,6.1568,6.0857,5.9865,5.9085,5.7946,5.6253,5.5303,5.4077,5.2674,5.2331,5.1988,5.1138,5.0954,5.0594,4.9737,4.9632,4.9081,4.8029,4.7596,4.7313,4.6409,4.643,4.6389,4.6226,4.5902,4.5393,4.4882,4.4534,4.3711,4.2569,4.2049,4.1192,4.0028,3.9366,3.8854,3.8512,3.8323,3.8323,3.8323,3.8323,3.8323,3.8323,3.8323,3.8186,3.7855,3.7958,3.8168,3.8334,3.7504,3.6806,3.5786,3.4478,3.3365,3.2988,3.2421,3.2043,3.1867,3.1677,3.146,3.1054,3.0479,2.9819,2.9055,2.8359,2.7378,2.6685,2.6587,2.5994,8.1455,8.0323,8.0294,8.0294,8.0294,8.0294,8.0294,8.0294,8.0294,8.0149,7.983,7.9481,7.9046,7.8553,7.7537,7.684,7.6462,7.623,7.5617,7.486,7.4452,7.3461,7.1949,7.1574,7.1079,7.0464,6.952,6.8353,6.7202,6.6779,6.6481,6.6182,6.6128,6.6128,6.6155,6.6291,6.6182,6.5802,6.5113,6.4519,6.3697,6.3249,6.2817,6.2299,6.2123,6.1973,6.1973,6.1646,6.0938,6.0125,5.9207,5.8179,5.6734,5.531,5.4026,5.289,5.2563,5.2101,5.1485,5.1136,5.0753,5.0152,4.9751,4.9588,4.8961,4.8513,4.8042,4.7689,4.709,4.6803,4.6556,4.6045,4.5372,4.4698,4.4205,4.3546,4.255,4.1714,4.0873,3.9858,3.9007,3.8494,3.8323,3.8323,3.8323,3.8323,3.8323,3.8323,3.8323,3.8323,3.822,3.7989,3.7705,3.7631,3.7627,3.6682,3.5786,3.504,3.3916,3.3163,3.2611,3.2232,3.1853,3.1677,3.1677,3.1447,3.0838,3.0013,2.9281,2.8531,2.7811,2.7227,2.6731,2.6633,2.5836,8.1252,8.0381,8.0294,8.0294,8.0294,8.0294,8.0294,8.0294,8.0294,8.0294,8.0207,7.9801,7.9511,7.9191,7.8378,7.7529,7.692,7.6515,7.5814,7.4908,7.4579,7.367,7.2359,7.1926,7.1578,7.0875,6.9881,6.871,6.7746,6.7376,6.7078,6.6725,6.6698,6.6698,6.6752,6.6915,6.6779,6.6303,6.5759,6.4958,6.431,6.3495,6.2955,6.2287,6.1927,6.1823,6.1823,6.1193,6.0737,5.9971,5.8862,5.7607,5.6174,5.4905,5.376,5.2935,5.2581,5.2138,5.1829,5.1454,5.1092,5.0633,5.0392,5.0249,4.9782,4.9331,4.8857,4.8336,4.7961,4.7402,4.7196,4.6496,4.5697,4.4798,4.4205,4.3546,4.2569,4.1378,4.0349,3.9348,3.8666,3.8323,3.8323,3.8323,3.8323,3.8323,3.8323,3.8323,3.8323,3.834,3.8048,3.7815,3.7221,3.6706,3.6318,3.5348,3.5122,3.4435,3.354,3.2786,3.2232,3.1853,3.1664,3.1677,3.146,3.1231,3.0622,2.9645,2.8925,2.8351,2.7805,2.7146,2.6743,2.6477,2.5869,8.0875,8.0323,8.0294,8.0294,8.0294,8.0294,8.0294,8.0294,8.0294,8.0294,8.0265,8.0236,7.9888,7.9423,7.9191,7.8561,7.7558,7.655,7.5534,7.496,7.4241,7.3709,7.3132,7.2603,7.2131,7.1866,7.0575,6.9505,6.8597,6.8136,6.7838,6.7838,6.7729,6.7675,6.7838,6.7322,6.7051,6.6764,6.5726,6.495,6.4691,6.3633,6.2862,6.2579,6.1984,6.1396,6.137,6.0584,5.9946,5.9353,5.7922,5.6174,5.4905,5.4111,5.3453,5.2603,5.2437,5.227,5.1769,5.1747,5.1529,5.1201,5.1485,5.1144,5.0249,5.0192,4.9903,4.8941,4.8441,4.8212,4.7693,4.711,4.6264,4.5227,4.4449,4.3789,4.2402,4.121,3.9858,3.8717,3.8392,3.8357,3.8357,3.846,3.8494,3.8494,3.8426,3.8409,3.8409,3.8375,3.7825,3.7202,3.6691,3.609,3.5046,3.3993,3.4129,3.4017,3.3135,3.2232,3.2232,3.1853,3.1664,3.1677,3.1284,3.0864,3.0203,2.9214,2.8723,2.8174,2.7676,2.731,2.6869,2.6433,2.5913,8.1252,8.0323,8.0294,8.0294,8.0294,8.0294,8.0294,8.0294,8.0294,8.0294,8.0294,8.0294,8.0178,7.9917,7.9226,7.8752,7.8336,7.6906,7.5881,7.5284,7.4675,7.4112,7.376,7.3058,7.2274,7.1422,7.0892,6.9917,6.897,6.8597,6.8326,6.7973,6.7919,6.7892,6.7892,6.7702,6.7468,6.7107,6.6109,6.5356,6.4995,6.4006,6.3074,6.2377,6.2017,6.1453,6.015,5.9792,5.9483,5.9018,5.7765,5.6013,5.4416,5.3596,5.2935,5.2125,5.1958,5.1958,5.1813,5.1813,5.1747,5.1616,5.1725,5.1682,5.1253,5.0941,5.0628,4.9743,4.9196,4.8672,4.8127,4.7376,4.6487,4.5217,4.4307,4.3356,4.1994,4.0741,3.966,3.8856,3.8734,3.8734,3.8785,3.8888,3.9042,3.9025,3.8871,3.8734,3.87,3.8184,3.7636,3.6979,3.6371,3.5732,3.491,3.408,3.3644,3.3455,3.2772,3.2043,3.2043,3.1853,3.1677,3.1487,3.1093,3.0483,2.9633,2.8999,2.8545,2.8176,2.7807,2.7459,2.7122,2.6387,2.5636,8.1455,8.0323,8.0294,8.0294,8.0294,8.0294,8.0294,8.0294,8.0294,8.0294,8.0294,8.0294,8.0294,8.0049,7.9358,7.8897,7.8653,7.7446,7.6459,7.6035,7.5284,7.476,7.4036,7.3689,7.2874,7.175,7.1346,7.0575,6.9466,6.9221,6.8814,6.8326,6.8217,6.8109,6.7919,6.7892,6.7738,6.7222,6.6383,6.5732,6.5368,6.4455,6.3674,6.2819,6.2251,6.1249,5.9809,5.9142,5.855,5.808,5.6813,5.5206,5.3596,5.3101,5.2603,5.1958,5.1813,5.1813,5.1813,5.1813,5.1813,5.1813,5.1813,5.1791,5.1623,5.1287,5.0907,5.0336,4.9808,4.9132,4.8583,4.7739,4.6675,4.5391,4.4499,4.3121,4.1689,4.0475,3.9721,3.9251,3.9111,3.9111,3.9179,3.9282,3.947,3.9419,3.9265,3.8953,3.8902,3.8399,3.7741,3.72,3.645,3.5887,3.5364,3.4367,3.3168,3.2905,3.2408,3.2043,3.1867,3.1853,3.1677,3.1107,3.0713,3.014,2.9313,2.8943,2.8536,2.8224,2.8043,2.743,2.701,2.6249,2.569,8.1484,8.041,8.0294,8.0294,8.0294,8.0294,8.0294,8.0294,8.0294,8.0294,8.0294,8.0294,8.0294,8.0136,7.9704,7.9226,7.8877,7.7912,7.7146,7.6816,7.6205,7.5351,7.4362,7.4214,7.3563,7.2802,7.2202,7.1426,7.0361,6.9954,6.9439,6.8896,6.8814,6.857,6.8245,6.8028,6.7874,6.7255,6.6548,6.6156,6.5766,6.4953,6.4143,6.3725,6.2353,6.1194,6.0154,5.8472,5.7363,5.6678,5.5368,5.4252,5.3243,5.2581,5.227,5.1791,5.1813,5.1813,5.1813,5.1813,5.1813,5.1813,5.1813,5.1813,5.1813,5.1265,5.0907,5.04,4.987,4.953,4.8997,4.8118,4.7035,4.5856,4.4491,4.2888,4.1226,4.0491,3.993,3.963,3.9505,3.9505,3.9505,3.9556,3.9625,3.9607,3.9573,3.9328,3.894,3.8518,3.818,3.7322,3.6411,3.5878,3.5365,3.41,3.3079,3.31,3.2558,3.1947,3.1704,3.1677,3.1284,3.0713,3.0331,2.9758,2.9196,2.8812,2.862,2.8428,2.8043,2.7453,2.6874,2.6294,2.5712,8.1717,8.0933,8.0497,8.0294,8.0294,8.0294,8.0294,8.0294,8.0294,8.0294,8.0294,8.0294,8.0294,8.0136,7.9501,7.902,7.8774,7.8014,7.7604,7.7441,7.6974,7.6275,7.5519,7.5135,7.448,7.3445,7.2821,7.1929,7.0632,7.047,7.0063,6.9493,6.9466,6.9384,6.9194,6.8814,6.8314,6.7528,6.6552,6.5923,6.5477,6.4717,6.3906,6.3355,6.2084,6.0939,5.9959,5.7862,5.6253,5.5091,5.4742,5.376,5.2747,5.2415,5.227,5.1791,5.1813,5.1813,5.1813,5.1834,5.1834,5.1813,5.1856,5.1813,5.1791,5.1244,5.0886,5.04,4.9912,4.9401,4.8716,4.8047,4.6927,4.5201,4.3584,4.2069,4.1372,4.0526,4.0086,3.9991,3.9881,3.9881,3.9933,4.007,4.0207,4.019,4.0036,3.9703,3.9312,3.8624,3.8217,3.7305,3.6616,3.6079,3.5348,3.4059,3.3177,3.3267,3.2736,3.2095,3.162,3.1323,3.0916,3.0319,2.9949,2.9375,2.9004,2.862,2.862,2.862,2.7839,2.726,2.6874,2.6294,2.5712,8.2065,8.1165,8.0817,8.0527,8.0323,8.0294,8.0294,8.0294,8.0294,8.0294,8.0294,8.0294,8.0136,7.9978,7.9341,7.8859,7.8698,7.7858,7.7338,7.7338,7.6816,7.6315,7.5811,7.5425,7.474,7.3891,7.3292,7.2476,7.1581,7.1121,7.0632,7.0198,7.009,6.9981,6.9656,6.952,6.8832,6.7853,6.7084,6.6345,6.5737,6.4972,6.4183,6.3447,6.2139,6.08,5.9073,5.7478,5.6092,5.5135,5.439,5.3431,5.2769,5.227,5.2103,5.1813,5.1966,5.2097,5.214,5.2249,5.2293,5.214,5.2097,5.1966,5.1688,5.1076,5.0548,5.04,4.9912,4.923,4.8372,4.7508,4.6114,4.4454,4.2687,4.1639,4.1693,4.0803,4.0411,4.0207,4.0258,4.0258,4.0275,4.0464,4.0549,4.0532,4.0378,4.0112,3.9519,3.8958,3.8104,3.7414,3.6719,3.6174,3.5344,3.419,3.3331,3.342,3.3092,3.2225,3.1832,3.1495,3.0829,3.0434,2.9808,2.9208,2.9065,2.8681,2.862,2.8428,2.7646,2.7067,2.6874,2.6294,2.5906,8.2559,8.1397,8.1252,8.0875,8.0439,8.0323,8.0294,8.0294,8.0294,8.0294,8.0294,8.0294,8.0136,7.9632,7.9181,7.8859,7.8403,7.753,7.7009,7.6678,7.6512,7.6041,7.5462,7.5241,7.4746,7.4006,7.3431,7.2804,7.2315,7.1745,7.1257,7.0822,7.0687,7.0443,7.0198,6.9958,6.9373,6.8493,6.7772,6.6974,6.6255,6.5615,6.4922,6.3752,6.2245,6.0531,5.8663,5.7218,5.6318,5.5878,5.4169,5.3325,5.3091,5.2235,5.1878,5.1944,5.2249,5.2533,5.2555,5.2817,5.2992,5.2643,5.2533,5.2337,5.1863,5.1079,5.0507,5.04,4.9572,4.8887,4.8027,4.6638,4.5236,4.38,4.2694,4.2012,4.1849,4.1127,4.0583,4.0583,4.0566,4.0583,4.0583,4.0583,4.0583,4.0583,4.0498,4.03,3.992,3.9456,3.8696,3.7847,3.6975,3.6112,3.5226,3.4334,3.3675,3.3395,3.3184,3.2639,3.2191,3.1825,3.1063,3.06,3.0085,2.9673,2.9237,2.8995,2.8753,2.8512,2.7991,2.7523,2.7067,2.6487,2.5906,8.3458,8.2675,8.1659,8.1107,8.0933,8.0497,8.0294,8.0294,8.0294,8.0294,8.0294,8.0294,7.9978,7.9632,7.9152,7.8726,7.824,7.7366,7.6678,7.6011,7.5871,7.5649,7.5317,7.5207,7.5101,7.4497,7.4195,7.3457,7.2586,7.2288,7.1881,7.1392,7.1365,7.1229,7.1121,7.0852,7.0502,6.932,6.8543,6.7604,6.6503,6.5934,6.5199,6.3977,6.2194,6.0364,5.8851,5.7414,5.6482,5.5745,5.4874,5.394,5.2976,5.2813,5.2533,5.2228,5.2621,5.2905,5.2686,5.2992,5.3189,5.3101,5.2799,5.2603,5.2402,5.1423,5.0719,5.0337,4.9572,4.8544,4.7334,4.5958,4.4706,4.3463,4.2568,4.1849,4.1506,4.0946,4.0583,4.0583,4.0583,4.0583,4.0583,4.0583,4.0583,4.0583,4.0583,4.0402,4.0055,3.9873,3.9142,3.8224,3.7285,3.6359,3.5503,3.4508,3.3737,3.345,3.3219,3.3026,3.2576,3.2403,3.1659,3.1218,3.0632,3.0178,2.9652,2.9335,2.9127,2.8824,2.8327,2.7891,2.725,2.6599,2.6004,8.4184,8.3487,8.221,8.1484,8.1136,8.0556,8.0294,8.0294,8.0294,8.0294,8.0294,8.0294,7.9978,7.9312,7.902,7.8536,7.7694,7.6871,7.6011,7.5508,7.5339,7.5198,7.5198,7.517,7.5149,7.4849,7.4436,7.3753,7.3292,7.2912,7.2668,7.2369,7.2315,7.1989,7.1609,7.1555,7.0743,6.9444,6.8497,6.7715,6.6909,6.6029,6.4655,6.3323,6.1617,6.0056,5.8851,5.7907,5.6941,5.6196,5.5581,5.4595,5.3483,5.3229,5.2927,5.273,5.3101,5.3429,5.332,5.356,5.3822,5.356,5.3321,5.2908,5.2516,5.1595,5.0847,5.0358,4.9551,4.8372,4.6813,4.5607,4.4352,4.3106,4.2389,4.1669,4.1145,4.0765,4.0583,4.0583,4.0583,4.0583,4.0583,4.0601,4.0583,4.0583,4.0583,4.0402,4.0402,4.0038,3.9308,3.8391,3.747,3.6575,3.572,3.4682,3.3823,3.3347,3.3264,3.32,3.3133,3.2802,3.2472,3.1775,3.1056,3.0562,3.0082,2.9775,2.9429,2.9087,2.8772,2.8113,2.749,2.6901,2.6518,8.4707,8.401,8.282,8.1949,8.131,8.073,8.0381,8.0294,8.0294,8.0294,8.0294,8.0294,7.966,7.9181,7.8859,7.8184,7.7009,7.6179,7.5508,7.517,7.5028,7.5028,7.5028,7.5001,7.5001,7.4947,7.4594,7.4269,7.3997,7.3699,7.3319,7.3265,7.3072,7.2582,7.1928,7.135,7.0831,6.9855,6.8643,6.7712,6.7209,6.6264,6.4626,6.2345,6.1035,6.0054,5.8959,5.825,5.7412,5.6349,5.6129,5.5441,5.4494,5.3796,5.3298,5.3276,5.3691,5.3888,5.3888,5.4215,5.439,5.4062,5.4041,5.3647,5.2842,5.181,5.121,5.0357,4.9484,4.8067,4.6523,4.5565,4.4182,4.2784,4.2242,4.1664,4.092,4.0738,4.0789,4.0601,4.0686,4.0755,4.0703,4.0669,4.0635,4.0601,4.0583,4.0583,4.0402,4.022,3.9491,3.8742,3.7823,3.6276,3.5279,3.4812,3.3754,3.3368,3.328,3.332,3.3374,3.3067,3.2696,3.2129,3.1604,3.0973,3.0392,3.0081,2.9658,2.9526,2.9045,2.8393,2.7798,2.7412,2.6805,8.4707,8.4039,8.3313,8.2646,8.1978,8.131,8.0701,8.0352,8.0294,8.0294,8.0294,7.9978,7.9501,7.902,7.8565,7.7722,7.6539,7.5844,7.5339,7.5028,7.5028,7.5028,7.5028,7.5028,7.5028,7.5001,7.4838,7.4621,7.4296,7.4051,7.3834,7.3455,7.3068,7.26,7.2105,7.1247,7.091,7.0388,6.9187,6.8271,6.7527,6.6463,6.4827,6.2329,6.1004,6.0017,5.8962,5.8116,5.738,5.6776,5.6236,5.5705,5.518,5.4587,5.4084,5.3735,5.4106,5.4412,5.4237,5.439,5.4587,5.4565,5.4499,5.4259,5.3539,5.2433,5.1507,5.0565,4.9197,4.7708,4.6973,4.5948,4.4684,4.3577,4.2732,4.2347,4.1591,4.1186,4.12,4.084,4.0909,4.096,4.0875,4.0789,4.0755,4.0669,4.0583,4.0583,4.0583,4.0402,4.0038,3.9109,3.8175,3.6367,3.4674,3.4375,3.3851,3.3503,3.336,3.336,3.34,3.34,3.3094,3.2324,3.1726,3.1377,3.0801,3.0387,3.0113,2.9779,2.9331,2.8673,2.8049,2.7626,2.6948,8.491,8.4474,8.3226,8.25,8.2065,8.1136,8.0585,8.0323,8.0294,8.0294,8.0136,7.9791,7.9312,7.8859,7.8374,7.7366,7.6206,7.5535,7.517,7.5028,7.5028,7.5028,7.5028,7.5028,7.5028,7.5028,7.5001,7.4893,7.4621,7.4621,7.4404,7.4128,7.3683,7.3211,7.2801,7.2266,7.1176,7.0703,6.9411,6.8417,6.7517,6.6415,6.4166,6.2268,6.0962,6.0014,5.9087,5.8255,5.7603,5.6884,5.6637,5.6144,5.5766,5.5504,5.5089,5.4565,5.474,5.4958,5.4652,5.474,5.463,5.4652,5.4475,5.4059,5.3515,5.2427,5.1604,5.068,4.9641,4.8113,4.7246,4.6351,4.5018,4.37,4.3253,4.2679,4.1883,4.1714,4.1508,4.1234,4.1354,4.1337,4.1029,4.096,4.0909,4.0789,4.0618,4.0583,4.0601,4.0402,4.022,3.8808,3.7734,3.6239,3.4568,3.4365,3.4031,3.3652,3.348,3.348,3.3293,3.3333,3.2865,3.2145,3.1806,3.1668,3.0987,3.0509,3.0271,3.0045,2.9391,2.8929,2.8278,2.7818,2.7146,8.4707,8.4562,8.2907,8.2123,8.1833,8.0933,8.041,8.0323,8.0294,8.0294,8.0294,7.9632,7.9152,7.867,7.7666,7.6678,7.5676,7.5198,7.5028,7.5028,7.5028,7.5028,7.5028,7.5028,7.5028,7.5028,7.5028,7.5028,7.4947,7.4947,7.5001,7.4723,7.4491,7.3844,7.3075,7.2587,7.1581,7.0455,6.89,6.8146,6.6785,6.4918,6.2979,6.1248,6.0636,5.9885,5.9001,5.8411,5.7708,5.7304,5.683,5.6742,5.629,5.6334,5.6116,5.5657,5.546,5.5395,5.5242,5.4893,5.4652,5.4652,5.4298,5.3883,5.3292,5.2549,5.1391,5.0529,4.9501,4.8653,4.7656,4.6791,4.5408,4.4059,4.3572,4.3199,4.2467,4.2125,4.2193,4.2022,4.1953,4.1645,4.1286,4.1388,4.1388,4.0875,4.0703,4.0669,4.0652,4.0583,4.0055,3.8505,3.7165,3.5777,3.476,3.4449,3.4014,3.3695,3.3641,3.3668,3.3479,3.3303,3.2631,3.22,3.1959,3.1591,3.1111,3.0619,3.0368,2.9939,2.9581,2.9151,2.8449,2.7817,2.7196,8.34,8.3342,8.253,8.1862,8.1339,8.1107,8.0759,8.0323,8.0294,8.0294,8.0294,7.9501,7.8831,7.7993,7.6678,7.6011,7.5508,7.517,7.5028,7.5028,7.5028,7.5028,7.5028,7.5028,7.5028,7.5028,7.5028,7.5028,7.5028,7.5028,7.5028,7.4859,7.4176,7.3608,7.3329,7.2263,7.1589,7.0957,6.9307,6.7398,6.5475,6.3706,6.2485,6.1341,6.0273,5.9521,5.9019,5.8469,5.785,5.748,5.7295,5.7121,5.688,5.7142,5.6793,5.6203,5.5679,5.5373,5.5308,5.4936,5.4652,5.4652,5.4475,5.4255,5.355,5.2563,5.1339,5.0466,4.9603,4.8713,4.8086,4.7251,4.5946,4.493,4.4388,4.3817,4.3018,4.2792,4.2827,4.2673,4.257,4.1971,4.1474,4.1714,4.1851,4.1251,4.0806,4.0806,4.0623,4.0458,3.9925,3.8409,3.6834,3.5588,3.4682,3.4339,3.4152,3.3869,3.3774,3.3828,3.3514,3.335,3.2942,3.2494,3.2022,3.1488,3.0766,3.0489,3.0238,3.0011,2.9401,2.8994,2.8575,2.7974,2.7155,8.2617,8.2559,8.1891,8.1455,8.1165,8.0846,8.0556,8.0323,8.0294,8.0294,8.0136,7.9341,7.8346,7.7201,7.6039,7.5508,7.5339,7.5028,7.5028,7.5028,7.5028,7.5028,7.5028,7.5028,7.5028,7.5028,7.5028,7.5028,7.5028,7.5028,7.4859,7.4545,7.4032,7.3316,7.2995,7.1894,7.1011,7.0069,6.8296,6.6373,6.4372,6.319,6.2015,6.0886,5.9931,5.9383,5.8831,5.8278,5.7722,5.7536,5.7514,5.7448,5.7295,5.7361,5.7186,5.6574,5.6072,5.5701,5.5395,5.4936,5.4718,5.4652,5.4475,5.3922,5.3166,5.2324,5.1598,5.0874,5.0134,4.931,4.839,4.7698,4.6389,4.5507,4.5044,4.45,4.3901,4.3792,4.3563,4.3358,4.3118,4.2553,4.209,4.2176,4.2176,4.1577,4.1286,4.1135,4.0579,4.0038,3.9324,3.8245,3.6822,3.541,3.4852,3.4507,3.4262,3.4084,3.3868,3.3758,3.356,3.3214,3.2814,3.2287,3.152,3.0986,3.0443,3.031,3.0226,2.9808,2.9401,2.8994,2.8382,2.7565,2.6745,8.2094,8.1891,8.1252,8.0962,8.0933,8.0468,8.0294,8.0294,8.0294,8.0294,7.9819,7.8992,7.7694,7.6539,7.5871,7.5367,7.5028,7.5028,7.5028,7.5028,7.5028,7.5028,7.5028,7.5028,7.5028,7.5028,7.5028,7.5028,7.5028,7.5028,7.4859,7.4401,7.4032,7.3169,7.2472,7.1568,7.0681,6.9039,6.7556,6.5622,6.401,6.3151,6.2017,6.0731,5.9634,5.9016,5.8831,5.8093,5.7536,5.7536,5.7514,5.7492,5.747,5.747,5.7164,5.6684,5.6269,5.5985,5.546,5.498,5.4718,5.4475,5.4121,5.3409,5.2851,5.2152,5.161,5.1125,5.0418,4.938,4.8486,4.7987,4.6814,4.5904,4.5434,4.4742,4.4239,4.4274,4.3991,4.3717,4.3495,4.3358,4.2981,4.2827,4.2484,4.1885,4.1544,4.1629,4.0674,3.9747,3.8989,3.8052,3.6949,3.5715,3.497,3.4617,3.4323,3.4179,3.4165,3.401,3.3888,3.333,3.2913,3.2124,3.1304,3.0927,3.0612,3.0407,3.0214,2.9604,2.9197,2.879,2.8178,2.7371,2.6397,8.1833,8.1223,8.0643,8.041,8.0381,8.0323,8.0294,8.0294,8.0294,7.9949,7.9443,7.7993,7.7036,7.6206,7.5535,7.5028,7.5028,7.5028,7.5028,7.5028,7.5028,7.5028,7.5028,7.5028,7.5028,7.5028,7.5028,7.5028,7.5028,7.4859,7.4716,7.4401,7.386,7.3169,7.2122,7.1037,6.9966,6.8312,6.6867,6.5675,6.434,6.3176,6.2134,6.1051,5.9837,5.9016,5.9016,5.8093,5.7514,5.7514,5.7514,5.7514,5.7514,5.7426,5.7033,5.6487,5.6465,5.6094,5.5504,5.5024,5.474,5.4497,5.3943,5.323,5.2872,5.2152,5.161,5.1066,5.0154,4.9433,4.8511,4.7837,4.69,4.6089,4.5575,4.5322,4.4799,4.4453,4.4334,4.406,4.3871,4.3734,4.3419,4.3198,4.2925,4.2362,4.1689,4.1773,4.0519,3.9532,3.8764,3.8025,3.6893,3.5869,3.5153,3.4806,3.461,3.4503,3.4349,3.424,3.4137,3.3505,3.2759,3.2239,3.1425,3.1206,3.0781,3.0406,3.0034,2.946,2.9005,2.8484,2.7513,2.672,2.5538,8.2181,8.1194,8.0933,8.0643,8.0294,8.0294,8.0294,8.0294,8.0294,7.9762,7.8877,7.7638,7.6705,7.6234,7.5535,7.5028,7.5028,7.5028,7.5028,7.5028,7.5028,7.5028,7.5028,7.5028,7.5028,7.5028,7.5028,7.5028,7.5028,7.4859,7.4347,7.4032,7.3515,7.2446,7.1391,7.0145,6.8883,6.7947,6.6448,6.5116,6.4295,6.3316,6.2222,6.116,6.0104,5.9323,5.8884,5.8039,5.7579,5.7514,5.7514,5.7514,5.747,5.7295,5.6837,5.6269,5.6422,5.6116,5.5635,5.5198,5.4824,5.4142,5.3587,5.3093,5.2935,5.1993,5.1248,5.0519,4.9847,4.8974,4.8308,4.7855,4.7213,4.6448,4.5928,4.569,4.5214,4.4882,4.4762,4.4505,4.4316,4.3982,4.3648,4.3315,4.3011,4.2707,4.2285,4.1618,4.0562,3.9431,3.8909,3.8127,3.6992,3.6133,3.5403,3.5166,3.4898,3.4582,3.4267,3.4085,3.3883,3.326,3.2524,3.2238,3.1717,3.1276,3.085,3.0451,3.0066,2.9489,2.8643,2.7862,2.7076,2.6067,2.5091,8.2355,8.1484,8.1078,8.0701,8.0323,8.0294,8.0294,8.0294,8.0294,7.9733,7.8499,7.7446,7.6705,7.6234,7.5367,7.5028,7.5028,7.5028,7.5028,7.5028,7.5028,7.5028,7.5028,7.5028,7.5028,7.5028,7.5028,7.5028,7.5028,7.4545,7.4203,7.3688,7.2969,7.192,7.0859,6.9064,6.7971,6.7396,6.6076,6.486,6.4297,6.3338,6.2447,6.1427,6.06,5.968,5.8964,5.8325,5.771,5.7601,5.7514,5.7514,5.7405,5.7186,5.6793,5.6531,5.6378,5.6269,5.5919,5.546,5.515,5.4504,5.3694,5.3242,5.2806,5.1899,5.1128,5.0415,4.9551,4.8814,4.8026,4.7809,4.7552,4.6825,4.6676,4.6434,4.5749,4.5412,4.519,4.4967,4.4595,4.4225,4.3774,4.344,4.2708,4.2426,4.2064,4.144,4.0751,3.9897,3.8998,3.8184,3.7153,3.6305,3.5675,3.513,3.4801,3.4329,3.398,3.3716,3.3235,3.286,3.2447,3.1935,3.1614,3.1493,3.0915,3.0294,2.9909,2.9308,2.8279,2.7059,2.62,2.519,2.4663,8.2239,8.2007,8.0875,8.0352,8.0294,8.0294,8.0294,8.0294,8.0136,7.9574,7.8338,7.7146,7.6567,7.6234,7.5535,7.5198,7.5028,7.5028,7.5028,7.5028,7.5028,7.5028,7.5028,7.5028,7.5028,7.5028,7.5028,7.5028,7.5028,7.4545,7.4032,7.3316,7.2271,7.1214,7.0681,6.8858,6.7764,6.7027,6.5751,6.5141,6.4648,6.3592,6.2631,6.1714,6.093,6.0149,5.9019,5.8423,5.7929,5.7601,5.7536,5.7514,5.7492,5.7383,5.7099,5.6771,5.7099,5.7099,5.6749,5.5919,5.534,5.5021,5.4006,5.3581,5.3316,5.2559,5.135,5.0444,4.9746,4.8843,4.8169,4.7637,4.7382,4.7254,4.7084,4.6856,4.6146,4.5806,4.5584,4.5395,4.4836,4.4295,4.3873,4.3368,4.2416,4.1923,4.168,4.12,4.0801,4.0093,3.9363,3.8433,3.736,3.6675,3.5981,3.5031,3.4501,3.3993,3.3716,3.3273,3.2923,3.2747,3.2307,3.1831,3.1533,3.1225,3.0681,3.0141,2.927,2.842,2.7113,2.6023,2.5358,2.4585,2.4112,8.2588,8.2123,8.1252,8.0672,8.0323,8.0294,8.0294,8.0136,7.966,7.8906,7.7986,7.7118,7.6539,7.6206,7.5871,7.5367,7.5028,7.5028,7.5028,7.5028,7.5028,7.5028,7.5028,7.5028,7.5028,7.5028,7.5028,7.5028,7.5001,7.4374,7.3661,7.2969,7.1189,6.9966,6.9245,6.8154,6.7396,6.7027,6.5938,6.5024,6.4812,6.3894,6.283,6.2066,6.1189,6.0317,5.9072,5.8453,5.8038,5.7601,5.7514,5.7514,5.7448,5.7361,5.7033,5.6837,5.7055,5.7142,5.7055,5.6684,5.5882,5.5162,5.4379,5.3865,5.3486,5.2497,5.1463,5.0714,4.9548,4.8803,4.8256,4.7571,4.7221,4.7214,4.7094,4.6659,4.6166,4.6029,4.596,4.5584,4.5209,4.429,4.3641,4.3387,4.27,4.2115,4.1906,4.1464,4.0809,4.0372,3.9662,3.8617,3.7709,3.6796,3.6079,3.5106,3.4636,3.4372,3.3625,3.311,3.292,3.2491,3.2203,3.1964,3.1451,3.1166,3.0331,2.9538,2.8401,2.7289,2.6363,2.5605,2.5231,2.4456,2.3708,8.2442,8.1804,8.1136,8.0672,8.0323,8.0294,8.0323,8.0065,7.937,7.8556,7.7795,7.7254,7.6705,7.6373,7.5871,7.5535,7.5028,7.5028,7.5028,7.5028,7.5028,7.5028,7.5028,7.5028,7.5028,7.5028,7.5028,7.5028,7.4689,7.4032,7.2969,7.1718,7.012,6.9039,6.8154,6.758,6.7027,6.6658,6.5751,6.5024,6.4647,6.4033,6.2912,6.2201,6.1266,6.0562,5.9358,5.8519,5.8038,5.7688,5.7514,5.7514,5.7405,5.7273,5.7033,5.7055,5.7077,5.7252,5.7295,5.7273,5.6327,5.5394,5.4847,5.4251,5.3489,5.2592,5.1738,5.0771,4.9685,4.8856,4.8248,4.7362,4.7203,4.7208,4.6775,4.6524,4.6407,4.6269,4.5995,4.5652,4.5277,4.4251,4.3539,4.3316,4.2788,4.2453,4.2103,4.166,4.125,4.0837,4.0294,3.8989,3.8059,3.7136,3.6161,3.494,3.4489,3.451,3.374,3.2927,3.276,3.2543,3.2205,3.1905,3.1497,3.1111,2.9907,2.8899,2.7808,2.6683,2.5903,2.5433,2.5076,2.4448,2.3602,8.1775,8.1136,8.0556,8.0323,8.0294,8.0294,8.0281,8.0137,7.9267,7.8423,7.7739,7.7282,7.6871,7.6373,7.6039,7.5535,7.5198,7.5028,7.5028,7.5028,7.5028,7.5028,7.5028,7.5028,7.5028,7.5028,7.5028,7.4859,7.4374,7.3515,7.2245,7.0452,6.922,6.8312,6.758,6.7212,6.6843,6.631,6.5564,6.5024,6.4624,6.4079,6.2844,6.2111,6.139,6.0327,5.9292,5.8453,5.8016,5.771,5.7514,5.7514,5.7514,5.7514,5.7514,5.7514,5.747,5.7492,5.7492,5.7426,5.6868,5.5863,5.5187,5.4798,5.4027,5.308,5.1988,5.1071,5.001,4.9001,4.8042,4.778,4.7325,4.7208,4.6775,4.6646,4.6596,4.6286,4.5892,4.5448,4.4836,4.4273,4.3845,4.3526,4.364,4.3302,4.3157,4.2788,4.2453,4.1781,4.1124,3.9717,3.8631,3.7461,3.6224,3.4861,3.4231,3.3994,3.328,3.2701,3.2543,3.2495,3.2097,3.1832,3.1574,3.0745,2.9108,2.805,2.7035,2.6339,2.5624,2.5245,2.5041,2.4397,2.3527,8.1368,8.1136,8.0556,8.0294,8.0294,7.9978,8.0021,8.0179,7.9059,7.8155,7.7773,7.7502,7.7201,7.6871,7.6373,7.5871,7.5535,7.5198,7.5028,7.5028,7.5028,7.5028,7.5028,7.5028,7.5028,7.5028,7.4859,7.4716,7.4032,7.3169,7.1366,6.9761,6.8676,6.7764,6.7212,6.6843,6.6496,6.5938,6.5376,6.5001,6.4435,6.3889,6.2753,6.1885,6.1278,6.0194,5.9028,5.8366,5.7972,5.7623,5.7536,5.7514,5.7514,5.7514,5.7514,5.7514,5.7514,5.7514,5.7514,5.7514,5.7141,5.6226,5.5698,5.5198,5.442,5.3447,5.2348,5.123,5.0317,4.9264,4.83,4.7763,4.7486,4.7314,4.6863,4.6475,4.6371,4.632,4.5943,4.5772,4.5141,4.5002,4.454,4.4578,4.466,4.4319,4.4188,4.3865,4.3624,4.2914,4.176,4.033,3.909,3.7885,3.6197,3.4808,3.4056,3.3459,3.2931,3.2592,3.2579,3.2507,3.1927,3.1468,3.1114,2.9525,2.7684,2.6904,2.6843,2.6175,2.5477,2.5133,2.4767,2.429,2.3649,8.1049,8.0817,8.0468,8.0136,7.9949,7.9312,7.9381,7.9392,7.8678,7.8212,7.7694,7.7694,7.753,7.7036,7.6539,7.6039,7.5676,7.5198,7.5028,7.5028,7.5028,7.5028,7.5028,7.5028,7.4832,7.4832,7.4689,7.4374,7.3515,7.2096,7.0299,6.922,6.813,6.7396,6.7027,6.6682,6.6124,6.5564,6.5212,6.4812,6.4245,6.3653,6.2593,6.1447,6.1054,5.9883,5.8554,5.8169,5.782,5.7557,5.7536,5.7514,5.7514,5.7514,5.7514,5.7514,5.7514,5.7514,5.7514,5.7514,5.6954,5.6205,5.6038,5.5262,5.4503,5.3316,5.2335,5.1387,5.0432,4.9489,4.8557,4.7872,4.7576,4.7492,4.6986,4.6492,4.6389,4.6286,4.6149,4.5977,4.5668,4.5697,4.5549,4.5589,4.5445,4.5052,4.4791,4.4808,4.4548,4.3963,4.2561,4.0877,3.9583,3.8268,3.6505,3.461,3.3803,3.3193,3.2919,3.2555,3.2579,3.2325,3.1987,3.1044,3.0148,2.8583,2.7254,2.7166,2.7075,2.6155,2.5236,2.5068,2.4667,2.402,2.3415,8.0788,8.0323,8.0294,7.9978,7.9472,7.8698,7.8459,7.8488,7.8431,7.8049,7.7694,7.7694,7.7502,7.7174,7.6705,7.6206,7.5871,7.5367,7.5028,7.5028,7.5028,7.5028,7.5028,7.4832,7.4635,7.4294,7.415,7.386,7.2621,7.1189,6.9761,6.8676,6.7764,6.7027,6.6682,6.6496,6.6124,6.5212,6.5024,6.4836,6.4222,6.3584,6.2807,6.1312,6.0462,5.976,5.8589,5.7841,5.7514,5.7514,5.7514,5.7514,5.7514,5.7514,5.7514,5.7514,5.7514,5.7328,5.7349,5.7349,5.6789,5.6226,5.5829,5.5094,5.4142,5.3377,5.2394,5.1426,5.0255,4.9489,4.8539,4.798,4.7885,4.7509,4.7056,4.6578,4.6286,4.6337,4.6286,4.62,4.6406,4.6228,4.6238,4.6246,4.6297,4.5723,4.5706,4.5789,4.5316,4.4875,4.3268,4.1417,3.9793,3.8225,3.6252,3.4649,3.3765,3.3119,3.2845,3.2471,3.2447,3.2241,3.184,3.0791,2.9751,2.8593,2.7557,2.7356,2.6664,2.5779,2.5104,2.4725,2.4325,2.3887,2.3302,8.0439,8.0294,7.9949,7.9472,7.9181,7.8536,7.824,7.7886,7.7858,7.7858,7.7694,7.7694,7.7666,7.7366,7.7036,7.6539,7.6234,7.5704,7.5339,7.5198,7.5028,7.5055,7.4859,7.4716,7.4294,7.3871,7.3726,7.3142,7.1744,7.0299,6.9039,6.813,6.7396,6.6843,6.6496,6.6496,6.5938,6.5024,6.5024,6.4458,6.3866,6.3072,6.2116,6.1074,6.0225,5.9239,5.8303,5.7667,5.7536,5.7514,5.7514,5.7514,5.7514,5.7514,5.7514,5.7514,5.7514,5.7349,5.7163,5.6976,5.6414,5.5661,5.5073,5.4503,5.3951,5.3377,5.2414,5.1231,5.0255,4.9273,4.8613,4.8326,4.8011,4.758,4.7383,4.6923,4.6457,4.644,4.6423,4.656,4.6731,4.6919,4.6931,4.7016,4.7067,4.7067,4.7067,4.6822,4.6213,4.5495,4.3751,4.1837,4.0078,3.8336,3.617,3.4437,3.3551,3.2779,3.2482,3.2302,3.2302,3.1796,3.1292,3.0299,2.9356,2.8401,2.756,2.702,2.6355,2.5548,2.4964,2.4808,2.409,2.3418,2.2873,8.0294,8.0294,7.966,7.9181,7.8698,7.8212,7.7886,7.7694,7.7694,7.7694,7.7694,7.7694,7.7694,7.7694,7.7201,7.6871,7.6401,7.5871,7.5339,7.5198,7.5028,7.494,7.477,7.4572,7.3726,7.3302,7.2716,7.2096,7.0681,6.9761,6.8676,6.7764,6.7212,6.6843,6.6496,6.6496,6.5938,6.5024,6.5024,6.4458,6.3699,6.2974,6.2229,6.1186,6.0127,5.9262,5.8303,5.771,5.7536,5.7514,5.7514,5.7514,5.7514,5.7514,5.7514,5.7328,5.7328,5.7163,5.6789,5.6414,5.6017,5.5262,5.4693,5.4312,5.3165,5.2587,5.2008,5.0822,5.0274,4.9489,4.907,4.8598,4.8352,4.8193,4.8083,4.7913,4.7356,4.6936,4.6936,4.6988,4.7091,4.7125,4.7296,4.7296,4.7347,4.7347,4.7365,4.7153,4.6559,4.5495,4.3947,4.1999,3.9985,3.7899,3.5891,3.4225,3.3097,3.2527,3.2133,3.2121,3.2097,3.1081,3.0308,2.989,2.9245,2.8177,2.7517,2.6877,2.5989,2.5195,2.5033,2.4651,2.3946,2.3312,2.2625,8.0294,8.0136,7.9341,7.8698,7.8403,7.7858,7.7694,7.7694,7.7694,7.7694,7.7666,7.7582,7.7582,7.7502,7.7366,7.6871,7.6539,7.6039,7.5535,7.5198,7.5028,7.4967,7.4851,7.4482,7.3435,7.2489,7.1868,7.0834,6.9761,6.8858,6.813,6.7212,6.6843,6.6496,6.6496,6.631,6.5938,6.5212,6.4836,6.4269,6.3866,6.3416,6.248,6.1502,6.0718,5.9683,5.8655,5.7951,5.7667,5.7601,5.7623,5.7601,5.7623,5.7645,5.7393,5.7393,5.6976,5.6789,5.6414,5.6038,5.5451,5.4883,5.4503,5.3931,5.278,5.2008,5.16,5.0938,5.037,4.9733,4.931,4.9129,4.888,4.855,4.8471,4.8333,4.793,4.7313,4.7313,4.733,4.733,4.7347,4.7347,4.7365,4.7365,4.7365,4.7153,4.694,4.6235,4.494,4.3422,4.153,3.9398,3.7475,3.5284,3.4154,3.2841,3.243,3.2024,3.1964,3.1689,3.1189,3.0511,3.0082,2.9222,2.8166,2.7352,2.6741,2.583,2.5166,2.4889,2.4578,2.3923,2.3301,2.276,8.0136,7.9632,7.9152,7.8698,7.8374,7.7858,7.7694,7.7694,7.7694,7.7694,7.7582,7.7216,7.7188,7.7694,7.7694,7.7366,7.6705,7.6373,7.6039,7.5676,7.5198,7.4994,7.4734,7.3993,7.2995,7.207,7.1189,7.0299,6.922,6.8494,6.7764,6.7212,6.6682,6.6496,6.6496,6.6124,6.5798,6.5024,6.4647,6.4269,6.3561,6.302,6.232,6.1412,6.0718,5.9706,5.8743,5.8213,5.7885,5.7776,5.7841,5.782,5.7776,5.7798,5.7567,5.7019,5.6789,5.6226,5.585,5.5746,5.5008,5.4524,5.4163,5.3801,5.282,5.2394,5.1932,5.1286,5.0752,5.0034,4.9569,4.9661,4.9635,4.8538,4.8158,4.7895,4.7559,4.7347,4.7347,4.7365,4.7365,4.7365,4.7365,4.7365,4.7365,4.7365,4.694,4.6728,4.6286,4.4579,4.2877,4.081,3.8955,3.6717,3.4714,3.4019,3.3087,3.2385,3.2,3.2073,3.1821,3.1189,3.0737,3.0231,2.9333,2.823,2.7415,2.6584,2.5996,2.5357,2.4883,2.4557,2.3887,2.3268,2.2921]},{"header":{"parameterUnit":"m.s-1","parameterCategory":1,"la1":31.0,"la2":29.5877,"lo1":-88.7671,"lo2":-86.6584,"dy":0.0162,"dx":0.0185,"nx":115,"ny":88,"refTime":"2024-04-01T18:00:00:Z","depth":0,"parameterNumber":3,"parameterNumberName":"V-component_of_WINDS"},"data":[0.0,0.0,0.0,0.0,0.0,0.0,0.0,0.0,0.0,0.0,0.0,0.0,0.0,0.0,0.0,0.0,0.0,0.0,0.0,0.0,0.0,0.0,0.0,0.0,0.0,0.0,0.0,0.0,0.0,0.0,0.0,0.0,0.0,0.0,0.0,0.0,0.0,0.0,0.0,0.0,0.0,0.0,0.0,0.0,0.0,0.0,0.0,0.0,0.0,0.0,0.0,0.0,0.0,0.0,0.0,0.0,0.0,0.0,0.0,0.0,0.0,0.0,0.0,0.0,0.0,0.0,0.0,0.0,0.0,0.0,0.0,0.0,0.0,0.0,0.0,0.0,0.0,0.0,0.0,0.0,0.0,0.0,0.0,0.0,0.0,0.0,0.0,0.0,0.0,0.0,0.0,0.0,0.0,0.0,0.0,0.0,0.0,0.0,0.0,0.0,0.0,0.0,0.0,0.0,0.0,0.0,0.0,0.0,0.0,0.0,0.0,0.0,0.0,0.0,0.0,0.0,0.0,0.0,0.0,0.0,0.0,0.0,0.0,0.0,0.0,0.0,0.0,0.0,0.0,0.0,0.0,0.0,0.0,0.0,0.0,0.0,0.0,0.0,0.0,0.0,0.0,0.0,0.0,0.0,0.0,0.0,0.0,0.0,0.0,0.0,0.0,0.0,0.0,0.0,0.0,0.0,0.0,0.0,0.0,0.0,0.0,0.0,0.0,0.0,0.0,0.0,0.0,0.0,0.0,0.0,0.0,0.0,0.0,0.0,0.0,0.0,0.0,0.0,0.0,0.0,0.0,0.0,0.0,0.0,0.0,0.0,0.0,0.0,0.0,0.0,0.0,0.0,0.0,0.0,0.0,0.0,0.0,0.0,0.0,0.0,0.0,0.0,0.0,0.0,0.0,0.0,0.0,0.0,0.0,0.0,0.0,0.0,0.0,0.0,0.0,0.0,0.0,0.0,0.0,0.0,0.0,0.0,0.0,0.0,0.0,0.0,0.0,0.0,0.0,0.0,0.0,0.0,0.0,0.0,0.0,0.0,0.0,0.0,0.0,0.0,0.0,0.0,0.0,0.0,0.0,0.0,0.0,0.0,0.0,0.0,0.0,0.0,0.0,0.0,0.0,0.0,0.0,0.0,0.0,0.0,0.0,0.0,0.0,0.0,0.0,0.0,0.0,0.0,0.0,0.0,0.0,0.0,0.0,0.0,0.0,0.0,0.0,0.0,0.0,0.0,0.0,0.0,0.0,0.0,0.0,0.0,0.0,0.0,0.0,0.0,0.0,0.0,0.0,0.0,0.0,0.0,0.0,0.0,0.0,0.0,0.0,0.0,0.0,0.0,0.0,0.0,0.0,0.0,0.0,0.0,0.0,0.0,0.0,0.0,0.0,0.0,0.0,0.0,0.0,0.0,0.0,0.0,0.0,0.0,0.0,0.0,0.0,0.0,0.0,0.0,0.0,0.0,0.0,0.0,0.0,0.0,0.0,0.0,0.0,0.0,0.0,0.0,0.0,0.0,0.0,0.0,0.0,0.0,0.0,0.0,0.0,0.0,0.0,0.0,0.0,0.0,0.0,0.0,0.0,0.0,0.0,0.0,0.0,0.0,0.0,0.0,0.0,0.0,0.0,0.0,0.0,0.0,0.0,0.0,0.0,0.0,0.0,0.0,0.0,0.0,0.0,0.0,0.0,0.0,0.0,0.0,0.0,0.0,0.0,0.0,0.0,0.0,0.0,0.0,0.0,0.0,0.0,0.0,0.0,0.0,0.0,0.0,0.0,0.0,0.0,0.0,0.0,0.0,0.0,0.0,0.0,0.0,0.0,0.0,0.0,0.0,0.0,0.0,0.0,0.0,0.0,0.0,0.0,0.0,0.0,0.0,0.0,0.0,0.0,0.0,0.0,0.0,0.0,0.0,0.0,0.0,0.0,0.0,0.0,0.0,0.0,0.0,0.0,0.0,0.0,0.0,0.0,0.0,0.0,0.0,0.0,0.0,0.0,0.0,0.0,0.0,0.0,0.0,0.0,0.0,0.0,0.0,0.0,0.0,0.0,0.0,0.0,0.0,0.0,0.0,0.0,0.0,0.0,0.0,0.0,0.0,0.0,0.0,0.0,0.0,0.0,0.0,0.0,0.0,0.0,0.0,0.0,0.0,0.0,0.0,0.0,0.0,0.0,0.0,0.0,0.0,0.0,0.0,0.0,0.0,0.0,0.0,0.0,0.0,0.0,0.0,0.0,0.0,0.0,0.0,0.0,0.0,0.0,0.0,0.0,0.0,0.0,0.0,0.0,0.0,0.0,0.0,0.0,0.0,0.0,0.0,0.0,0.0,0.0,0.0,0.0,0.0,0.0,0.0,0.0,0.0,0.0,0.0,0.0,0.0,0.0,0.0,0.0,0.0,0.0,0.0,0.0,0.0,0.0,0.0,0.0,0.0,0.0,0.0,0.0,0.0,0.0,0.0,0.0,0.0,0.0,0.0,0.0,0.0,0.0,0.0,0.0,0.0,0.0,0.0,0.0,0.0,0.0,0.0,0.0,0.0,0.0,0.0,0.0,0.0,0.0,0.0,0.0,0.0,0.0,0.0,0.0,0.0,0.0,0.0,0.0,0.0,0.0,0.0,0.0,0.0,0.0,0.0,0.0,0.0,0.0,0.0,0.0,0.0,0.0,0.0,0.0,0.0,0.0,0.0,0.0,0.0,0.0,0.0,0.0,0.0,0.0,0.0,0.0,0.0,0.0,0.0,0.0,0.0,0.0,0.0,0.0,0.0,0.0,0.0,0.0,0.0,0.0,0.0,0.0,0.0,0.0,0.0,0.0,0.0,0.0,0.0,0.0,0.0,0.0,0.0,0.0,0.0,0.0,0.0,0.0,0.0,0.0,0.0,0.0,0.0,0.0,0.0,0.0,0.0,0.0,0.0,0.0,0.0,0.0,0.0,0.0,0.0,0.0,0.0,0.0,0.0,0.0,0.0,0.0,0.0,0.0,0.0,0.0,0.0,0.0,0.0,0.0,0.0,0.0,0.0,0.0,0.0,0.0,0.0,0.0,0.0,0.0,0.0,0.0,0.0,0.0,0.0,0.0,0.0,0.0,0.0,0.0,0.0,0.0,0.0,0.0,0.0,0.0,0.0,0.0,0.0,0.0,0.0,0.0,0.0,0.0,0.0,0.0,0.0,0.0,0.0,0.0,0.0,0.0,0.0,0.0,0.0,0.0,0.0,0.0,0.0,0.0,0.0,0.0,0.0,0.0,0.0,0.0,0.0,0.0,0.0,0.0,0.0,0.0,0.0,0.0,0.0,0.0,0.0,0.0,0.0,0.0,0.0,0.0,0.0,0.0,0.0,0.0,0.0,0.0,0.0,0.0,0.0,0.0,0.0,0.0,0.0,0.0,0.0,0.0,0.0,0.0,0.0,0.0,0.0,0.0,0.0,0.0,0.0,0.0,0.0,0.0,0.0,0.0,0.0,0.0,0.0,0.0,0.0,0.0,0.0,0.0,0.0,0.0,0.0,0.0,0.0,0.0,0.0,0.0,0.0,0.0,0.0,0.0,0.0,0.0,0.0,0.0,0.0,0.0,0.0,0.0,0.0,0.0,0.0,0.0,0.0,0.0,0.0,0.0,0.0,0.0,0.0,0.0,0.0,0.0,0.0,0.0,0.0,0.0,0.0,0.0,0.0,0.0,0.0,0.0,0.0,0.0,0.0,0.0,0.0,0.0,0.0,0.0,0.0,0.0,0.0,0.0,0.0,0.0,0.0,0.0,0.0,0.0,0.0,0.0,0.0,0.0,0.0,0.0,0.0,0.0,0.0,0.0,0.0,0.0,0.0,0.0,0.0,0.0,0.0,0.0,0.0,0.0,0.0,0.0,0.0,0.0,0.0,0.0,0.0,0.0,0.0,0.0,0.0,0.0,0.0,0.0,0.0,0.0,0.0,0.0,0.0,0.0,0.0,0.0,0.0,0.0,0.0,0.0,0.0,0.0,0.0,0.0,0.0,0.0,0.0,0.0,0.0,0.0,0.0,0.0,0.0,0.0,0.0,0.0,0.0,0.0,0.0,0.0,0.0,0.0,0.0,0.0,0.0,0.0,0.0,0.0,0.0,0.0,0.0,0.0,0.0,0.0,0.0,0.0,0.0,0.0,0.0,0.0,0.0,0.0,0.0,0.0,0.0,0.0,0.0,0.0,0.0,0.0,0.0,0.0,0.0,0.0,0.0,0.0,0.0,0.0,0.0,0.0,0.0,0.0,0.0,0.0,0.0,-4.0281,0.0,0.0,0.0,0.0,0.0,0.0,0.0,0.0,0.0,0.0,0.0,0.0,0.0,0.0,0.0,0.0,0.0,0.0,0.0,0.0,0.0,0.0,0.0,0.0,0.0,0.0,0.0,0.0,0.0,0.0,0.0,0.0,0.0,0.0,0.0,0.0,0.0,0.0,0.0,0.0,0.0,0.0,0.0,0.0,0.0,0.0,0.0,0.0,0.0,0.0,0.0,0.0,0.0,0.0,0.0,0.0,0.0,0.0,0.0,0.0,0.0,0.0,0.0,0.0,0.0,0.0,0.0,0.0,0.0,0.0,0.0,0.0,0.0,0.0,0.0,0.0,0.0,0.0,0.0,0.0,0.0,0.0,0.0,0.0,0.0,0.0,0.0,0.0,0.0,0.0,0.0,0.0,0.0,0.0,0.0,0.0,0.0,0.0,0.0,0.0,0.0,0.0,0.0,0.0,0.0,0.0,0.0,0.0,0.0,0.0,-4.0716,-4.0688,-4.0266,-4.0177,-4.0396,0.0,0.0,0.0,0.0,0.0,0.0,0.0,0.0,0.0,0.0,0.0,0.0,0.0,0.0,0.0,0.0,0.0,0.0,0.0,0.0,0.0,0.0,0.0,0.0,0.0,0.0,0.0,0.0,0.0,0.0,0.0,0.0,0.0,0.0,0.0,0.0,0.0,0.0,0.0,0.0,0.0,0.0,0.0,0.0,0.0,0.0,0.0,0.0,0.0,0.0,0.0,0.0,0.0,0.0,0.0,0.0,0.0,0.0,0.0,0.0,0.0,0.0,0.0,0.0,0.0,0.0,0.0,0.0,0.0,0.0,0.0,0.0,0.0,0.0,0.0,0.0,0.0,0.0,0.0,0.0,0.0,0.0,0.0,0.0,0.0,0.0,0.0,0.0,0.0,0.0,0.0,0.0,0.0,0.0,0.0,0.0,0.0,0.0,0.0,0.0,0.0,0.0,0.0,0.0,0.0,0.0,0.0,0.0,0.0,0.0,0.0,0.0,-4.0633,-4.0519,-4.0824,0.0,0.0,0.0,0.0,0.0,0.0,0.0,0.0,0.0,0.0,0.0,0.0,0.0,0.0,0.0,0.0,0.0,0.0,0.0,0.0,0.0,0.0,0.0,0.0,0.0,0.0,0.0,0.0,0.0,0.0,0.0,0.0,0.0,0.0,0.0,0.0,0.0,0.0,0.0,0.0,0.0,0.0,0.0,0.0,0.0,0.0,0.0,0.0,0.0,0.0,0.0,0.0,0.0,0.0,0.0,0.0,0.0,0.0,0.0,0.0,0.0,0.0,0.0,0.0,0.0,0.0,0.0,0.0,0.0,0.0,0.0,0.0,0.0,0.0,0.0,0.0,0.0,0.0,0.0,0.0,0.0,0.0,0.0,0.0,0.0,0.0,0.0,0.0,0.0,0.0,0.0,0.0,0.0,0.0,0.0,0.0,0.0,0.0,0.0,0.0,0.0,0.0,0.0,0.0,0.0,0.0,0.0,0.0,0.0,0.0,-4.0969,-4.1502,-4.1474,0.0,-4.211,0.0,0.0,0.0,0.0,0.0,0.0,0.0,0.0,0.0,0.0,0.0,0.0,0.0,0.0,0.0,0.0,0.0,0.0,0.0,0.0,0.0,0.0,0.0,0.0,0.0,0.0,0.0,0.0,0.0,0.0,0.0,0.0,0.0,0.0,0.0,0.0,0.0,0.0,0.0,0.0,0.0,0.0,0.0,0.0,0.0,0.0,0.0,0.0,0.0,0.0,0.0,0.0,0.0,0.0,0.0,0.0,0.0,0.0,0.0,0.0,0.0,0.0,0.0,0.0,0.0,0.0,0.0,0.0,0.0,0.0,0.0,0.0,0.0,0.0,0.0,0.0,0.0,0.0,0.0,0.0,0.0,0.0,0.0,0.0,0.0,0.0,0.0,0.0,0.0,0.0,0.0,0.0,0.0,0.0,0.0,0.0,0.0,0.0,0.0,0.0,0.0,0.0,0.0,0.0,0.0,0.0,0.0,0.0,0.0,0.0,-4.0824,-4.1587,-4.179,-4.1794,0.0,0.0,0.0,0.0,0.0,0.0,0.0,0.0,0.0,0.0,0.0,0.0,0.0,0.0,0.0,0.0,0.0,0.0,0.0,0.0,0.0,0.0,0.0,0.0,0.0,0.0,0.0,0.0,0.0,0.0,0.0,0.0,0.0,0.0,0.0,0.0,0.0,0.0,0.0,0.0,0.0,0.0,0.0,0.0,0.0,0.0,0.0,0.0,0.0,0.0,0.0,0.0,0.0,0.0,0.0,0.0,0.0,0.0,0.0,0.0,0.0,0.0,0.0,0.0,0.0,0.0,0.0,0.0,0.0,0.0,0.0,0.0,0.0,0.0,0.0,0.0,0.0,0.0,0.0,0.0,0.0,0.0,0.0,0.0,0.0,0.0,0.0,0.0,0.0,0.0,0.0,0.0,0.0,0.0,0.0,0.0,0.0,0.0,0.0,0.0,0.0,0.0,0.0,0.0,0.0,0.0,0.0,0.0,0.0,0.0,-4.0646,-4.1016,-4.1812,-4.1792,-4.1596,-4.1311,0.0,0.0,0.0,0.0,0.0,0.0,0.0,0.0,0.0,0.0,0.0,0.0,0.0,0.0,0.0,0.0,0.0,0.0,0.0,0.0,0.0,0.0,0.0,0.0,0.0,0.0,0.0,0.0,0.0,0.0,0.0,0.0,0.0,0.0,0.0,0.0,0.0,0.0,0.0,0.0,0.0,0.0,0.0,0.0,0.0,0.0,0.0,0.0,0.0,0.0,0.0,0.0,0.0,0.0,0.0,0.0,0.0,0.0,0.0,0.0,0.0,0.0,0.0,0.0,0.0,0.0,0.0,0.0,0.0,0.0,0.0,0.0,0.0,0.0,0.0,0.0,0.0,0.0,0.0,0.0,0.0,0.0,0.0,0.0,0.0,0.0,0.0,0.0,0.0,0.0,0.0,0.0,0.0,0.0,0.0,0.0,0.0,0.0,0.0,0.0,0.0,0.0,0.0,0.0,0.0,0.0,0.0,0.0,-4.1653,-4.1452,-4.163,-4.243,-4.1622,-4.1029,0.0,0.0,0.0,0.0,0.0,0.0,0.0,0.0,0.0,0.0,0.0,0.0,0.0,0.0,0.0,0.0,0.0,0.0,0.0,0.0,0.0,0.0,0.0,0.0,0.0,0.0,0.0,0.0,0.0,0.0,0.0,0.0,0.0,0.0,0.0,0.0,0.0,0.0,0.0,0.0,0.0,0.0,0.0,0.0,0.0,0.0,0.0,0.0,0.0,0.0,0.0,0.0,0.0,0.0,0.0,0.0,0.0,0.0,0.0,0.0,0.0,0.0,0.0,0.0,0.0,0.0,0.0,0.0,0.0,0.0,0.0,0.0,0.0,0.0,0.0,0.0,0.0,0.0,0.0,0.0,0.0,0.0,0.0,0.0,0.0,0.0,0.0,0.0,0.0,0.0,0.0,0.0,0.0,0.0,0.0,0.0,0.0,0.0,0.0,0.0,0.0,0.0,0.0,0.0,0.0,0.0,0.0,0.0,0.0,-4.0508,-4.103,-4.1295,-4.139,-4.1393,-4.1084,0.0,0.0,0.0,0.0,0.0,0.0,0.0,0.0,0.0,0.0,0.0,0.0,0.0,0.0,0.0,0.0,0.0,0.0,0.0,0.0,0.0,0.0,0.0,0.0,0.0,0.0,0.0,0.0,0.0,0.0,0.0,0.0,0.0,0.0,0.0,0.0,0.0,0.0,0.0,0.0,0.0,0.0,0.0,0.0,0.0,0.0,0.0,0.0,0.0,0.0,0.0,0.0,0.0,0.0,0.0,0.0,0.0,0.0,0.0,0.0,0.0,0.0,0.0,0.0,0.0,0.0,0.0,0.0,0.0,0.0,0.0,0.0,0.0,0.0,0.0,0.0,0.0,0.0,0.0,0.0,0.0,0.0,0.0,0.0,0.0,0.0,0.0,0.0,0.0,0.0,0.0,0.0,0.0,0.0,0.0,0.0,0.0,0.0,0.0,0.0,0.0,0.0,0.0,0.0,0.0,0.0,0.0,0.0,0.0,-4.0001,0.0,-4.1183,-4.0938,-4.1106,-4.083,0.0,0.0,0.0,0.0,0.0,0.0,0.0,0.0,0.0,0.0,0.0,0.0,0.0,0.0,0.0,0.0,0.0,0.0,0.0,0.0,0.0,0.0,0.0,0.0,0.0,0.0,0.0,0.0,0.0,0.0,0.0,0.0,0.0,0.0,0.0,0.0,0.0,0.0,0.0,0.0,0.0,0.0,0.0,0.0,0.0,0.0,0.0,0.0,0.0,0.0,0.0,0.0,0.0,0.0,0.0,0.0,0.0,0.0,0.0,0.0,0.0,0.0,0.0,0.0,0.0,0.0,0.0,0.0,0.0,0.0,0.0,0.0,0.0,0.0,0.0,0.0,0.0,0.0,0.0,0.0,0.0,0.0,0.0,0.0,0.0,0.0,0.0,0.0,0.0,0.0,0.0,0.0,0.0,0.0,0.0,0.0,0.0,0.0,0.0,0.0,0.0,0.0,0.0,0.0,0.0,0.0,0.0,0.0,-3.9707,-4.0549,-4.1052,-4.1346,-4.1318,-4.0935,-4.0182,0.0,0.0,0.0,0.0,0.0,0.0,0.0,0.0,0.0,0.0,0.0,0.0,0.0,0.0,0.0,0.0,0.0,0.0,0.0,0.0,0.0,0.0,0.0,0.0,0.0,0.0,0.0,0.0,0.0,0.0,0.0,0.0,0.0,0.0,0.0,0.0,0.0,0.0,0.0,0.0,0.0,0.0,0.0,0.0,0.0,0.0,0.0,0.0,0.0,0.0,0.0,0.0,0.0,0.0,0.0,0.0,0.0,0.0,0.0,0.0,0.0,0.0,0.0,0.0,0.0,0.0,0.0,0.0,0.0,0.0,0.0,0.0,0.0,0.0,0.0,0.0,0.0,0.0,0.0,0.0,0.0,0.0,0.0,0.0,0.0,0.0,0.0,0.0,0.0,0.0,0.0,0.0,0.0,0.0,0.0,0.0,0.0,0.0,0.0,0.0,0.0,0.0,0.0,0.0,0.0,0.0,0.0,0.0,0.0,-4.0603,-4.105,-4.1736,-4.2516,-4.1658,-4.0991,0.0,0.0,0.0,0.0,0.0,0.0,0.0,0.0,0.0,0.0,0.0,0.0,0.0,0.0,0.0,0.0,0.0,0.0,0.0,0.0,0.0,0.0,0.0,0.0,0.0,0.0,0.0,0.0,0.0,0.0,0.0,0.0,0.0,0.0,0.0,0.0,0.0,0.0,0.0,0.0,0.0,0.0,0.0,0.0,0.0,0.0,0.0,0.0,0.0,0.0,0.0,0.0,0.0,0.0,0.0,0.0,0.0,0.0,0.0,0.0,0.0,0.0,0.0,0.0,0.0,0.0,0.0,0.0,0.0,0.0,0.0,0.0,0.0,0.0,0.0,0.0,0.0,0.0,0.0,0.0,0.0,0.0,0.0,0.0,0.0,0.0,0.0,0.0,0.0,0.0,0.0,0.0,0.0,0.0,0.0,0.0,0.0,0.0,0.0,0.0,0.0,0.0,0.0,0.0,0.0,0.0,0.0,0.0,0.0,-4.2521,-4.2412,-4.2724,-4.3393,-4.2508,-4.1736,-4.1411,0.0,0.0,0.0,0.0,0.0,0.0,0.0,0.0,0.0,0.0,0.0,0.0,0.0,0.0,0.0,0.0,0.0,0.0,0.0,0.0,0.0,0.0,0.0,0.0,0.0,0.0,0.0,0.0,0.0,0.0,0.0,0.0,0.0,0.0,0.0,0.0,0.0,0.0,0.0,0.0,0.0,0.0,0.0,0.0,0.0,0.0,0.0,0.0,0.0,0.0,0.0,0.0,0.0,0.0,0.0,0.0,0.0,0.0,0.0,0.0,0.0,0.0,0.0,0.0,0.0,0.0,0.0,0.0,0.0,0.0,0.0,0.0,0.0,0.0,0.0,0.0,0.0,0.0,0.0,0.0,0.0,0.0,0.0,0.0,0.0,0.0,0.0,0.0,0.0,0.0,0.0,0.0,0.0,0.0,0.0,0.0,0.0,0.0,0.0,0.0,0.0,0.0,0.0,0.0,0.0,0.0,0.0,0.0,-4.6089,-4.5153,-4.4666,-4.4502,-4.3669,-4.2647,0.0,0.0,0.0,0.0,0.0,0.0,0.0,0.0,0.0,0.0,0.0,0.0,0.0,0.0,0.0,0.0,0.0,0.0,0.0,0.0,0.0,0.0,0.0,0.0,0.0,0.0,0.0,0.0,0.0,0.0,0.0,0.0,0.0,0.0,0.0,0.0,0.0,0.0,0.0,0.0,0.0,0.0,0.0,0.0,0.0,0.0,0.0,0.0,0.0,0.0,0.0,0.0,0.0,0.0,0.0,0.0,0.0,0.0,0.0,0.0,0.0,0.0,0.0,0.0,0.0,0.0,0.0,0.0,0.0,0.0,0.0,0.0,0.0,0.0,0.0,0.0,0.0,0.0,0.0,0.0,0.0,0.0,0.0,0.0,0.0,0.0,0.0,0.0,0.0,0.0,0.0,0.0,0.0,0.0,0.0,0.0,0.0,0.0,0.0,0.0,0.0,0.0,0.0,0.0,0.0,0.0,0.0,0.0,0.0,-4.8615,-5.0309,-5.0621,-4.906,-4.6469,-4.4952,0.0,0.0,0.0,0.0,0.0,0.0,0.0,0.0,0.0,0.0,0.0,0.0,0.0,0.0,0.0,0.0,0.0,0.0,0.0,0.0,0.0,0.0,0.0,0.0,0.0,0.0,0.0,0.0,0.0,0.0,0.0,0.0,0.0,0.0,0.0,0.0,0.0,0.0,0.0,0.0,0.0,0.0,0.0,0.0,0.0,0.0,0.0,0.0,0.0,0.0,0.0,0.0,0.0,0.0,0.0,0.0,0.0,0.0,0.0,0.0,0.0,0.0,0.0,0.0,0.0,0.0,0.0,0.0,0.0,0.0,0.0,0.0,0.0,0.0,0.0,0.0,0.0,0.0,0.0,0.0,0.0,0.0,0.0,0.0,0.0,0.0,0.0,0.0,0.0,0.0,0.0,0.0,0.0,0.0,0.0,0.0,0.0,0.0,0.0,0.0,0.0,0.0,0.0,0.0,0.0,0.0,0.0,0.0,-4.8884,-5.1029,-5.394,-5.5055,-5.4181,-5.0086,-4.7448,0.0,0.0,0.0,0.0,0.0,0.0,0.0,0.0,0.0,0.0,0.0,0.0,0.0,0.0,0.0,0.0,0.0,0.0,0.0,0.0,0.0,0.0,0.0,0.0,0.0,0.0,0.0,0.0,0.0,0.0,0.0,0.0,0.0,0.0,0.0,0.0,0.0,0.0,0.0,0.0,0.0,0.0,0.0,0.0,0.0,0.0,0.0,0.0,0.0,0.0,0.0,0.0,0.0,0.0,0.0,0.0,0.0,0.0,0.0,0.0,0.0,0.0,0.0,0.0,0.0,0.0,0.0,0.0,0.0,0.0,0.0,0.0,0.0,0.0,0.0,0.0,0.0,0.0,0.0,0.0,0.0,0.0,0.0,0.0,0.0,0.0,0.0,0.0,0.0,0.0,0.0,0.0,0.0,0.0,0.0,0.0,0.0,0.0,0.0,0.0,0.0,0.0,0.0,0.0,0.0,0.0,0.0,0.0,-5.0532,-5.3661,-5.6585,-5.8312,-5.8769,-5.3734,-4.996,0.0,0.0,0.0,0.0,0.0,0.0,0.0,0.0,0.0,0.0,0.0,0.0,0.0,0.0,0.0,0.0,0.0,0.0,0.0,0.0,0.0,0.0,0.0,0.0,0.0,0.0,0.0,0.0,0.0,0.0,0.0,0.0,0.0,0.0,0.0,0.0,0.0,0.0,0.0,0.0,0.0,0.0,0.0,0.0,0.0,0.0,0.0,0.0,0.0,0.0,0.0,0.0,0.0,0.0,0.0,0.0,0.0,0.0,0.0,0.0,0.0,0.0,0.0,0.0,0.0,0.0,0.0,0.0,0.0,0.0,0.0,0.0,0.0,0.0,0.0,0.0,0.0,0.0,0.0,0.0,0.0,0.0,0.0,0.0,0.0,0.0,0.0,0.0,0.0,0.0,0.0,0.0,0.0,0.0,0.0,0.0,0.0,0.0,0.0,0.0,0.0,0.0,0.0,0.0,0.0,0.0,0.0,0.0,-5.2968,-5.6053,-5.8699,-6.019,-6.0128,-5.5617,-5.2009,0.0,0.0,0.0,0.0,0.0,0.0,0.0,0.0,0.0,0.0,0.0,0.0,0.0,0.0,0.0,0.0,0.0,0.0,0.0,0.0,0.0,0.0,0.0,0.0,0.0,0.0,0.0,0.0,0.0,0.0,0.0,0.0,0.0,0.0,0.0,0.0,0.0,0.0,0.0,0.0,0.0,0.0,0.0,0.0,0.0,0.0,0.0,0.0,-4.6736,0.0,0.0,0.0,0.0,0.0,0.0,0.0,0.0,0.0,0.0,0.0,0.0,0.0,0.0,0.0,0.0,0.0,0.0,0.0,0.0,0.0,0.0,0.0,0.0,0.0,0.0,0.0,0.0,0.0,0.0,0.0,0.0,0.0,0.0,0.0,0.0,0.0,0.0,0.0,0.0,0.0,0.0,0.0,0.0,0.0,0.0,0.0,0.0,0.0,0.0,0.0,0.0,0.0,0.0,0.0,0.0,0.0,0.0,0.0,-5.4126,-5.7595,-6.026,-6.1503,-6.1247,-5.8401,-5.5122,0.0,0.0,0.0,0.0,0.0,0.0,0.0,0.0,0.0,0.0,0.0,0.0,0.0,0.0,0.0,0.0,0.0,0.0,0.0,0.0,0.0,0.0,0.0,0.0,0.0,0.0,0.0,0.0,0.0,0.0,0.0,0.0,0.0,0.0,0.0,0.0,0.0,0.0,0.0,0.0,0.0,0.0,0.0,0.0,0.0,0.0,0.0,0.0,0.0,0.0,0.0,0.0,0.0,0.0,0.0,0.0,0.0,0.0,0.0,0.0,0.0,0.0,0.0,0.0,0.0,0.0,0.0,0.0,0.0,0.0,0.0,0.0,0.0,0.0,0.0,0.0,0.0,0.0,0.0,0.0,0.0,0.0,0.0,0.0,0.0,0.0,0.0,0.0,0.0,0.0,0.0,0.0,0.0,0.0,0.0,0.0,0.0,0.0,0.0,0.0,0.0,0.0,0.0,0.0,0.0,0.0,0.0,-5.0827,-5.4751,-5.9003,-6.1371,-6.2455,-6.2365,-6.081,-5.7775,-5.2856,0.0,0.0,0.0,0.0,0.0,0.0,0.0,0.0,0.0,0.0,0.0,0.0,0.0,0.0,0.0,0.0,0.0,0.0,0.0,0.0,0.0,0.0,0.0,0.0,0.0,0.0,0.0,0.0,0.0,0.0,0.0,0.0,0.0,0.0,0.0,0.0,0.0,0.0,-4.5384,-4.7272,0.0,0.0,0.0,0.0,0.0,0.0,0.0,0.0,-4.8477,0.0,0.0,0.0,0.0,0.0,0.0,0.0,0.0,0.0,0.0,0.0,0.0,0.0,0.0,0.0,0.0,0.0,0.0,0.0,0.0,0.0,0.0,0.0,0.0,0.0,0.0,0.0,0.0,0.0,0.0,0.0,0.0,0.0,0.0,0.0,0.0,0.0,0.0,0.0,0.0,0.0,0.0,0.0,0.0,0.0,0.0,0.0,0.0,0.0,0.0,0.0,0.0,0.0,0.0,0.0,0.0,-5.0118,-5.2192,-5.592,-6.1513,-6.2217,-6.2667,-6.2804,-6.0622,-5.7532,-5.3488,0.0,0.0,0.0,0.0,0.0,0.0,0.0,0.0,0.0,0.0,0.0,0.0,0.0,0.0,0.0,0.0,0.0,0.0,0.0,0.0,0.0,0.0,0.0,0.0,0.0,0.0,0.0,0.0,0.0,0.0,0.0,0.0,0.0,0.0,0.0,0.0,0.0,0.0,0.0,-5.0121,-5.1048,0.0,0.0,0.0,0.0,0.0,0.0,0.0,0.0,-5.1293,0.0,0.0,0.0,0.0,0.0,0.0,0.0,0.0,0.0,0.0,0.0,0.0,0.0,0.0,0.0,0.0,0.0,0.0,0.0,0.0,0.0,0.0,0.0,0.0,0.0,0.0,0.0,0.0,0.0,0.0,0.0,0.0,0.0,0.0,0.0,0.0,0.0,0.0,0.0,0.0,0.0,0.0,0.0,0.0,0.0,0.0,0.0,0.0,0.0,0.0,0.0,0.0,0.0,0.0,0.0,-5.0363,-5.3412,-5.7251,-6.1907,-6.3125,-6.3472,-6.2978,-6.0419,-5.7146,0.0,0.0,0.0,0.0,0.0,0.0,0.0,0.0,0.0,0.0,0.0,0.0,0.0,0.0,0.0,0.0,0.0,0.0,0.0,0.0,0.0,0.0,0.0,0.0,0.0,0.0,0.0,0.0,0.0,0.0,0.0,0.0,0.0,0.0,0.0,0.0,0.0,0.0,0.0,0.0,-5.1276,-5.2241,-5.3188,0.0,0.0,0.0,0.0,0.0,0.0,-5.1691,-5.1862,0.0,0.0,0.0,0.0,0.0,0.0,0.0,0.0,0.0,0.0,0.0,0.0,0.0,0.0,0.0,0.0,0.0,0.0,0.0,0.0,0.0,0.0,0.0,0.0,0.0,0.0,0.0,0.0,0.0,0.0,0.0,0.0,0.0,0.0,0.0,0.0,0.0,0.0,0.0,0.0,0.0,0.0,0.0,0.0,0.0,0.0,0.0,0.0,0.0,0.0,0.0,0.0,0.0,0.0,0.0,-5.0363,-5.4386,-5.8376,-6.214,-6.3565,-6.3807,-6.2839,-6.0293,-5.6804,0.0,0.0,0.0,0.0,0.0,0.0,0.0,0.0,0.0,0.0,0.0,0.0,0.0,0.0,0.0,0.0,0.0,0.0,0.0,0.0,0.0,0.0,0.0,0.0,0.0,0.0,0.0,0.0,0.0,0.0,0.0,0.0,0.0,0.0,0.0,0.0,0.0,0.0,0.0,0.0,0.0,-5.3361,-5.4369,-5.3824,0.0,0.0,0.0,0.0,-5.2769,-5.3009,0.0,0.0,0.0,0.0,0.0,0.0,0.0,0.0,0.0,0.0,0.0,0.0,0.0,0.0,0.0,0.0,0.0,0.0,0.0,0.0,0.0,0.0,0.0,0.0,0.0,0.0,0.0,0.0,0.0,0.0,0.0,0.0,0.0,0.0,0.0,0.0,0.0,0.0,0.0,0.0,0.0,0.0,0.0,0.0,0.0,0.0,0.0,0.0,0.0,0.0,0.0,0.0,0.0,0.0,0.0,0.0,-5.1529,-5.4386,-5.8349,-6.3216,-6.3189,-6.2974,-6.2812,-6.0023,-5.6429,0.0,0.0,0.0,0.0,0.0,0.0,0.0,0.0,0.0,0.0,0.0,0.0,0.0,0.0,0.0,0.0,0.0,0.0,0.0,0.0,0.0,0.0,0.0,0.0,0.0,0.0,0.0,0.0,0.0,0.0,0.0,0.0,0.0,0.0,0.0,0.0,0.0,0.0,0.0,0.0,0.0,-5.5322,-5.5412,-5.5885,-5.5918,0.0,0.0,-5.5783,-5.6553,-5.7277,0.0,0.0,0.0,0.0,0.0,0.0,0.0,0.0,0.0,0.0,0.0,0.0,0.0,0.0,0.0,0.0,0.0,0.0,0.0,0.0,0.0,0.0,0.0,0.0,0.0,0.0,0.0,0.0,0.0,0.0,0.0,0.0,0.0,0.0,0.0,0.0,0.0,0.0,0.0,0.0,0.0,0.0,0.0,0.0,0.0,0.0,0.0,0.0,0.0,0.0,0.0,0.0,0.0,0.0,0.0,-4.7755,-5.1285,-5.5122,-5.8805,-6.2344,-6.2911,-6.2803,-6.2128,-5.953,-5.6115,0.0,0.0,0.0,0.0,0.0,0.0,0.0,0.0,0.0,0.0,0.0,0.0,0.0,0.0,0.0,0.0,0.0,0.0,0.0,0.0,0.0,0.0,0.0,0.0,0.0,0.0,0.0,0.0,0.0,0.0,0.0,0.0,0.0,0.0,0.0,0.0,0.0,0.0,0.0,0.0,0.0,0.0,-5.7153,-5.7945,0.0,0.0,0.0,-5.8638,-5.8253,0.0,0.0,0.0,0.0,0.0,0.0,0.0,0.0,0.0,0.0,0.0,0.0,0.0,0.0,0.0,0.0,0.0,0.0,0.0,0.0,0.0,0.0,0.0,0.0,0.0,0.0,0.0,0.0,0.0,0.0,0.0,0.0,0.0,0.0,0.0,0.0,0.0,0.0,0.0,0.0,0.0,0.0,0.0,0.0,0.0,0.0,0.0,0.0,0.0,0.0,0.0,0.0,0.0,0.0,0.0,0.0,0.0,-5.0905,-5.5627,-5.929,-6.1759,-6.2872,-6.2926,-6.1841,-5.923,0.0,0.0,0.0,0.0,0.0,0.0,0.0,0.0,0.0,0.0,0.0,0.0,0.0,0.0,0.0,0.0,0.0,0.0,0.0,0.0,0.0,0.0,0.0,0.0,0.0,0.0,0.0,-3.9088,0.0,0.0,0.0,0.0,0.0,0.0,0.0,0.0,0.0,0.0,0.0,0.0,0.0,0.0,-5.681,-5.8426,-5.9828,-6.0589,0.0,0.0,-6.083,-6.029,-6.1639,-6.1268,0.0,0.0,0.0,0.0,0.0,0.0,0.0,0.0,0.0,0.0,0.0,0.0,0.0,0.0,0.0,0.0,0.0,0.0,0.0,0.0,0.0,0.0,0.0,0.0,0.0,0.0,0.0,0.0,0.0,0.0,0.0,0.0,0.0,0.0,0.0,0.0,0.0,0.0,0.0,0.0,0.0,0.0,0.0,0.0,0.0,0.0,0.0,0.0,0.0,0.0,0.0,0.0,0.0,0.0,0.0,-5.0932,-5.5627,-5.948,-6.2356,-6.3089,-6.3116,-6.2465,-5.9857,-5.6292,0.0,0.0,0.0,0.0,0.0,0.0,0.0,0.0,0.0,0.0,0.0,0.0,0.0,0.0,0.0,0.0,0.0,0.0,0.0,0.0,0.0,0.0,0.0,0.0,0.0,0.0,0.0,0.0,0.0,0.0,0.0,0.0,0.0,0.0,0.0,0.0,0.0,0.0,0.0,0.0,0.0,-5.8734,-5.8833,-6.1418,-6.3382,0.0,0.0,-6.2481,-6.4005,-6.48,-6.3824,-5.9633,0.0,0.0,0.0,0.0,0.0,0.0,0.0,0.0,0.0,0.0,0.0,0.0,0.0,0.0,0.0,0.0,0.0,0.0,0.0,0.0,0.0,0.0,0.0,0.0,0.0,0.0,0.0,0.0,0.0,0.0,0.0,0.0,0.0,0.0,0.0,0.0,0.0,0.0,0.0,0.0,0.0,0.0,0.0,0.0,0.0,0.0,0.0,0.0,0.0,0.0,0.0,0.0,0.0,-4.8243,-5.0363,-5.5084,-5.8639,-6.0837,-6.212,-6.231,-6.1738,-6.0391,-5.7494,0.0,0.0,0.0,0.0,0.0,0.0,0.0,0.0,0.0,0.0,0.0,0.0,0.0,0.0,0.0,0.0,0.0,0.0,0.0,0.0,0.0,0.0,0.0,0.0,0.0,0.0,0.0,0.0,-4.2388,-4.3033,-4.3056,0.0,0.0,0.0,0.0,0.0,0.0,0.0,0.0,0.0,0.0,-5.8866,-6.0655,-6.2864,0.0,0.0,-6.4941,-6.5121,-6.5549,-6.5652,-6.4427,-6.0875,-5.9207,0.0,0.0,0.0,0.0,0.0,0.0,0.0,0.0,0.0,0.0,0.0,0.0,0.0,0.0,0.0,0.0,0.0,0.0,0.0,0.0,0.0,0.0,0.0,0.0,0.0,0.0,0.0,0.0,0.0,0.0,0.0,0.0,0.0,0.0,0.0,0.0,0.0,0.0,0.0,0.0,0.0,0.0,0.0,0.0,0.0,0.0,0.0,0.0,0.0,0.0,0.0,0.0,-4.8108,-4.9983,-5.4964,-5.8282,-5.9968,-6.163,-6.2178,-6.1712,-6.1038,-5.8648,0.0,0.0,0.0,0.0,0.0,0.0,0.0,0.0,0.0,0.0,0.0,0.0,0.0,0.0,0.0,0.0,0.0,0.0,0.0,0.0,0.0,0.0,0.0,0.0,0.0,0.0,0.0,0.0,-4.3264,-4.3716,-4.3539,0.0,0.0,0.0,0.0,0.0,0.0,0.0,0.0,0.0,0.0,-5.999,-6.2133,-6.4085,-6.5444,-6.5901,-6.6437,-6.6685,-6.6496,-6.6626,-6.5595,-6.2228,0.0,0.0,0.0,0.0,0.0,0.0,0.0,0.0,0.0,0.0,0.0,0.0,0.0,0.0,0.0,0.0,0.0,0.0,0.0,0.0,0.0,0.0,0.0,0.0,0.0,0.0,0.0,0.0,0.0,0.0,0.0,0.0,0.0,0.0,0.0,0.0,0.0,0.0,0.0,0.0,0.0,0.0,0.0,0.0,0.0,0.0,0.0,0.0,0.0,0.0,0.0,0.0,0.0,0.0,-5.001,-5.5278,-5.8838,-6.0344,-6.2123,-6.2865,-6.2536,-6.1513,-5.9266,-5.589,0.0,0.0,0.0,0.0,0.0,0.0,0.0,0.0,0.0,0.0,0.0,0.0,0.0,0.0,0.0,0.0,0.0,0.0,0.0,0.0,0.0,0.0,0.0,0.0,0.0,0.0,-4.1808,-4.3065,-4.4068,0.0,0.0,0.0,0.0,0.0,0.0,0.0,0.0,0.0,0.0,-5.8208,-6.2499,-6.2814,-6.5143,-6.6862,-6.718,-6.6895,-6.6814,-6.7005,-6.7996,-6.7718,0.0,0.0,0.0,0.0,0.0,0.0,0.0,0.0,0.0,0.0,0.0,0.0,0.0,0.0,0.0,0.0,0.0,0.0,0.0,0.0,0.0,0.0,0.0,0.0,0.0,0.0,0.0,0.0,-4.2262,0.0,0.0,0.0,0.0,0.0,0.0,0.0,0.0,0.0,0.0,0.0,-4.7047,-4.6645,0.0,0.0,0.0,0.0,0.0,0.0,0.0,0.0,0.0,0.0,0.0,0.0,-4.8695,-5.0721,-5.5213,-5.8235,-5.9769,-6.1436,-6.2314,-6.2553,-6.188,-5.9598,-5.5472,0.0,0.0,0.0,0.0,0.0,0.0,0.0,0.0,0.0,0.0,0.0,0.0,0.0,0.0,0.0,0.0,0.0,0.0,0.0,0.0,0.0,0.0,0.0,0.0,0.0,-4.3588,0.0,0.0,0.0,0.0,0.0,0.0,0.0,0.0,0.0,0.0,0.0,-5.329,-5.6103,-5.9923,-6.2818,-6.391,-6.6024,-6.7646,0.0,0.0,0.0,0.0,0.0,0.0,0.0,0.0,0.0,0.0,0.0,0.0,0.0,0.0,-6.5812,-6.2206,-6.2095,-6.2692,-6.2954,0.0,0.0,0.0,0.0,0.0,0.0,0.0,0.0,0.0,0.0,0.0,0.0,0.0,0.0,0.0,0.0,-4.3445,0.0,0.0,0.0,0.0,0.0,0.0,0.0,0.0,-4.6853,-4.8338,-4.977,-4.9213,-4.8957,0.0,-4.7936,-4.5874,0.0,0.0,0.0,0.0,0.0,0.0,0.0,0.0,-4.9381,-5.102,-5.5329,-5.829,-5.9627,-6.1181,-6.222,-6.2515,-6.2192,-6.0428,-5.7241,-5.4223,-5.119,0.0,0.0,0.0,0.0,0.0,0.0,0.0,0.0,0.0,0.0,0.0,0.0,0.0,0.0,0.0,0.0,0.0,0.0,0.0,0.0,0.0,0.0,0.0,-4.4594,0.0,0.0,0.0,0.0,0.0,0.0,0.0,0.0,0.0,-5.0826,-5.3131,-5.5917,-5.9026,-6.1626,-6.3724,-6.5107,0.0,0.0,0.0,0.0,0.0,0.0,0.0,-6.8435,-6.7975,-6.7408,-6.6984,-6.7196,-6.8714,-6.9741,-6.9527,0.0,0.0,-6.6413,-6.622,-6.6822,-6.7395,-6.754,-6.793,-6.8897,-6.9457,-7.0077,0.0,0.0,0.0,0.0,0.0,0.0,0.0,0.0,-4.7522,-4.7176,0.0,-4.5369,0.0,0.0,0.0,0.0,0.0,0.0,0.0,0.0,-4.9917,-5.1286,-5.1391,-5.2015,-5.2086,-5.1801,-5.1668,-5.0472,-4.816,-4.5132,0.0,0.0,0.0,0.0,0.0,0.0,-5.008,-5.1183,-5.6068,-5.903,-6.0049,-6.1636,-6.2571,-6.2942,-6.2408,-6.1711,-6.0955,-5.7448,-5.4672,-5.2717,-4.9222,0.0,0.0,0.0,0.0,0.0,0.0,0.0,0.0,0.0,0.0,0.0,0.0,0.0,0.0,0.0,0.0,0.0,0.0,0.0,0.0,-4.5988,0.0,0.0,0.0,0.0,0.0,0.0,0.0,0.0,0.0,0.0,-5.2096,-5.5816,-5.9261,-6.1095,0.0,0.0,0.0,0.0,-6.831,-6.8802,-6.9852,-7.0323,-6.9727,-7.1678,-7.282,-7.1184,0.0,0.0,-7.3598,-7.3716,-7.3612,-7.2903,-7.3903,-7.4,-7.1734,-7.097,-7.1078,-7.2034,-7.1809,-7.1892,-7.2909,-7.3924,-7.4663,-5.5334,0.0,0.0,0.0,0.0,-5.0405,-5.0759,-5.1058,-5.1478,-5.0848,-4.9482,-4.898,0.0,0.0,0.0,0.0,0.0,0.0,-4.9601,-5.1564,-5.2795,-5.4001,-5.518,-5.4944,-5.4866,-5.4944,-5.3704,-5.2906,-5.2412,-5.0542,-4.7758,-4.4058,0.0,0.0,0.0,0.0,-5.1795,-5.3855,-5.7487,-5.9835,-6.108,-6.2409,-6.3157,-6.3532,-6.3658,-6.2847,-6.1097,-5.9371,-5.7283,-5.472,-5.1918,0.0,0.0,0.0,0.0,0.0,0.0,0.0,0.0,0.0,0.0,0.0,0.0,0.0,0.0,0.0,0.0,0.0,0.0,0.0,-4.6532,-4.8274,-4.858,0.0,0.0,0.0,0.0,0.0,0.0,0.0,0.0,0.0,-5.7493,-5.9287,-6.1129,0.0,0.0,-6.6676,-6.7625,-6.8821,-7.0252,-7.2022,-7.229,0.0,0.0,-7.4293,-7.4199,-7.4075,-7.5055,-7.5935,-7.6446,-7.7134,-7.7653,-7.7678,-7.7878,-7.7955,-7.7918,-7.6275,-7.5152,-7.5379,-7.5958,-7.6717,-7.7768,-7.8698,-7.9579,-6.1267,-5.7556,-5.4839,-5.3634,-5.3556,-5.4236,-5.4682,-5.4889,-5.502,-5.4236,-5.2772,-5.2088,-5.0716,-4.8694,-4.8373,0.0,0.0,0.0,-5.2193,-5.4419,-5.4968,-5.6144,-5.7739,-5.7451,-5.7433,-5.7519,-5.6284,-5.5682,-5.571,-5.4347,-5.1897,-4.8507,0.0,0.0,-4.8109,-5.1005,-5.3501,-5.5429,-5.8694,-6.0933,-6.1852,-6.2906,-6.3679,-6.411,-6.4243,-6.3818,-6.2463,-6.1422,-5.9735,-5.739,-5.4633,-5.1948,0.0,0.0,0.0,0.0,0.0,0.0,0.0,0.0,0.0,0.0,0.0,-4.3886,-4.4549,0.0,0.0,0.0,-4.8117,-4.8777,-4.9141,-5.0334,0.0,0.0,0.0,0.0,0.0,0.0,0.0,-5.3065,-5.6157,-5.9001,-6.135,-6.3091,-6.4608,-6.5687,-6.7054,-6.8231,-6.9149,0.0,-7.1364,-7.3223,-7.3546,-7.4181,-7.5873,-7.5952,-7.6023,-7.6604,-7.7779,-7.8517,-7.8694,-7.9822,-8.0749,-8.0827,-8.082,-8.1017,-8.1633,-8.044,-7.9371,-7.9215,-7.9771,-8.0654,-8.1654,-8.2397,-8.3065,-6.6442,-6.456,-6.0326,-5.8418,-5.8183,-5.8706,-5.8889,-5.881,-5.8287,-5.7373,-5.6118,-5.5072,-5.3635,-5.191,-5.1465,0.0,0.0,-5.3269,-5.4707,-5.6275,-5.6824,-5.7921,-5.9411,-5.9411,-5.9437,-5.9411,-5.8889,-5.8366,-5.7931,-5.6821,-5.5812,-5.464,-5.25,-5.1095,-5.0553,-5.3189,-5.5209,-5.6224,-5.9846,-6.2065,-6.2465,-6.3426,-6.4004,-6.4405,-6.4348,-6.4405,-6.4396,-6.3158,-6.1755,-6.0235,-5.7274,-5.441,-5.1758,0.0,0.0,0.0,0.0,0.0,0.0,0.0,0.0,0.0,0.0,0.0,0.0,0.0,0.0,0.0,-5.1005,0.0,-5.2769,-5.2506,0.0,0.0,0.0,-5.3069,-5.3699,-5.4715,-5.597,-5.7557,0.0,0.0,-6.3951,-6.6916,-6.9042,-6.9275,-6.9451,-7.0015,-7.1176,-7.1621,-7.2072,-7.3456,-7.4123,-7.4851,-7.6006,-7.7133,-7.826,-7.8868,-8.0681,-8.1434,-8.0774,-8.1863,-8.2831,-8.2504,-8.2912,-8.3293,-8.3441,-8.3556,-8.3736,-8.311,-8.3103,-8.3527,-8.4352,-8.4874,-8.5217,-6.9265,-6.835,-6.6834,-6.4665,-6.2287,-6.2391,-6.2208,-6.1816,-6.1659,-6.0457,-5.8523,-5.8261,-5.6928,-5.4889,-5.5229,-5.5674,-5.6249,-5.6981,-5.7974,-5.9176,-5.9333,-5.962,-6.0013,-6.0013,-6.0013,-6.0013,-5.9882,-5.9896,-6.0,-5.9156,-5.8559,-5.8053,-5.6888,-5.5383,-5.3537,-5.5308,-5.6937,-5.8474,-6.0496,-6.2124,-6.3426,-6.4207,-6.4454,-6.4405,-6.4159,-6.3879,-6.3734,-6.2745,-6.1536,-6.0235,-5.8552,-5.6252,-5.3495,-5.1699,0.0,0.0,0.0,0.0,0.0,0.0,0.0,0.0,0.0,-4.6574,-4.6647,0.0,-5.0327,0.0,-5.3045,-5.4583,-5.5017,-5.5469,0.0,0.0,-5.5842,-5.6581,-5.6746,-5.8108,-5.9631,-6.1307,-6.3357,-6.5352,-6.7257,-6.983,-7.1832,-7.2804,-7.2555,-7.2696,-7.3717,-7.4132,-7.4756,-7.5979,-7.6463,-7.7181,-7.8363,-7.9571,-8.0345,-8.1137,-8.1872,-8.2431,-8.2934,-8.3626,-8.4253,-8.4406,-8.4217,-8.434,-8.5073,-8.5045,-8.5081,-8.5408,-8.5221,-8.5028,-8.549,-8.6207,-8.6996,-7.086,-7.0076,-6.9736,-6.8507,-6.6678,-6.5658,-6.5031,-6.4717,-6.4195,-6.3097,-6.1633,-6.0875,-5.9803,-5.8627,-5.8706,-5.8915,-5.9202,-5.9255,-5.9751,-6.0614,-6.0614,-6.0744,-6.1006,-6.1006,-6.098,-6.098,-6.0744,-6.076,-6.1146,-6.0704,-6.0382,-6.0345,-6.0131,-5.9117,-5.7442,-5.748,-5.8146,-5.9367,-6.1091,-6.283,-6.415,-6.4454,-6.4328,-6.3846,-6.3165,-6.2629,-6.2109,-6.0957,-6.009,-5.9364,-5.8521,-5.6997,-5.4714,-5.3579,-5.1846,0.0,0.0,0.0,0.0,0.0,0.0,0.0,0.0,0.0,0.0,0.0,-5.2617,-5.3499,-5.5361,-5.6889,-5.7789,-5.8429,-5.8889,-5.9333,-5.9845,-6.0572,-6.1285,-6.2599,-6.3902,-6.5295,-6.7167,-6.8982,-7.0482,-7.2245,-7.3861,-7.5169,-7.5338,-7.5332,-7.5335,-7.5463,-7.6092,-7.7238,-7.7392,-7.7837,-7.9136,-7.9908,-8.0435,-8.0746,-8.1641,-8.2531,-8.2667,-8.3814,-8.4711,-8.4751,-8.4917,-8.5254,-8.5803,-8.5845,-8.5919,-8.6317,-8.6349,-8.6233,-8.6334,-8.72,-8.8206,-7.1801,-7.0807,-7.0729,-7.0677,-7.0546,-6.8429,-6.7462,-6.7279,-6.6181,-6.5318,-6.4534,-6.2914,-6.2182,-6.2156,-6.1685,-6.145,-6.1398,-6.0901,-6.0953,-6.145,-6.1372,-6.1607,-6.2077,-6.2025,-6.1973,-6.1947,-6.1476,-6.1511,-6.1926,-6.1779,-6.179,-6.1868,-6.2204,-6.1986,-6.1043,-5.9786,-5.9496,-5.9874,-6.194,-6.342,-6.4375,-6.43,-6.3687,-6.2822,-6.1872,-6.1033,-6.0119,-5.8929,-5.8232,-5.8058,-5.7844,-5.6954,-5.5542,-5.5321,-5.4119,0.0,-5.1417,0.0,0.0,0.0,0.0,0.0,0.0,0.0,0.0,-5.3697,-5.526,-5.7029,-5.7995,-5.9193,-6.0836,-6.1192,-6.2273,-6.4365,-6.4254,-6.4573,-6.6179,-6.7179,-6.8115,-6.8997,-7.0792,-7.239,-7.3113,-7.4233,-7.5499,-7.6694,-7.7302,-7.7368,-7.6594,-7.6561,-7.6889,-7.7498,-7.7521,-7.7907,-7.8574,-7.9311,-7.9712,-7.9422,-8.0893,-8.2015,-8.156,-8.3316,-8.4701,-8.466,-8.5251,-8.5912,-8.61,-8.6246,-8.6466,-8.6827,-8.7039,-8.7142,-8.7284,-8.7998,-8.8856,-7.2585,-7.1931,-7.1435,-7.1252,-7.1173,-7.0311,-6.9396,-6.8481,-6.7802,-6.6652,-6.5136,-6.3907,-6.3332,-6.3332,-6.3254,-6.3201,-6.3175,-6.3071,-6.3097,-6.3175,-6.2705,-6.2548,-6.2626,-6.2182,-6.1973,-6.1973,-6.2168,-6.2561,-6.2804,-6.2974,-6.3197,-6.3488,-6.3444,-6.3003,-6.2136,0.0,0.0,0.0,-6.2492,-6.2802,-6.2549,-6.2801,-6.238,-6.1508,-6.0983,0.0,-5.951,-5.8726,-5.7826,-5.6839,-5.6858,0.0,0.0,0.0,0.0,0.0,0.0,0.0,0.0,0.0,0.0,0.0,-5.6214,-5.5986,-5.421,-5.622,-5.8615,-6.0857,-6.1447,-6.2399,-6.3989,-6.4243,-6.4728,-6.5989,-6.6699,-6.7745,-6.9144,-6.9937,-7.0546,-7.1286,-7.2802,-7.3898,-7.4193,-7.577,-7.7163,-7.7615,-7.7996,-7.8167,-7.8104,-7.8047,-7.8188,-7.8328,-7.8293,-7.8399,-7.8539,-7.9241,-7.9747,-8.0034,-8.1001,-8.2181,-8.2826,-8.366,-8.4691,-8.5062,-8.5612,-8.5948,-8.61,-8.6283,-8.6684,-8.7485,-8.7912,-8.8194,-8.8194,-8.8508,-8.9292,-7.3055,0.0,-7.1984,-7.1853,0.0,-7.1226,-7.0494,-6.9657,-6.8795,-6.7436,-6.5815,-6.524,-6.4796,-6.4508,-6.4247,-6.409,-6.409,-6.3803,-6.3672,-6.3672,-6.3384,-6.3097,-6.2809,-6.2522,-6.2411,-6.2299,-6.2422,-6.2868,-6.3406,-6.3722,-6.4,-6.4269,-6.4387,-6.4055,-6.36,-6.3851,-6.3707,-6.2886,-6.3195,-6.3195,-6.2914,-6.3413,-6.2894,-6.1222,0.0,0.0,0.0,0.0,0.0,0.0,0.0,0.0,0.0,0.0,0.0,-5.7901,-5.803,-5.8176,-5.8247,-5.8814,-5.9192,-5.9286,-6.0424,-6.0074,-5.7898,-5.9756,-6.1821,-6.3616,-6.4381,-6.5312,-6.6549,-6.74,-6.8181,-6.8825,-6.9616,-7.057,-7.152,-7.2143,-7.2793,-7.3443,-7.4616,-7.5458,-7.5729,-7.6795,-7.7667,-7.8015,-7.8186,-7.8357,-7.8574,-7.8574,-7.8574,-7.8574,-7.8574,-7.8574,-7.8609,-7.8939,-7.9598,-8.02,-8.1201,-8.221,-8.2994,-8.4104,-8.4953,-8.5178,-8.5547,-8.6026,-8.6247,-8.6428,-8.6752,-8.7332,-8.7688,-8.8293,-8.8988,-8.9676,-9.0313,-7.3343,-7.2297,-7.2297,-7.2297,-7.2271,-7.1775,-7.1226,-7.0546,0.0,0.0,0.0,-6.6495,-6.6103,-6.5528,-6.5057,-6.477,-6.4665,-6.4195,-6.3985,-6.3959,-6.3881,-6.3567,-6.3123,-6.2914,-6.2877,-6.2756,-6.2773,-6.3165,-6.3873,-6.431,-6.4642,-6.4744,-6.5139,-6.5306,-6.5106,-6.4965,-6.4712,-6.4291,-6.3954,-6.3757,-6.3645,-6.4198,-6.3479,-6.1194,-6.1264,-6.0177,-5.7768,-5.7187,-5.6601,-5.5917,-5.7445,-5.8466,-5.8381,-6.021,-6.1081,-6.0763,-6.1184,-6.1621,-6.1891,-6.2315,-6.273,-6.3299,-6.4043,-6.367,-6.1948,-6.3195,-6.4544,-6.5734,-6.6638,-6.7579,-6.8719,-7.0034,-7.1087,-7.1608,-7.2304,-7.2864,-7.3413,-7.4141,-7.46,-7.5009,-7.5764,-7.6611,-7.6823,-7.7352,-7.7841,-7.8151,-7.8217,-7.8231,-7.8399,-7.8469,-7.8574,-7.8574,-7.8574,-7.8574,-7.8609,-7.8952,-7.9411,-8.0328,-8.1444,-8.2378,-8.3241,-8.4372,-8.5142,-8.5076,-8.559,-8.6138,-8.6392,-8.6605,-8.6815,-8.7178,-8.7458,-8.8066,-8.9602,-9.0691,-9.1214,-7.3343,-7.2297,-7.2297,-7.2297,-7.2297,-7.2219,-7.1496,-7.0531,-6.8926,-6.795,-6.7811,-6.7168,-6.6678,-6.6155,-6.6076,-6.5737,-6.5266,-6.5162,-6.5136,0.0,-6.4639,-6.4378,-6.4247,-6.3586,-6.3363,-6.3257,-6.3526,-6.3726,-6.431,-6.4916,-6.5435,-6.5751,-6.6174,-6.6398,-6.6286,-6.5808,-6.5752,-6.6145,-6.46,-6.356,-6.3054,-6.3175,-6.2593,-6.1222,-6.1668,-6.1048,-5.9103,-5.8929,-5.8434,-5.7547,-5.8526,-5.9563,-6.0706,-6.1931,-6.3202,-6.4087,-6.4661,-6.5089,-6.5439,-6.6291,-6.6744,-6.6807,-6.6742,-6.6027,-6.486,-6.5384,-6.629,-6.7489,-6.7973,-6.8818,-7.0298,-7.0825,-7.1585,-7.2907,-7.3435,-7.4061,-7.4854,-7.5214,-7.5364,-7.5136,-7.5832,-7.6405,-7.6533,-7.7285,-7.8015,-7.8202,-7.8021,-7.7578,-7.7837,-7.8153,-7.8539,-7.8574,-7.8574,-7.8574,-7.8798,-7.9339,-8.0058,-8.0572,-8.1719,-8.2936,-8.3971,-8.4711,-8.5334,-8.5771,-8.6174,-8.6392,-8.6608,-8.6679,-8.7109,-8.7831,-8.8183,-8.879,-8.9876,-9.0509,-9.1087,-7.3343,-7.235,-7.2297,-7.2297,-7.2271,-7.1958,-7.1496,-7.0932,-6.9488,-6.8576,-6.793,-6.7663,-6.7279,-6.6782,-6.673,-6.6416,-6.5867,-6.5867,-6.5684,-6.5371,-6.5109,-6.4822,-6.4456,-6.4133,-6.3884,-6.369,-6.3727,-6.4019,-6.46,-6.5204,-6.5633,-6.6031,-6.6455,-6.6595,-6.6567,-6.6314,-6.6314,-6.6567,-6.5752,-6.5021,-6.4431,-6.4822,-6.4479,-6.3193,-6.3486,-6.2935,-6.1425,-6.1019,-6.0499,-6.0003,-6.0821,-6.1816,-6.2894,-6.4152,-6.5289,-6.6381,-6.6823,-6.7151,-6.7508,-6.79,-6.8305,-6.8381,-6.8489,-6.846,-6.8055,-6.7939,-6.8273,-6.932,-7.0075,-7.0864,-7.1521,-7.2315,-7.3109,-7.3636,-7.4295,-7.4892,-7.545,-7.5709,-7.5892,-7.5866,-7.6439,-7.6961,-7.7094,-7.7684,-7.8186,-7.8406,-7.814,-7.8047,-7.8012,-7.8328,-7.8574,-7.8574,-7.8574,-7.8868,-7.9303,-7.9822,-8.0718,-8.1952,-8.285,-8.3738,-8.4809,-8.5368,-8.5736,-8.5991,-8.632,-8.6536,-8.6715,-8.6786,-8.7178,-8.7568,-8.7955,-8.8487,-8.9313,-8.9894,-9.0662,-7.3343,-7.2297,-7.2297,-7.2297,-7.2271,-7.1801,-7.1548,-7.1251,-7.0427,-6.9384,-6.8524,-6.8324,-6.7854,-6.7357,-6.7305,-6.6991,-6.6495,-6.6338,-6.6024,-6.5606,-6.5449,-6.5162,-6.4691,-6.4607,-6.4565,-6.439,-6.4426,-6.4663,-6.5252,-6.5683,-6.5886,-6.6173,-6.6455,-6.6595,-6.6595,-6.6595,-6.6595,-6.6595,-6.6595,-6.6314,-6.5724,-6.6384,-6.625,-6.5165,-6.5275,-6.488,-6.3777,-6.3225,-6.2832,-6.2555,-6.3234,-6.4189,-6.5019,-6.6204,-6.7319,-6.8146,-6.8482,-6.8815,-6.9255,-6.9255,-6.9364,-6.9689,-7.0032,-7.0357,-7.0636,-7.0285,-7.0199,-7.0799,-7.1655,-7.2282,-7.2415,-7.3376,-7.4272,-7.4198,-7.4795,-7.5388,-7.5709,-7.5994,-7.6309,-7.6587,-7.7009,-7.7367,-7.7928,-7.8186,-7.8287,-7.8245,-7.8469,-7.8539,-7.8363,-7.8434,-7.8574,-7.8609,-7.875,-7.915,-8.0034,-8.0706,-8.1673,-8.3254,-8.4055,-8.4768,-8.5468,-8.5915,-8.6247,-8.632,-8.6573,-8.6786,-8.6786,-8.6856,-8.699,-8.712,-8.7173,-8.7554,-8.843,-8.9051,-8.9884,-7.3343,-7.2376,-7.2297,-7.2297,-7.2297,-7.2219,-7.1913,-7.1504,-7.1235,-7.0612,-6.96,-6.8899,-6.8455,-6.7958,-6.7906,-6.7592,-6.6991,-6.6521,-6.6259,-6.6129,-6.5632,-6.5345,-6.5398,-6.5471,-6.5669,-6.5662,-6.6033,-6.6176,-6.6174,-6.658,-6.6731,-6.6511,-6.6595,-6.6595,-6.6595,-6.6595,-6.6595,-6.6595,-6.6595,-6.6286,-6.5862,-6.6384,-6.6479,-6.5765,-6.6343,-6.6389,-6.5664,-6.5606,-6.5251,-6.4793,-6.5359,-6.6094,-6.6731,-6.7749,-6.8674,-6.9516,-6.9973,-7.0343,-7.087,-7.1012,-7.1091,-7.1278,-7.1242,-7.1415,-7.1623,-7.2106,-7.2082,-7.1754,-7.1655,-7.2183,-7.2912,-7.3475,-7.4103,-7.4734,-7.5161,-7.5518,-7.5933,-7.6122,-7.6402,-7.7099,-7.7189,-7.7456,-7.8101,-7.8272,-7.8077,-7.7872,-7.8258,-7.8399,-7.7942,-7.8258,-7.8644,-7.875,-7.9171,-7.9712,-8.0281,-8.1757,-8.2842,-8.3638,-8.4763,-8.5544,-8.5915,-8.632,-8.6644,-8.6536,-8.6786,-8.6925,-8.6925,-8.6995,-8.6912,-8.6775,-8.6713,-8.6693,-8.7362,-8.81,-8.9045,-7.3343,-7.2323,-7.2297,-7.2297,-7.2297,-7.2297,-7.2245,-7.1939,-7.1618,-7.1147,-7.0703,-6.9788,-6.903,-6.8507,-6.8507,-6.8168,-6.7619,-6.7383,-6.6913,-6.6312,-6.6024,-6.5948,-6.5792,-6.5759,-6.5882,-6.6169,-6.6508,-6.6734,-6.6899,-6.7146,-6.7071,-6.6651,-6.6595,-6.6595,-6.6623,-6.696,-6.696,-6.6623,-6.6932,-6.6989,-6.6703,-6.7033,-6.733,-6.7372,-6.7429,-6.7376,-6.7086,-6.6709,-6.6504,-6.6677,-6.7107,-6.7892,-6.8759,-6.9697,-7.0447,-7.1035,-7.1761,-7.2027,-7.1839,-7.203,-7.2092,-7.1894,-7.211,-7.2444,-7.2652,-7.32,-7.3474,-7.3243,-7.3176,-7.3442,-7.3907,-7.4238,-7.4667,-7.5097,-7.5422,-7.5709,-7.6028,-7.6216,-7.6587,-7.7099,-7.7456,-7.7719,-7.8186,-7.8441,-7.8385,-7.8153,-7.8434,-7.8399,-7.8153,-7.8399,-7.875,-7.9276,-8.0028,-8.0739,-8.1047,-8.2158,-8.3387,-8.437,-8.5278,-8.5876,-8.61,-8.6392,-8.6715,-8.6715,-8.6856,-8.6995,-8.7031,-8.7169,-8.712,-8.6832,-8.672,-8.6759,-8.7242,-8.7561,-8.8316,-7.3343,-7.2376,-7.2297,-7.2297,-7.2297,-7.2297,-7.2297,-7.2245,-7.1827,-7.1522,-7.1244,-7.0598,-6.9762,-6.9108,-6.8926,-6.8612,-6.8246,-6.8063,-6.7462,-6.6547,-6.6525,-6.637,-6.6081,-6.6153,-6.633,-6.6618,-6.712,-6.7579,-6.78,-6.7797,-6.755,-6.7157,-6.7101,-6.7101,-6.7129,-6.7438,-6.7297,-6.6904,-6.727,-6.7326,-6.7349,-6.7707,-6.7982,-6.8256,-6.8258,-6.8131,-6.8131,-6.7799,-6.7714,-6.8189,-6.8576,-6.922,-7.0066,-7.0921,-7.164,-7.2261,-7.2958,-7.3193,-7.2764,-7.2956,-7.2889,-7.2573,-7.3143,-7.3396,-7.3449,-7.3928,-7.4268,-7.4138,-7.4171,-7.4239,-7.4473,-7.4771,-7.4968,-7.5262,-7.5422,-7.5709,-7.6122,-7.6402,-7.6828,-7.7278,-7.7719,-7.8101,-7.8357,-7.8525,-7.8539,-7.8539,-7.8539,-7.8574,-7.8574,-7.8574,-7.8785,-7.9501,-8.0598,-8.1471,-8.1886,-8.2927,-8.4049,-8.4852,-8.5572,-8.6026,-8.6174,-8.6536,-8.6786,-8.6856,-8.6925,-8.6995,-8.7027,-8.7163,-8.6782,-8.6602,-8.6412,-8.6436,-8.6756,-8.7076,-8.7923,-7.3343,-7.2376,-7.2297,-7.2297,-7.2297,-7.2297,-7.2297,-7.2297,-7.2245,-7.1905,-7.1409,-7.1278,-7.0703,-6.9657,-6.9161,-6.8847,-6.8716,-6.8246,-6.7697,-6.7206,-6.7056,-6.6555,-6.6134,-6.6864,-6.7303,-6.733,-6.8366,-6.891,-6.9146,-6.8731,-6.8421,-6.8365,-6.8281,-6.8337,-6.8253,-6.7831,-6.7522,-6.7466,-6.7355,-6.7378,-6.7736,-6.8039,-6.8342,-6.8284,-6.8528,-6.8741,-6.8741,-6.8981,-6.9089,-6.8867,-6.9486,-6.9983,-7.0404,-7.1103,-7.2089,-7.3168,-7.3366,-7.3561,-7.406,-7.4139,-7.396,-7.3739,-7.428,-7.4505,-7.3607,-7.4352,-7.4625,-7.427,-7.4303,-7.4237,-7.4338,-7.4539,-7.4805,-7.5067,-7.5228,-7.5709,-7.6402,-7.6645,-7.7065,-7.7719,-7.8101,-7.8357,-7.8525,-7.8574,-7.8574,-7.8574,-7.8574,-7.8574,-7.8574,-7.8574,-7.8728,-7.9364,-8.0482,-8.1851,-8.2678,-8.3743,-8.4649,-8.5339,-8.5876,-8.6356,-8.6501,-8.6715,-8.6856,-8.6962,-8.7031,-8.7027,-8.709,-8.6672,-8.5992,-8.5593,-8.5374,-8.5529,-8.6607,-8.6964,-8.7754,-7.3343,-7.2323,-7.2297,-7.2297,-7.2297,-7.2297,-7.2297,-7.2297,-7.2297,-7.2167,-7.1879,-7.1565,-7.1173,-7.0729,-6.9814,-6.9187,-6.8847,-6.8638,-6.8385,-6.7998,-6.7924,-6.7906,-6.7979,-6.7921,-6.8044,-6.8344,-6.8916,-6.9253,-6.9287,-6.9152,-6.8843,-6.8534,-6.8478,-6.8478,-6.8506,-6.8646,-6.8534,-6.814,-6.8315,-6.8286,-6.8307,-6.8723,-6.8854,-6.8586,-6.8692,-6.8828,-6.8828,-6.9068,-6.9486,-6.9779,-7.056,-7.1208,-7.1967,-7.3067,-7.4021,-7.4837,-7.5067,-7.5103,-7.4912,-7.5103,-7.4891,-7.4354,-7.4811,-7.4919,-7.4678,-7.5062,-7.5411,-7.5219,-7.4996,-7.49,-7.4869,-7.4772,-7.4771,-7.5131,-7.5422,-7.5805,-7.6368,-7.6828,-7.7278,-7.7807,-7.8237,-7.849,-7.8574,-7.8574,-7.8574,-7.8574,-7.8574,-7.8574,-7.8574,-7.8574,-7.8798,-7.9646,-8.0859,-8.2099,-8.3045,-8.4362,-8.5339,-8.5648,-8.61,-8.6392,-8.6644,-8.6786,-8.6925,-8.7031,-8.7031,-8.699,-8.7084,-8.7165,-8.6259,-8.5893,-8.5595,-8.5701,-8.6756,-8.7113,-8.7923,-7.316,-7.2376,-7.2297,-7.2297,-7.2297,-7.2297,-7.2297,-7.2297,-7.2297,-7.2297,-7.2219,-7.1853,-7.1592,-7.1304,-7.0572,-7.0114,-6.9564,-6.9197,-6.8865,-6.8641,-6.8941,-6.9,-6.8966,-6.8854,-6.8821,-6.9043,-6.9274,-6.9615,-6.9847,-6.977,-6.9461,-6.9096,-6.9068,-6.9068,-6.9124,-6.9292,-6.9152,-6.896,-6.8994,-6.9053,-6.8964,-6.9292,-6.9309,-6.9176,-6.9079,-6.8963,-6.8963,-6.947,-6.9869,-7.0528,-7.1405,-7.2422,-7.3539,-7.4539,-7.5369,-7.5951,-7.6149,-7.6217,-7.5765,-7.5926,-7.5747,-7.5067,-7.5417,-7.5559,-7.5212,-7.5602,-7.5956,-7.5872,-7.5647,-7.5492,-7.5529,-7.5504,-7.5306,-7.5299,-7.5422,-7.5805,-7.6402,-7.7009,-7.7509,-7.8066,-7.8406,-7.8574,-7.8574,-7.8574,-7.8574,-7.8574,-7.8574,-7.8574,-7.8574,-7.8609,-7.8881,-7.9729,-8.0739,-8.1961,-8.3029,-8.4295,-8.5319,-8.5767,-8.6247,-8.6536,-8.6786,-8.6925,-8.6995,-8.7031,-8.7027,-8.6985,-8.7077,-8.7332,-8.7079,-8.6611,-8.6213,-8.6095,-8.6794,-8.7283,-8.8036,-7.282,-7.2323,-7.2297,-7.2297,-7.2297,-7.2297,-7.2297,-7.2297,-7.2297,-7.2297,-7.2271,-7.2245,-7.1931,-7.1513,-7.1304,-7.136,-7.1069,-7.0145,-6.9518,-6.8989,-6.9534,-6.9643,-6.94,-6.9502,-6.9656,-6.9704,-6.9961,-7.0421,-7.1035,-7.0557,-7.0248,-7.0248,-7.0135,-7.0079,-7.0248,-6.9714,-6.9433,-6.9438,-6.9564,-6.965,-6.9677,-6.9748,-6.9815,-6.9806,-6.9447,-6.9395,-6.9366,-7.0002,-7.0498,-7.1048,-7.217,-7.3539,-7.4539,-7.5166,-7.5635,-7.6181,-7.6296,-7.641,-7.6751,-7.6718,-7.6394,-7.5909,-7.633,-7.6182,-7.5559,-7.5831,-7.6115,-7.6088,-7.6037,-7.6043,-7.6324,-7.6502,-7.6241,-7.527,-7.546,-7.5845,-7.6495,-7.7099,-7.7807,-7.8511,-7.8715,-7.8644,-7.8644,-7.8855,-7.8925,-7.8925,-7.8785,-7.875,-7.875,-7.8679,-7.8858,-7.9327,-8.051,-8.202,-8.3066,-8.4135,-8.5006,-8.5808,-8.632,-8.6786,-8.6786,-8.6925,-8.6995,-8.7031,-8.7132,-8.7157,-8.7099,-8.7312,-8.7105,-8.6709,-8.6459,-8.6617,-8.7204,-8.7827,-8.8186,-7.316,-7.2323,-7.2297,-7.2297,-7.2297,-7.2297,-7.2297,-7.2297,-7.2297,-7.2297,-7.2297,-7.2297,-7.2193,-7.1958,-7.1964,-7.1847,-7.1781,-7.1716,-7.1382,-7.082,-7.0555,-7.0637,-7.061,-7.0551,-7.0406,-7.0493,-7.0584,-7.0838,-7.1109,-7.1035,-7.0754,-7.0388,-7.0332,-7.0304,-7.0304,-7.0107,-7.017,-7.0408,-7.0276,-7.0393,-7.062,-7.0465,-7.0359,-7.0196,-7.0097,-7.0074,-7.0426,-7.0629,-7.0889,-7.1277,-7.2296,-7.3661,-7.4897,-7.5486,-7.5951,-7.6556,-7.667,-7.667,-7.6815,-7.6815,-7.6718,-7.6524,-7.6686,-7.6621,-7.6344,-7.66,-7.6854,-7.6965,-7.6852,-7.6769,-7.702,-7.6934,-7.6608,-7.6004,-7.6357,-7.6632,-7.6942,-7.7436,-7.8258,-7.9227,-7.9417,-7.9417,-7.9522,-7.9733,-8.0049,-8.0014,-7.9698,-7.9417,-7.9346,-7.9163,-7.8906,-7.9302,-8.0741,-8.2177,-8.325,-8.4352,-8.5409,-8.6028,-8.65,-8.6856,-8.6856,-8.6925,-8.7031,-8.71,-8.72,-8.7291,-8.7295,-8.7302,-8.7205,-8.7365,-8.7525,-8.7757,-8.8025,-8.8371,-8.8673,-7.3343,-7.2323,-7.2297,-7.2297,-7.2297,-7.2297,-7.2297,-7.2297,-7.2297,-7.2297,-7.2297,-7.2297,-7.2297,-7.2394,-7.24,-7.2613,-7.2706,-7.2854,-7.2874,-7.247,-7.2068,-7.1881,-7.2123,-7.1472,-7.1301,-7.1438,-7.1346,-7.1505,-7.1934,-7.1681,-7.1259,-7.0754,-7.0641,-7.0529,-7.0332,-7.0304,-7.0452,-7.0837,-7.0876,-7.1109,-7.1337,-7.1271,-7.1028,-7.1004,-7.0672,-7.077,-7.1278,-7.1427,-7.1661,-7.2043,-7.3046,-7.4268,-7.5486,-7.5835,-7.6181,-7.667,-7.6815,-7.6815,-7.6815,-7.6815,-7.6815,-7.6815,-7.6815,-7.6783,-7.6896,-7.712,-7.7278,-7.7511,-7.7435,-7.7495,-7.7749,-7.7903,-7.7681,-7.7444,-7.7464,-7.7793,-7.7995,-7.8588,-7.9234,-8.0033,-8.0189,-8.0189,-8.033,-8.054,-8.0926,-8.0821,-8.0505,-8.0309,-8.0204,-8.0056,-8.0023,-8.0233,-8.139,-8.2535,-8.3313,-8.4531,-8.5846,-8.6282,-8.6679,-8.6856,-8.6962,-8.6925,-8.7031,-8.7237,-8.7335,-8.7534,-8.7609,-8.7773,-8.7824,-8.8171,-8.8269,-8.8339,-8.8346,-8.8616,-8.8861,-7.3369,-7.2402,-7.2297,-7.2297,-7.2297,-7.2297,-7.2297,-7.2297,-7.2297,-7.2297,-7.2297,-7.2297,-7.2297,-7.2472,-7.2716,-7.3236,-7.3554,-7.3613,-7.3851,-7.3857,-7.359,-7.3404,-7.3075,-7.2612,-7.2606,-7.2485,-7.2202,-7.2367,-7.2861,-7.244,-7.1906,-7.1344,-7.1259,-7.1007,-7.0669,-7.0445,-7.0593,-7.1182,-7.1364,-7.1568,-7.2086,-7.1821,-7.1866,-7.2028,-7.1414,-7.1333,-7.2008,-7.253,-7.2764,-7.32,-7.4147,-7.5016,-7.5687,-7.6149,-7.641,-7.6783,-7.6815,-7.6815,-7.6815,-7.6815,-7.6815,-7.6815,-7.6815,-7.6815,-7.6815,-7.7088,-7.7278,-7.761,-7.7905,-7.8122,-7.8411,-7.8908,-7.9058,-7.9026,-7.8638,-7.899,-8.0046,-8.0333,-8.0526,-8.0805,-8.0997,-8.0997,-8.0997,-8.1102,-8.1242,-8.1207,-8.1137,-8.1083,-8.1183,-8.1211,-8.1414,-8.1896,-8.2263,-8.3008,-8.3822,-8.4933,-8.6174,-8.6793,-8.7081,-8.7182,-8.7105,-8.7031,-8.7132,-8.7335,-8.7468,-8.7665,-8.7895,-8.8021,-8.8084,-8.8146,-8.8269,-8.8414,-8.8592,-8.8766,-8.8936,-7.3578,-7.2872,-7.248,-7.2297,-7.2297,-7.2297,-7.2297,-7.2297,-7.2297,-7.2297,-7.2297,-7.2297,-7.2297,-7.2472,-7.3169,-7.3688,-7.378,-7.4357,-7.4615,-7.4784,-7.4985,-7.4304,-7.3568,-7.3514,-7.3512,-7.3445,-7.346,-7.3516,-7.3142,-7.2973,-7.2552,-7.1962,-7.1934,-7.185,-7.1653,-7.1259,-7.1361,-7.1784,-7.1681,-7.1942,-7.2401,-7.2191,-7.2233,-7.2562,-7.237,-7.2624,-7.3386,-7.4061,-7.4313,-7.4451,-7.4659,-7.5369,-7.6034,-7.6264,-7.641,-7.6783,-7.6815,-7.6815,-7.6815,-7.6848,-7.6848,-7.6815,-7.688,-7.6815,-7.6783,-7.7055,-7.7245,-7.761,-7.7971,-7.8296,-7.8724,-7.9179,-7.9667,-8.0301,-7.9857,-7.996,-8.0762,-8.084,-8.0841,-8.1542,-8.1769,-8.1769,-8.1874,-8.2155,-8.2436,-8.2401,-8.2085,-8.1856,-8.1958,-8.1895,-8.1957,-8.2333,-8.2727,-8.3474,-8.4295,-8.537,-8.6429,-8.7231,-8.7557,-8.7586,-8.7468,-8.7242,-8.7305,-8.7431,-8.76,-8.7794,-8.7958,-8.8084,-8.8084,-8.8084,-8.8293,-8.8473,-8.8592,-8.8766,-8.8936,-7.3892,-7.3081,-7.2768,-7.2506,-7.2323,-7.2297,-7.2297,-7.2297,-7.2297,-7.2297,-7.2297,-7.2297,-7.2472,-7.2647,-7.3342,-7.386,-7.4032,-7.4859,-7.5339,-7.5339,-7.5817,-7.5323,-7.4499,-7.4445,-7.4415,-7.4214,-7.4258,-7.4074,-7.3801,-7.3648,-7.3142,-7.2692,-7.258,-7.2468,-7.2131,-7.199,-7.2217,-7.2764,-7.2572,-7.272,-7.3008,-7.3115,-7.3187,-7.331,-7.3401,-7.3756,-7.4599,-7.5246,-7.5459,-7.5194,-7.5206,-7.5603,-7.6066,-7.641,-7.6524,-7.6815,-7.7042,-7.7236,-7.7301,-7.7463,-7.7528,-7.7301,-7.7236,-7.7042,-7.6993,-7.7167,-7.7467,-7.761,-7.7971,-7.8403,-7.8936,-7.9459,-8.0276,-8.1029,-8.1135,-8.1283,-8.1826,-8.1837,-8.1945,-8.2436,-8.2541,-8.2541,-8.2577,-8.2963,-8.3138,-8.3103,-8.2787,-8.2699,-8.2854,-8.2602,-8.2655,-8.3056,-8.345,-8.4198,-8.4804,-8.5697,-8.683,-8.7633,-8.8508,-8.8536,-8.8056,-8.772,-8.7667,-8.7763,-8.7813,-8.7932,-8.8144,-8.827,-8.8084,-8.8146,-8.8354,-8.8533,-8.8592,-8.8766,-8.8879,-7.4336,-7.3291,-7.316,-7.282,-7.2428,-7.2323,-7.2297,-7.2297,-7.2297,-7.2297,-7.2297,-7.2297,-7.2472,-7.2969,-7.3515,-7.386,-7.4401,-7.5198,-7.5676,-7.6011,-7.6179,-7.6041,-7.5792,-7.557,-7.5402,-7.5309,-7.4724,-7.4736,-7.4558,-7.4294,-7.3788,-7.3339,-7.3198,-7.2945,-7.2692,-7.2761,-7.3104,-7.3449,-7.3637,-7.3732,-7.3907,-7.4164,-7.4356,-7.4644,-7.4842,-7.5084,-7.5764,-7.6276,-7.6458,-7.586,-7.5942,-7.6155,-7.6175,-7.6718,-7.6912,-7.701,-7.7463,-7.7884,-7.7916,-7.8305,-7.8564,-7.8046,-7.7884,-7.7593,-7.7253,-7.7539,-7.7773,-7.761,-7.8188,-7.8617,-7.9146,-7.9972,-8.0774,-8.1517,-8.2014,-8.2453,-8.2579,-8.2941,-8.3208,-8.3208,-8.3173,-8.3208,-8.3208,-8.3208,-8.3208,-8.3208,-8.3033,-8.3086,-8.3226,-8.3187,-8.3458,-8.4017,-8.4532,-8.5075,-8.5572,-8.606,-8.7158,-8.8144,-8.9349,-8.9674,-8.9047,-8.8639,-8.833,-8.8243,-8.8627,-8.8683,-8.8663,-8.8578,-8.8493,-8.8406,-8.8777,-8.8638,-8.8533,-8.8708,-8.8879,-7.5146,-7.4441,-7.3526,-7.3029,-7.2872,-7.248,-7.2297,-7.2297,-7.2297,-7.2297,-7.2297,-7.2297,-7.2647,-7.2969,-7.3488,-7.4058,-7.4572,-7.5367,-7.6011,-7.6678,-7.6871,-7.6981,-7.6978,-7.6866,-7.6423,-7.614,-7.6163,-7.5736,-7.5165,-7.4856,-7.4435,-7.3929,-7.3901,-7.376,-7.3648,-7.369,-7.3647,-7.4013,-7.4149,-7.4426,-7.4838,-7.5184,-7.5668,-7.6245,-7.6804,-7.7262,-7.7392,-7.7591,-7.7741,-7.7792,-7.7645,-7.7393,-7.7442,-7.7931,-7.7884,-7.7431,-7.8014,-7.8435,-7.8111,-7.8564,-7.8856,-7.8726,-7.8647,-7.8355,-7.769,-7.8061,-7.8101,-7.7883,-7.8188,-7.883,-7.9562,-8.041,-8.1068,-8.1741,-8.2211,-8.2579,-8.2796,-8.3031,-8.3208,-8.3208,-8.3208,-8.3208,-8.3208,-8.3208,-8.3208,-8.3208,-8.3208,-8.3297,-8.3508,-8.3595,-8.3939,-8.4361,-8.4738,-8.5139,-8.5711,-8.6495,-8.7888,-8.8874,-9.0044,-9.0739,-9.0113,-8.9635,-8.9403,-8.9393,-8.9596,-8.9543,-8.9266,-8.9618,-8.9644,-8.9373,-8.9163,-8.9137,-8.913,-8.9082,-8.9217,-7.58,-7.5172,-7.4022,-7.3369,-7.3055,-7.2533,-7.2297,-7.2297,-7.2297,-7.2297,-7.2297,-7.2297,-7.2647,-7.3316,-7.3688,-7.4203,-7.5028,-7.5871,-7.6678,-7.7174,-7.7338,-7.753,-7.753,-7.7502,-7.7142,-7.6834,-7.6745,-7.6373,-7.5896,-7.5502,-7.525,-7.494,-7.4884,-7.4873,-7.4804,-7.4748,-7.4874,-7.5124,-7.541,-7.5536,-7.5627,-7.6293,-7.7053,-7.785,-7.8513,-7.8978,-7.8811,-7.8975,-7.9097,-7.9149,-7.901,-7.8698,-7.8183,-7.8545,-7.8467,-7.8175,-7.8726,-7.9212,-7.905,-7.9406,-7.9795,-7.9406,-7.9425,-7.8809,-7.8225,-7.8322,-7.8298,-7.7916,-7.8155,-7.8936,-7.987,-8.061,-8.1262,-8.193,-8.2303,-8.267,-8.2976,-8.312,-8.3208,-8.3208,-8.3208,-8.3208,-8.3208,-8.3244,-8.3208,-8.3208,-8.3208,-8.3297,-8.3297,-8.3472,-8.3819,-8.4242,-8.4656,-8.5132,-8.5706,-8.6931,-8.8691,-8.9788,-9.0777,-9.1216,-9.1033,-9.0737,-9.0441,-9.0357,-9.0193,-9.0032,-8.9905,-9.0295,-9.0573,-9.0191,-8.9882,-8.9845,-8.9915,-9.0093,-9.0247,-7.627,-7.5643,-7.4571,-7.3787,-7.3212,-7.2689,-7.2376,-7.2297,-7.2297,-7.2297,-7.2297,-7.2297,-7.2995,-7.3515,-7.386,-7.4518,-7.5676,-7.6512,-7.7174,-7.7502,-7.7694,-7.7694,-7.7694,-7.7666,-7.7666,-7.761,-7.7245,-7.6907,-7.6626,-7.6317,-7.5924,-7.5868,-7.5999,-7.582,-7.5796,-7.6179,-7.629,-7.6233,-7.6908,-7.721,-7.6975,-7.7585,-7.8398,-7.9084,-7.9902,-8.0057,-8.0043,-8.0175,-8.0489,-8.0475,-8.0534,-7.9918,-7.929,-7.901,-7.9017,-7.8985,-7.96,-7.9892,-7.9892,-8.0378,-8.0637,-8.0151,-8.0119,-7.9536,-7.8712,-7.8648,-7.8481,-7.8289,-7.8428,-7.9213,-8.0175,-8.0947,-8.1799,-8.2627,-8.2905,-8.311,-8.3435,-8.3524,-8.363,-8.3244,-8.3419,-8.356,-8.3454,-8.3384,-8.3314,-8.3244,-8.3208,-8.3208,-8.3297,-8.3385,-8.3733,-8.4039,-8.4456,-8.5981,-8.6774,-8.7257,-8.9093,-9.0447,-9.1436,-9.1546,-9.1693,-9.1472,-9.1066,-9.0729,-9.05,-9.0594,-9.0831,-9.1223,-9.1279,-9.087,-9.0738,-9.074,-9.0923,-9.1081,-9.1221,-7.627,-7.5669,-7.5016,-7.4414,-7.3813,-7.3212,-7.2663,-7.235,-7.2297,-7.2297,-7.2297,-7.2647,-7.3169,-7.3688,-7.423,-7.5055,-7.6206,-7.6843,-7.7338,-7.7694,-7.7694,-7.7694,-7.7694,-7.7694,-7.7694,-7.7666,-7.7497,-7.7273,-7.6935,-7.6683,-7.6458,-7.6064,-7.6328,-7.6504,-7.6649,-7.7075,-7.7385,-7.7491,-7.8201,-7.8537,-7.8715,-7.9208,-7.9698,-8.0138,-8.0955,-8.1108,-8.1154,-8.1475,-8.1947,-8.2224,-8.2594,-8.2199,-8.1423,-8.0928,-8.0183,-7.9665,-8.0216,-8.0669,-8.041,-8.0637,-8.0928,-8.0896,-8.0799,-8.0442,-7.975,-7.9594,-7.9313,-7.8991,-7.9115,-7.9794,-8.0952,-8.1628,-8.2727,-8.3711,-8.4321,-8.4472,-8.4803,-8.4914,-8.4472,-8.3735,-8.3876,-8.3981,-8.3805,-8.363,-8.356,-8.3384,-8.3208,-8.3208,-8.3208,-8.3297,-8.3472,-8.3869,-8.4255,-8.6197,-8.8026,-8.8395,-8.9349,-9.0814,-9.1657,-9.1657,-9.1767,-9.1767,-9.1545,-9.1281,-9.1491,-9.1776,-9.2054,-9.215,-9.1994,-9.165,-9.1631,-9.1634,-9.1745,-9.1792,-9.1708,-7.6453,-7.6061,-7.4937,-7.4284,-7.3892,-7.3055,-7.2559,-7.2323,-7.2297,-7.2297,-7.2472,-7.2795,-7.3316,-7.386,-7.4374,-7.5367,-7.6539,-7.7201,-7.7502,-7.7694,-7.7694,-7.7694,-7.7694,-7.7694,-7.7694,-7.7694,-7.7666,-7.7554,-7.7273,-7.7273,-7.7048,-7.7097,-7.7307,-7.7486,-7.7389,-7.7835,-7.8359,-7.8524,-7.9149,-7.9753,-8.0108,-8.0568,-8.103,-8.1517,-8.2011,-8.2224,-8.2077,-8.243,-8.2649,-8.2767,-8.2794,-8.2846,-8.2677,-8.2288,-8.1673,-8.0896,-8.1155,-8.1479,-8.1025,-8.1155,-8.0993,-8.1025,-8.1144,-8.0906,-8.047,-8.0346,-8.0227,-7.9936,-8.0219,-8.0871,-8.1832,-8.2343,-8.3346,-8.4396,-8.4889,-8.5135,-8.5399,-8.5526,-8.5104,-8.4543,-8.4788,-8.4753,-8.4121,-8.3981,-8.3876,-8.363,-8.3279,-8.3208,-8.3244,-8.3297,-8.3385,-8.418,-8.4753,-8.642,-8.832,-8.8943,-8.9824,-9.1217,-9.1987,-9.1987,-9.2096,-9.2207,-9.2167,-9.2048,-9.2373,-9.2627,-9.261,-9.2521,-9.2476,-9.2468,-9.2513,-9.2454,-9.2492,-9.2428,-9.2383,-7.627,-7.614,-7.465,-7.3944,-7.3683,-7.2872,-7.2402,-7.2323,-7.2297,-7.2297,-7.2297,-7.2969,-7.3488,-7.4005,-7.5001,-7.6011,-7.7009,-7.753,-7.7694,-7.7694,-7.7694,-7.7694,-7.7694,-7.7694,-7.7694,-7.7694,-7.7694,-7.7694,-7.761,-7.761,-7.7666,-7.7717,-7.8155,-7.8499,-7.8363,-7.8869,-7.9151,-7.9635,-8.0316,-8.0855,-8.1377,-8.1979,-8.2448,-8.2772,-8.3076,-8.3186,-8.3099,-8.3419,-8.3574,-8.3378,-8.3466,-8.3337,-8.3454,-8.3519,-8.3195,-8.2515,-8.2223,-8.2126,-8.19,-8.1382,-8.1025,-8.1025,-8.1263,-8.1023,-8.0899,-8.0918,-8.1058,-8.0863,-8.1175,-8.1778,-8.2543,-8.3126,-8.4067,-8.509,-8.5516,-8.5705,-8.6114,-8.6368,-8.6509,-8.6158,-8.6017,-8.5385,-8.4648,-8.4859,-8.4859,-8.3805,-8.3454,-8.3384,-8.3349,-8.3208,-8.3508,-8.4491,-8.5473,-8.6908,-8.8244,-8.9162,-9.0373,-9.195,-9.2427,-9.2501,-9.2611,-9.2757,-9.2789,-9.2857,-9.2816,-9.3065,-9.298,-9.2855,-9.2773,-9.283,-9.3109,-9.3163,-9.3053,-9.3162,-9.3305,-7.5094,-7.5042,-7.431,-7.3709,-7.3238,-7.3029,-7.2716,-7.2323,-7.2297,-7.2297,-7.2297,-7.3169,-7.3833,-7.4662,-7.6011,-7.6678,-7.7174,-7.7502,-7.7694,-7.7694,-7.7694,-7.7694,-7.7694,-7.7694,-7.7694,-7.7694,-7.7694,-7.7694,-7.7694,-7.7694,-7.7694,-7.7858,-7.8508,-7.8935,-7.898,-7.9905,-8.0561,-8.0911,-8.1868,-8.2491,-8.2684,-8.3023,-8.2921,-8.2898,-8.334,-8.3831,-8.3898,-8.4283,-8.4567,-8.4819,-8.4944,-8.4685,-8.4328,-8.4717,-8.4199,-8.3325,-8.2547,-8.2094,-8.1997,-8.1446,-8.1025,-8.1025,-8.1144,-8.1198,-8.129,-8.1328,-8.1368,-8.0763,-8.1342,-8.2287,-8.3287,-8.3943,-8.5064,-8.631,-8.7117,-8.7405,-8.7714,-8.7738,-8.7808,-8.7492,-8.7281,-8.6052,-8.5034,-8.5526,-8.5807,-8.4578,-8.3665,-8.3665,-8.3754,-8.3877,-8.4176,-8.5264,-8.6253,-8.7534,-8.8611,-8.9456,-9.0739,-9.2427,-9.2794,-9.2941,-9.3345,-9.3529,-9.3673,-9.3705,-9.3661,-9.343,-9.33,-9.3144,-9.3062,-9.3054,-9.3248,-9.3375,-9.3464,-9.3686,-9.3927,-7.4388,-7.4336,-7.3735,-7.3343,-7.3081,-7.2794,-7.2533,-7.2323,-7.2297,-7.2297,-7.2472,-7.3342,-7.4347,-7.5535,-7.6705,-7.7174,-7.7338,-7.7694,-7.7694,-7.7694,-7.7694,-7.7694,-7.7694,-7.7694,-7.7694,-7.7694,-7.7694,-7.7694,-7.7694,-7.7694,-7.7858,-7.8212,-7.8698,-7.9312,-7.966,-8.0551,-8.133,-8.204,-8.3219,-8.3817,-8.3891,-8.3857,-8.3808,-8.3038,-8.3634,-8.4025,-8.4411,-8.4795,-8.5174,-8.53,-8.5268,-8.517,-8.4944,-8.5041,-8.4782,-8.3875,-8.313,-8.258,-8.2126,-8.1446,-8.1122,-8.1025,-8.1144,-8.1467,-8.1868,-8.2132,-8.2175,-8.2212,-8.2619,-8.3295,-8.4239,-8.517,-8.6334,-8.7419,-8.8404,-8.8767,-8.9021,-8.9292,-8.9317,-8.8896,-8.8405,-8.7246,-8.6298,-8.6474,-8.6474,-8.5245,-8.4648,-8.4808,-8.5076,-8.5375,-8.5792,-8.6406,-8.7277,-8.8196,-8.9047,-8.9893,-9.1031,-9.239,-9.3051,-9.3382,-9.4117,-9.4447,-9.4628,-9.4438,-9.4202,-9.3968,-9.3694,-9.3285,-9.3025,-9.3119,-9.3248,-9.3375,-9.3563,-9.3807,-9.4044,-7.3918,-7.3735,-7.316,-7.2898,-7.2872,-7.2454,-7.2297,-7.2297,-7.2297,-7.2297,-7.2821,-7.3661,-7.5028,-7.6206,-7.6871,-7.7366,-7.7694,-7.7694,-7.7694,-7.7694,-7.7694,-7.7694,-7.7694,-7.7694,-7.7694,-7.7694,-7.7694,-7.7694,-7.7694,-7.7694,-7.7858,-7.8403,-7.8698,-7.9501,-8.0136,-8.0893,-8.1669,-8.3011,-8.4172,-8.4752,-8.4559,-8.457,-8.4195,-8.3973,-8.399,-8.4283,-8.4411,-8.4922,-8.53,-8.53,-8.5268,-8.5235,-8.5203,-8.5203,-8.4749,-8.4037,-8.3422,-8.3001,-8.2223,-8.1511,-8.1122,-8.1144,-8.1381,-8.185,-8.2165,-8.2656,-8.2996,-8.3021,-8.3497,-8.4251,-8.5264,-8.6127,-8.7125,-8.8181,-8.917,-8.9738,-9.0204,-9.0274,-9.0195,-8.9633,-8.9177,-8.8896,-8.8124,-8.7808,-8.7106,-8.5877,-8.5652,-8.5827,-8.6241,-8.6715,-8.7059,-8.7515,-8.8113,-8.8957,-8.9924,-9.0771,-9.1801,-9.2646,-9.3234,-9.408,-9.5037,-9.5441,-9.5586,-9.5318,-9.4933,-9.4481,-9.4214,-9.3582,-9.2988,-9.3184,-9.3312,-9.3438,-9.3625,-9.3905,-9.4386,-7.3683,-7.3134,-7.2611,-7.2402,-7.2376,-7.2323,-7.2297,-7.2297,-7.2297,-7.2621,-7.3116,-7.4662,-7.5704,-7.6539,-7.7201,-7.7694,-7.7694,-7.7694,-7.7694,-7.7694,-7.7694,-7.7694,-7.7694,-7.7694,-7.7694,-7.7694,-7.7694,-7.7694,-7.7694,-7.7858,-7.8049,-7.8403,-7.8859,-7.9501,-8.0452,-8.136,-8.2282,-8.361,-8.482,-8.5204,-8.4995,-8.4989,-8.4739,-8.4416,-8.4277,-8.4283,-8.4283,-8.4922,-8.5268,-8.5268,-8.5268,-8.5268,-8.5268,-8.5138,-8.4555,-8.3746,-8.3713,-8.3163,-8.2288,-8.1576,-8.1155,-8.1177,-8.1499,-8.1967,-8.2198,-8.2656,-8.2996,-8.3332,-8.3884,-8.4764,-8.5743,-8.6746,-8.7744,-8.901,-8.9931,-9.0408,-9.0843,-9.1143,-9.0897,-9.0336,-8.9949,-8.9669,-8.9518,-8.9061,-8.8498,-8.7339,-8.7402,-8.7579,-8.7391,-8.7757,-8.8099,-8.8505,-8.9068,-8.9906,-9.0984,-9.187,-9.2569,-9.3526,-9.4373,-9.5367,-9.64,-9.6621,-9.6505,-9.6351,-9.6003,-9.5335,-9.4734,-9.428,-9.3826,-9.3434,-9.3413,-9.39,-9.4392,-9.4741,-9.5309,-7.3996,-7.3108,-7.2872,-7.2611,-7.2297,-7.2297,-7.2297,-7.2297,-7.2297,-7.2769,-7.3554,-7.4974,-7.6039,-7.6567,-7.7201,-7.7694,-7.7694,-7.7694,-7.7694,-7.7694,-7.7694,-7.7694,-7.7694,-7.7694,-7.7694,-7.7694,-7.7694,-7.7694,-7.7694,-7.7858,-7.8346,-7.8698,-7.9181,-8.0107,-8.1049,-8.213,-8.3191,-8.3907,-8.505,-8.5632,-8.5323,-8.5567,-8.5642,-8.5349,-8.5045,-8.5116,-8.5278,-8.5242,-8.5365,-8.5268,-8.5268,-8.5268,-8.5203,-8.4944,-8.4264,-8.3422,-8.3648,-8.3195,-8.2483,-8.1835,-8.1663,-8.1414,-8.1734,-8.2148,-8.2297,-8.2803,-8.322,-8.3665,-8.4203,-8.5255,-8.6261,-8.7227,-8.833,-8.9703,-9.0628,-9.1142,-9.1684,-9.2021,-9.1775,-9.1248,-9.0862,-9.0678,-9.0492,-9.0305,-8.9671,-8.9037,-8.9152,-8.925,-8.9005,-8.9085,-8.9485,-8.9821,-9.0421,-9.1146,-9.2227,-9.2819,-9.3338,-9.4371,-9.5441,-9.6252,-9.7027,-9.7284,-9.7203,-9.7051,-9.6894,-9.6257,-9.5656,-9.5128,-9.4636,-9.4244,-9.4423,-9.4819,-9.5209,-9.5612,-9.6155,-7.4153,-7.3369,-7.3003,-7.2663,-7.2323,-7.2297,-7.2297,-7.2297,-7.2297,-7.2742,-7.3844,-7.5116,-7.6039,-7.6567,-7.7366,-7.7694,-7.7694,-7.7694,-7.7694,-7.7694,-7.7694,-7.7694,-7.7694,-7.7694,-7.7694,-7.7694,-7.7694,-7.7694,-7.7694,-7.8212,-7.8536,-7.902,-7.9632,-8.058,-8.1514,-8.3041,-8.3938,-8.435,-8.5339,-8.6071,-8.5713,-8.5988,-8.6347,-8.6118,-8.5747,-8.5629,-8.5793,-8.5662,-8.5559,-8.5397,-8.5268,-8.5268,-8.5106,-8.4782,-8.4199,-8.381,-8.3584,-8.3422,-8.2904,-8.2223,-8.215,-8.2346,-8.1897,-8.2378,-8.2889,-8.346,-8.3843,-8.432,-8.4966,-8.5841,-8.7088,-8.8053,-8.9433,-9.0916,-9.1606,-9.2123,-9.277,-9.3109,-9.2653,-9.2196,-9.1943,-9.1688,-9.1774,-9.1587,-9.1069,-9.0467,-9.0206,-9.0408,-9.0464,-9.0673,-9.1318,-9.1619,-9.1958,-9.2758,-9.3545,-9.396,-9.4332,-9.4962,-9.5958,-9.6548,-9.721,-9.7502,-9.7681,-9.7562,-9.7297,-9.6926,-9.6579,-9.6079,-9.5586,-9.5118,-9.547,-9.5945,-9.6102,-9.6533,-9.7112,-7.4049,-7.3839,-7.282,-7.235,-7.2297,-7.2297,-7.2297,-7.2297,-7.2472,-7.2916,-7.4015,-7.5481,-7.6234,-7.6567,-7.7201,-7.753,-7.7694,-7.7694,-7.7694,-7.7694,-7.7694,-7.7694,-7.7694,-7.7694,-7.7694,-7.7694,-7.7694,-7.7694,-7.7694,-7.8212,-7.8698,-7.9312,-8.0265,-8.1204,-8.1669,-8.3161,-8.4055,-8.4643,-8.5688,-8.6054,-8.6182,-8.6334,-8.66,-8.6921,-8.6614,-8.6302,-8.6276,-8.6209,-8.5883,-8.5397,-8.53,-8.5268,-8.5235,-8.5073,-8.4652,-8.4167,-8.4652,-8.4652,-8.4134,-8.2904,-8.2822,-8.3128,-8.2766,-8.2903,-8.4093,-8.4522,-8.4623,-8.5211,-8.6163,-8.7215,-8.8257,-8.9122,-9.0538,-9.1749,-9.2407,-9.296,-9.3576,-9.3917,-9.346,-9.3074,-9.2955,-9.2867,-9.3024,-9.3003,-9.2539,-9.1991,-9.1458,-9.1461,-9.164,-9.2207,-9.2733,-9.2785,-9.3053,-9.3703,-9.4348,-9.4955,-9.5439,-9.5995,-9.6548,-9.7321,-9.7687,-9.787,-9.7975,-9.7966,-9.7775,-9.7546,-9.7309,-9.7069,-9.7253,-9.7505,-9.6944,-9.7121,-9.7175,-9.7696,-9.8538,-7.4362,-7.3944,-7.316,-7.2637,-7.2323,-7.2297,-7.2297,-7.2472,-7.2995,-7.3581,-7.433,-7.5453,-7.6206,-7.6539,-7.6871,-7.7366,-7.7694,-7.7694,-7.7694,-7.7694,-7.7694,-7.7694,-7.7694,-7.7694,-7.7694,-7.7694,-7.7694,-7.7694,-7.7666,-7.8374,-7.8992,-7.9632,-8.1175,-8.2282,-8.289,-8.3789,-8.435,-8.4643,-8.5545,-8.629,-8.64,-8.6742,-8.7276,-8.7821,-8.7387,-8.6947,-8.6759,-8.666,-8.6045,-8.5397,-8.5268,-8.5268,-8.517,-8.5041,-8.4555,-8.4264,-8.4588,-8.4717,-8.4588,-8.4037,-8.3634,-8.3737,-8.3736,-8.3742,-8.4771,-8.5249,-8.565,-8.6095,-8.7131,-8.8043,-8.8877,-8.9467,-9.0711,-9.2165,-9.2928,-9.3583,-9.4132,-9.4373,-9.4233,-9.3981,-9.3729,-9.3908,-9.4125,-9.4113,-9.3697,-9.3491,-9.3028,-9.2584,-9.2747,-9.3406,-9.4007,-9.3808,-9.3923,-9.462,-9.523,-9.5801,-9.647,-9.7062,-9.7654,-9.8242,-9.8388,-9.8531,-9.8379,-9.8375,-9.8253,-9.8098,-9.8441,-9.8926,-9.9868,-10.0096,-9.9254,-9.9008,-9.9346,-9.9942,-10.0684,-7.4232,-7.3656,-7.3055,-7.2637,-7.2323,-7.2297,-7.2323,-7.2726,-7.3369,-7.3898,-7.4473,-7.5258,-7.6039,-7.6373,-7.6871,-7.7201,-7.7694,-7.7694,-7.7694,-7.7694,-7.7694,-7.7694,-7.7694,-7.7694,-7.7694,-7.7694,-7.7694,-7.7694,-7.8021,-7.8698,-7.9632,-8.0707,-8.21,-8.3011,-8.3789,-8.4203,-8.4643,-8.4935,-8.5688,-8.629,-8.6573,-8.6931,-8.7794,-8.8012,-8.7905,-8.73,-8.7179,-8.6757,-8.6045,-8.5527,-8.5268,-8.5268,-8.5106,-8.4911,-8.4555,-8.4588,-8.462,-8.4879,-8.4944,-8.4911,-8.4699,-8.4893,-8.4457,-8.4748,-8.56,-8.6245,-8.6533,-8.7058,-8.7817,-8.8594,-8.9326,-9.002,-9.116,-9.2651,-9.3307,-9.3825,-9.4623,-9.4865,-9.4303,-9.4122,-9.3869,-9.4358,-9.4989,-9.5048,-9.4987,-9.4795,-9.4566,-9.4122,-9.3748,-9.4482,-9.4927,-9.4711,-9.4793,-9.5494,-9.6076,-9.6652,-9.7394,-9.8132,-9.8688,-9.9127,-9.9347,-9.9418,-9.9118,-9.8927,-9.914,-9.9426,-10.0161,-10.0782,-10.1129,-10.1351,-10.1069,-10.1068,-10.1519,-10.1833,-10.2232,-7.363,-7.3055,-7.2533,-7.2323,-7.2297,-7.2297,-7.2603,-7.3111,-7.3595,-7.4096,-7.4419,-7.5285,-7.5871,-7.6373,-7.6705,-7.7201,-7.753,-7.7694,-7.7694,-7.7694,-7.7694,-7.7694,-7.7694,-7.7694,-7.7694,-7.7694,-7.7694,-7.7858,-7.8374,-7.9181,-8.0236,-8.1764,-8.286,-8.361,-8.4203,-8.4497,-8.4789,-8.5256,-8.5831,-8.629,-8.6541,-8.6994,-8.7698,-8.7884,-8.7675,-8.7367,-8.7082,-8.666,-8.6012,-8.5559,-8.5268,-8.5268,-8.5268,-8.5268,-8.5268,-8.5268,-8.5203,-8.5235,-8.5235,-8.5138,-8.5512,-8.5613,-8.4981,-8.5603,-8.6461,-8.7045,-8.7384,-8.8013,-8.8845,-8.9316,-8.988,-9.0815,-9.1888,-9.2651,-9.3307,-9.407,-9.5009,-9.49,-9.4092,-9.37,-9.3475,-9.3872,-9.5106,-9.551,-9.5759,-9.5569,-9.5249,-9.4987,-9.4795,-9.552,-9.5719,-9.5297,-9.5616,-9.6332,-9.6887,-9.7095,-9.8023,-9.8725,-9.9463,-9.9901,-10.0158,-10.0009,-9.9522,-9.9443,-10.014,-10.0561,-10.0681,-10.1143,-10.1783,-10.1844,-10.1825,-10.2201,-10.2332,-10.2608,-10.2931,-7.3264,-7.3055,-7.2533,-7.2297,-7.2297,-7.2647,-7.3006,-7.347,-7.4047,-7.4491,-7.4777,-7.517,-7.5535,-7.5871,-7.6373,-7.6871,-7.7201,-7.753,-7.7694,-7.7694,-7.7694,-7.7694,-7.7694,-7.7694,-7.7694,-7.7694,-7.7858,-7.8049,-7.8698,-7.9501,-8.102,-8.2405,-8.3311,-8.4055,-8.4497,-8.4789,-8.5111,-8.5545,-8.5974,-8.6259,-8.6682,-8.7134,-8.7571,-8.7565,-8.7515,-8.7175,-8.6695,-8.6531,-8.5948,-8.543,-8.53,-8.5268,-8.5268,-8.5268,-8.5268,-8.5268,-8.5268,-8.5268,-8.5268,-8.5268,-8.5518,-8.6169,-8.5767,-8.6228,-8.709,-8.7645,-8.7988,-8.8734,-8.9389,-8.9796,-9.0362,-9.1265,-9.2201,-9.2859,-9.3481,-9.4241,-9.5075,-9.497,-9.4198,-9.3847,-9.3588,-9.4348,-9.5516,-9.6145,-9.6322,-9.6135,-9.5851,-9.5699,-9.5723,-9.6386,-9.604,-9.559,-9.6146,-9.6795,-9.6814,-9.6948,-9.8208,-9.9279,-9.9867,-10.0307,-10.0269,-10.0046,-9.9741,-9.9805,-10.0202,-10.0478,-10.0677,-10.1292,-10.1955,-10.2129,-10.2184,-10.2712,-10.3162,-10.3155,-10.3464,-7.2977,-7.2768,-7.2454,-7.2472,-7.2621,-7.3316,-7.3701,-7.4034,-7.4337,-7.4545,-7.5028,-7.5028,-7.5198,-7.5704,-7.6206,-7.6705,-7.7009,-7.753,-7.7694,-7.7694,-7.7694,-7.7694,-7.7694,-7.7694,-7.7829,-7.7829,-7.8021,-7.8374,-7.9181,-8.0423,-8.1947,-8.286,-8.3759,-8.435,-8.4643,-8.4966,-8.54,-8.5831,-8.6148,-8.64,-8.6823,-8.721,-8.7349,-8.7349,-8.7195,-8.6725,-8.6403,-8.6239,-8.5721,-8.5332,-8.53,-8.5268,-8.5268,-8.5268,-8.5268,-8.5268,-8.5268,-8.5268,-8.5268,-8.5268,-8.5642,-8.6136,-8.6291,-8.6744,-8.7223,-8.7862,-8.8405,-8.9004,-8.9593,-9.0207,-9.0845,-9.1473,-9.2374,-9.3207,-9.3726,-9.4277,-9.4588,-9.49,-9.4619,-9.4268,-9.4679,-9.5271,-9.6034,-9.6663,-9.6904,-9.6614,-9.6605,-9.6641,-9.6632,-9.7028,-9.6158,-9.5145,-9.6155,-9.7148,-9.699,-9.7061,-9.8171,-9.9203,-9.9829,-10.0195,-10.0269,-10.0229,-9.9927,-9.9978,-10.0171,-10.0507,-10.0835,-10.1384,-10.1934,-10.2053,-10.2164,-10.2446,-10.2744,-10.3018,-10.3477,-7.2742,-7.2323,-7.2297,-7.2647,-7.3142,-7.4032,-7.4455,-7.4482,-7.4428,-7.4716,-7.5028,-7.5028,-7.517,-7.5508,-7.6039,-7.6539,-7.6871,-7.7366,-7.7694,-7.7694,-7.7694,-7.7694,-7.7694,-7.7829,-7.7964,-7.8289,-7.848,-7.8859,-7.9949,-8.1175,-8.2405,-8.3311,-8.4055,-8.4643,-8.4966,-8.5111,-8.54,-8.6148,-8.629,-8.6432,-8.6791,-8.7115,-8.7244,-8.7157,-8.6751,-8.6144,-8.6049,-8.5753,-8.5268,-8.5268,-8.5268,-8.5268,-8.5268,-8.5268,-8.5268,-8.5268,-8.5268,-8.5393,-8.5425,-8.5425,-8.5799,-8.6169,-8.638,-8.6897,-8.7493,-8.7962,-8.8506,-8.9072,-8.9737,-9.0207,-9.081,-9.168,-9.2478,-9.3242,-9.3865,-9.4452,-9.49,-9.5005,-9.49,-9.4724,-9.5146,-9.584,-9.6398,-9.6957,-9.7063,-9.6946,-9.6911,-9.7087,-9.718,-9.7341,-9.6613,-9.5252,-9.6069,-9.7039,-9.696,-9.7171,-9.806,-9.8981,-9.9607,-9.9935,-9.9861,-9.9968,-10.022,-9.9934,-9.9637,-10.0544,-10.1076,-10.1212,-10.1275,-10.1504,-10.1633,-10.2007,-10.2304,-10.2447,-10.2982,-7.2428,-7.2297,-7.2621,-7.3142,-7.3515,-7.4203,-7.4572,-7.4886,-7.4859,-7.4859,-7.5028,-7.5028,-7.5001,-7.5367,-7.5704,-7.6206,-7.6567,-7.7036,-7.7338,-7.753,-7.7694,-7.7722,-7.7858,-7.8049,-7.8289,-7.8527,-7.8717,-7.9472,-8.0737,-8.1947,-8.3011,-8.3759,-8.435,-8.4789,-8.5111,-8.5111,-8.5545,-8.629,-8.629,-8.6714,-8.7102,-8.6811,-8.6682,-8.6417,-8.6011,-8.5792,-8.5629,-8.5494,-8.53,-8.5268,-8.5268,-8.5268,-8.5268,-8.5268,-8.5268,-8.5268,-8.5268,-8.5425,-8.555,-8.5675,-8.6046,-8.6535,-8.6864,-8.7223,-8.7611,-8.7962,-8.8539,-8.9184,-8.9737,-9.028,-9.0948,-9.1852,-9.2721,-9.3381,-9.4007,-9.463,-9.5251,-9.5216,-9.5181,-9.5462,-9.5813,-9.6199,-9.6758,-9.6934,-9.7039,-9.7039,-9.7039,-9.7071,-9.6887,-9.701,-9.7124,-9.6219,-9.6162,-9.6702,-9.674,-9.7247,-9.8134,-9.8682,-9.9233,-9.9415,-9.9415,-9.9332,-9.9246,-9.9104,-9.9103,-9.9868,-10.0225,-9.9967,-10.0104,-10.0595,-10.1064,-10.1384,-10.1316,-10.1433,-10.2118,-7.2297,-7.2297,-7.2995,-7.3515,-7.4032,-7.4545,-7.4886,-7.5028,-7.5028,-7.5028,-7.5028,-7.5028,-7.5028,-7.5028,-7.5535,-7.5871,-7.6401,-7.6871,-7.7338,-7.753,-7.7694,-7.7942,-7.8105,-7.824,-7.8717,-7.8952,-7.9704,-8.0423,-8.1669,-8.2405,-8.3311,-8.4055,-8.4497,-8.4789,-8.5111,-8.5111,-8.5545,-8.629,-8.629,-8.6714,-8.7273,-8.7075,-8.6841,-8.6577,-8.627,-8.5824,-8.5629,-8.5559,-8.53,-8.5268,-8.5268,-8.5268,-8.5268,-8.5268,-8.5268,-8.5393,-8.5393,-8.555,-8.5799,-8.6046,-8.6258,-8.6744,-8.7104,-8.7342,-8.8045,-8.8391,-8.8733,-8.9373,-8.9771,-9.0207,-9.1323,-9.237,-9.338,-9.4077,-9.4879,-9.5577,-9.6028,-9.6234,-9.6234,-9.6339,-9.655,-9.662,-9.6971,-9.6971,-9.7077,-9.7077,-9.7112,-9.7215,-9.7067,-9.701,-9.6993,-9.7171,-9.7131,-9.6832,-9.6636,-9.7321,-9.8205,-9.8642,-9.8895,-9.8858,-9.8783,-9.8575,-9.8366,-9.8535,-9.8728,-9.9079,-9.9224,-9.9439,-9.9594,-10.012,-10.0403,-10.0739,-10.0708,-10.0976,-10.2053,-7.2297,-7.2472,-7.3342,-7.4032,-7.4401,-7.4859,-7.5028,-7.5028,-7.5028,-7.5028,-7.5001,-7.492,-7.492,-7.517,-7.5367,-7.5871,-7.6206,-7.6705,-7.7201,-7.753,-7.7694,-7.797,-7.819,-7.8488,-7.9095,-7.9805,-8.0522,-8.1485,-8.2405,-8.3161,-8.3759,-8.4497,-8.4789,-8.5111,-8.5111,-8.5256,-8.5545,-8.6148,-8.6432,-8.6854,-8.7102,-8.7285,-8.719,-8.7023,-8.6715,-8.6435,-8.6146,-8.5915,-8.5494,-8.5397,-8.543,-8.5397,-8.543,-8.5462,-8.549,-8.549,-8.5675,-8.5799,-8.6046,-8.6291,-8.6623,-8.6984,-8.7223,-8.7578,-8.8276,-8.8733,-8.8926,-8.9576,-8.9942,-9.0652,-9.1771,-9.2886,-9.3898,-9.4772,-9.5645,-9.6415,-9.666,-9.7006,-9.7006,-9.7041,-9.7041,-9.7077,-9.7077,-9.7112,-9.7112,-9.7112,-9.7215,-9.7317,-9.7481,-9.7483,-9.7528,-9.7839,-9.8128,-9.7625,-9.6942,-9.7801,-9.8868,-9.8346,-9.856,-9.8375,-9.8258,-9.8172,-9.8262,-9.8395,-9.8653,-9.9041,-9.9472,-9.98,-9.9878,-10.0007,-10.076,-10.14,-10.1596,-10.1941,-10.2663,-7.2472,-7.2969,-7.3488,-7.4032,-7.4374,-7.4859,-7.5028,-7.5028,-7.5028,-7.5028,-7.492,-7.4567,-7.454,-7.5028,-7.5028,-7.5367,-7.6039,-7.6373,-7.6705,-7.7009,-7.753,-7.7998,-7.841,-7.9002,-7.966,-8.0394,-8.1175,-8.1947,-8.286,-8.3461,-8.4055,-8.4497,-8.4966,-8.5111,-8.5111,-8.54,-8.575,-8.629,-8.6573,-8.6854,-8.7083,-8.7138,-8.6968,-8.6896,-8.6715,-8.6467,-8.6275,-8.6304,-8.5818,-8.5656,-8.5753,-8.5721,-8.5656,-8.5689,-8.575,-8.574,-8.5799,-8.6169,-8.6413,-8.6666,-8.7182,-8.7256,-8.7526,-8.7795,-8.8343,-8.8506,-8.9049,-9.0188,-9.0623,-9.12,-9.2252,-9.3399,-9.4341,-9.5261,-9.6065,-9.659,-9.6973,-9.7077,-9.7077,-9.7112,-9.7112,-9.7112,-9.7112,-9.7112,-9.7112,-9.7112,-9.7317,-9.742,-9.7587,-9.7821,-9.8025,-9.8523,-9.8893,-9.8204,-9.7355,-9.8799,-9.9609,-9.8936,-9.8486,-9.8709,-9.8667,-9.8172,-9.8233,-9.888,-9.9028,-9.9267,-9.9698,-10.0084,-10.0521,-10.0764,-10.1687,-10.2289,-10.2447,-10.283,-10.3388]}]]